[[{"header":{"parameterUnit":"m.s-1","parameterCategory":1,"la1":30.6,"la2":28.766,"lo1":-90.7593,"lo2":-88.6598,"dy":0.0162,"dx":0.0183,"nx":116,"ny":114,"refTime":"2024-04-05T12:00:00:Z","depth":0,"parameterNumber":2,"parameterNumberName":"U-component_of_WINDS"},"data":[0.0,0.0,0.0,0.0,0.0,0.0,0.0,0.0,0.0,0.0,0.0,0.0,0.0,0.0,0.0,0.0,0.0,0.0,0.0,0.0,0.0,0.0,0.0,0.0,0.0,0.0,0.0,0.0,0.0,0.0,0.0,0.0,0.0,0.0,0.0,0.0,0.0,0.0,0.0,0.0,0.0,0.0,0.0,0.0,0.0,0.0,0.0,0.0,0.0,0.0,0.0,0.0,0.0,0.0,0.0,0.0,0.0,0.0,0.0,0.0,0.0,0.0,0.0,0.0,0.0,0.0,0.0,0.0,0.0,0.0,0.0,0.0,0.0,0.0,0.0,0.0,0.0,0.0,0.0,0.0,0.0,0.0,0.0,0.0,0.0,0.0,0.0,0.0,0.0,0.0,0.0,0.0,0.0,0.0,0.0,0.0,0.0,0.0,0.0,0.0,0.0,0.0,0.0,0.0,0.0,0.0,0.0,0.0,0.0,0.0,0.0,0.0,0.0,0.0,0.0,0.0,0.0,0.0,0.0,0.0,0.0,0.0,0.0,0.0,0.0,0.0,0.0,0.0,0.0,0.0,0.0,0.0,0.0,0.0,0.0,0.0,0.0,0.0,0.0,0.0,0.0,0.0,0.0,0.0,0.0,0.0,0.0,0.0,0.0,0.0,0.0,0.0,0.0,0.0,0.0,0.0,0.0,0.0,0.0,0.0,0.0,0.0,0.0,0.0,0.0,0.0,0.0,0.0,0.0,0.0,0.0,0.0,0.0,0.0,0.0,0.0,0.0,0.0,0.0,0.0,0.0,0.0,0.0,0.0,0.0,0.0,0.0,0.0,0.0,0.0,0.0,0.0,0.0,0.0,0.0,0.0,0.0,0.0,0.0,0.0,0.0,0.0,0.0,0.0,0.0,0.0,0.0,0.0,0.0,0.0,0.0,0.0,0.0,0.0,0.0,0.0,0.0,0.0,0.0,0.0,0.0,0.0,0.0,0.0,0.0,0.0,0.0,0.0,0.0,0.0,0.0,0.0,0.0,0.0,0.0,0.0,0.0,0.0,0.0,0.0,0.0,0.0,0.0,0.0,0.0,0.0,0.0,0.0,0.0,0.0,0.0,0.0,0.0,0.0,0.0,0.0,0.0,0.0,0.0,0.0,0.0,0.0,0.0,0.0,0.0,0.0,0.0,0.0,0.0,0.0,0.0,0.0,0.0,0.0,0.0,0.0,0.0,0.0,0.0,0.0,0.0,0.0,0.0,0.0,0.0,0.0,0.0,0.0,0.0,0.0,0.0,0.0,0.0,0.0,0.0,0.0,0.0,0.0,0.0,0.0,0.0,0.0,0.0,0.0,0.0,0.0,0.0,0.0,0.0,0.0,0.0,0.0,0.0,0.0,0.0,0.0,0.0,0.0,0.0,0.0,0.0,0.0,0.0,0.0,0.0,0.0,0.0,0.0,0.0,0.0,0.0,0.0,0.0,0.0,0.0,0.0,0.0,0.0,0.0,0.0,0.0,0.0,0.0,0.0,0.0,0.0,0.0,0.0,0.0,0.0,0.0,0.0,0.0,0.0,0.0,0.0,0.0,0.0,0.0,0.0,0.0,0.0,0.0,0.0,0.0,0.0,0.0,0.0,0.0,0.0,0.0,0.0,0.0,0.0,0.0,0.0,0.0,0.0,0.0,0.0,0.0,0.0,0.0,0.0,0.0,0.0,0.0,0.0,0.0,0.0,0.0,0.0,0.0,0.0,0.0,0.0,0.0,0.0,0.0,0.0,0.0,0.0,0.0,0.0,0.0,0.0,0.0,0.0,0.0,0.0,0.0,0.0,0.0,0.0,0.0,0.0,0.0,0.0,0.0,0.0,0.0,0.0,0.0,0.0,0.0,0.0,0.0,0.0,0.0,0.0,0.0,0.0,0.0,0.0,0.0,0.0,0.0,0.0,0.0,0.0,0.0,0.0,0.0,0.0,0.0,0.0,0.0,0.0,0.0,0.0,0.0,0.0,0.0,0.0,0.0,0.0,0.0,0.0,0.0,0.0,0.0,0.0,0.0,0.0,0.0,0.0,0.0,0.0,0.0,0.0,0.0,0.0,0.0,0.0,0.0,0.0,0.0,0.0,0.0,0.0,0.0,0.0,0.0,0.0,0.0,0.0,0.0,0.0,0.0,0.0,0.0,0.0,0.0,0.0,0.0,0.0,0.0,0.0,0.0,0.0,0.0,0.0,0.0,0.0,0.0,0.0,0.0,0.0,0.0,0.0,0.0,0.0,0.0,0.0,0.0,0.0,0.0,0.0,0.0,0.0,0.0,0.0,0.0,0.0,0.0,0.0,0.0,0.0,0.0,0.0,0.0,0.0,0.0,0.0,0.0,0.0,0.0,0.0,0.0,0.0,0.0,0.0,0.0,0.0,0.0,0.0,0.0,0.0,0.0,0.0,0.0,0.0,0.0,0.0,0.0,0.0,0.0,0.0,0.0,0.0,0.0,0.0,0.0,0.0,0.0,0.0,0.0,0.0,0.0,0.0,0.0,0.0,0.0,0.0,0.0,0.0,0.0,0.0,0.0,0.0,0.0,0.0,0.0,0.0,0.0,0.0,0.0,0.0,0.0,0.0,0.0,0.0,0.0,0.0,0.0,0.0,0.0,0.0,0.0,0.0,0.0,0.0,0.0,0.0,0.0,0.0,0.0,0.0,0.0,0.0,0.0,0.0,0.0,0.0,0.0,0.0,0.0,0.0,0.0,0.0,0.0,0.0,0.0,0.0,0.0,0.0,0.0,0.0,0.0,0.0,0.0,0.0,0.0,0.0,0.0,0.0,0.0,0.0,0.0,0.0,0.0,0.0,0.0,0.0,0.0,0.0,0.0,0.0,0.0,0.0,0.0,0.0,0.0,0.0,0.0,0.0,0.0,0.0,0.0,0.0,0.0,0.0,0.0,0.0,0.0,0.0,0.0,0.0,0.0,0.0,0.0,0.0,0.0,0.0,0.0,0.0,0.0,0.0,0.0,0.0,0.0,0.0,0.0,0.0,0.0,0.0,0.0,0.0,0.0,0.0,0.0,0.0,0.0,0.0,0.0,0.0,0.0,0.0,0.0,0.0,0.0,0.0,0.0,0.0,0.0,0.0,0.0,0.0,0.0,0.0,0.0,0.0,0.0,0.0,0.0,0.0,0.0,0.0,0.0,0.0,0.0,0.0,0.0,0.0,0.0,0.0,0.0,0.0,0.0,0.0,0.0,0.0,0.0,0.0,0.0,0.0,0.0,0.0,0.0,0.0,0.0,0.0,0.0,0.0,0.0,0.0,0.0,0.0,0.0,0.0,0.0,0.0,0.0,0.0,0.0,0.0,0.0,0.0,0.0,0.0,0.0,0.0,0.0,0.0,0.0,0.0,0.0,0.0,0.0,0.0,0.0,0.0,0.0,0.0,0.0,0.0,0.0,0.0,0.0,0.0,0.0,0.0,0.0,0.0,0.0,0.0,0.0,0.0,0.0,0.0,0.0,0.0,0.0,0.0,0.0,0.0,0.0,0.0,0.0,0.0,0.0,0.0,0.0,0.0,0.0,0.0,0.0,0.0,0.0,0.0,0.0,0.0,0.0,0.0,0.0,0.0,0.0,0.0,0.0,0.0,0.0,0.0,0.0,0.0,0.0,0.0,0.0,0.0,0.0,0.0,0.0,0.0,0.0,0.0,0.0,0.0,0.0,0.0,0.0,0.0,0.0,0.0,0.0,0.0,0.0,0.0,0.0,0.0,0.0,0.0,0.0,0.0,0.0,0.0,0.0,0.0,0.0,0.0,0.0,0.0,0.0,0.0,0.0,0.0,0.0,0.0,0.0,0.0,0.0,0.0,0.0,0.0,0.0,0.0,0.0,0.0,0.0,0.0,0.0,0.0,0.0,0.0,0.0,0.0,0.0,0.0,0.0,0.0,0.0,0.0,0.0,0.0,0.0,0.0,0.0,0.0,0.0,0.0,0.0,0.0,0.0,0.0,0.0,0.0,0.0,0.0,0.0,0.0,0.0,0.0,0.0,0.0,0.0,0.0,0.0,0.0,0.0,0.0,0.0,0.0,0.0,0.0,0.0,0.0,0.0,0.0,0.0,0.0,0.0,0.0,0.0,0.0,0.0,0.0,0.0,0.0,0.0,0.0,0.0,0.0,0.0,0.0,0.0,0.0,0.0,0.0,0.0,0.0,0.0,0.0,0.0,0.0,0.0,0.0,0.0,0.0,0.0,0.0,0.0,0.0,0.0,0.0,0.0,0.0,0.0,0.0,0.0,0.0,0.0,0.0,0.0,0.0,0.0,0.0,0.0,0.0,0.0,0.0,0.0,0.0,0.0,0.0,0.0,0.0,0.0,0.0,0.0,0.0,0.0,0.0,0.0,0.0,0.0,0.0,0.0,0.0,0.0,0.0,0.0,0.0,0.0,0.0,0.0,0.0,0.0,0.0,0.0,0.0,0.0,0.0,0.0,0.0,0.0,0.0,0.0,0.0,0.0,0.0,0.0,0.0,0.0,0.0,0.0,0.0,0.0,0.0,0.0,0.0,0.0,0.0,0.0,0.0,0.0,0.0,0.0,0.0,0.0,0.0,0.0,0.0,0.0,0.0,0.0,0.0,0.0,0.0,0.0,0.0,0.0,0.0,0.0,0.0,0.0,0.0,0.0,0.0,0.0,0.0,0.0,0.0,0.0,0.0,0.0,0.0,0.0,0.0,0.0,0.0,0.0,0.0,0.0,0.0,0.0,0.0,0.0,0.0,0.0,0.0,0.0,0.0,0.0,0.0,0.0,0.0,0.0,0.0,0.0,0.0,0.0,0.0,0.0,0.0,0.0,0.0,0.0,0.0,0.0,0.0,0.0,0.0,0.0,0.0,0.0,0.0,0.0,0.0,0.0,0.0,0.0,0.0,0.0,0.0,0.0,0.0,0.0,0.0,0.0,0.0,0.0,0.0,0.0,0.0,0.0,0.0,0.0,0.0,0.0,0.0,0.0,0.0,0.0,0.0,0.0,0.0,0.0,0.0,0.0,0.0,0.0,0.0,0.0,0.0,0.0,0.0,0.0,0.0,0.0,0.0,0.0,0.0,0.0,0.0,0.0,0.0,0.0,0.0,0.0,0.0,0.0,0.0,0.0,0.0,0.0,0.0,0.0,0.0,0.0,0.0,0.0,0.0,0.0,0.0,0.0,0.0,0.0,0.0,0.0,0.0,0.0,0.0,0.0,0.0,0.0,0.0,0.0,0.0,0.0,0.0,0.0,0.0,0.0,0.0,0.0,0.0,0.0,0.0,0.0,0.0,0.0,0.0,0.0,0.0,0.0,0.0,0.0,0.0,0.0,0.0,0.0,0.0,0.0,0.0,0.0,0.0,0.0,0.0,0.0,0.0,0.0,0.0,0.0,0.0,0.0,0.0,0.0,0.0,0.0,0.0,0.0,0.0,0.0,0.0,0.0,0.0,0.0,0.0,0.0,0.0,0.0,0.0,0.0,0.0,0.0,0.0,0.0,0.0,0.0,0.0,0.0,0.0,0.0,0.0,0.0,0.0,0.0,0.0,0.0,0.0,0.0,0.0,0.0,0.0,0.0,0.0,0.0,0.0,0.0,0.0,0.0,0.0,0.0,0.0,0.0,0.0,0.0,0.0,0.0,0.0,0.0,0.0,0.0,0.0,0.0,0.0,0.0,0.0,0.0,0.0,0.0,0.0,0.0,0.0,0.0,0.0,0.0,0.0,0.0,0.0,0.0,0.0,0.0,0.0,0.0,0.0,0.0,0.0,0.0,0.0,0.0,0.0,0.0,0.0,0.0,0.0,0.0,0.0,0.0,0.0,0.0,0.0,0.0,0.0,0.0,0.0,0.0,0.0,0.0,0.0,0.0,0.0,0.0,0.0,0.0,0.0,0.0,0.0,0.0,0.0,0.0,0.0,0.0,0.0,0.0,0.0,0.0,0.0,0.0,0.0,0.0,0.0,0.0,0.0,0.0,0.0,0.0,0.0,0.0,0.0,0.0,0.0,0.0,0.0,0.0,0.0,0.0,0.0,0.0,0.0,0.0,0.0,0.0,0.0,0.0,0.0,0.0,0.0,0.0,0.0,0.0,0.0,-5.2785,-5.2067,0.0,0.0,0.0,0.0,0.0,0.0,0.0,0.0,0.0,0.0,0.0,0.0,0.0,0.0,0.0,0.0,0.0,0.0,0.0,0.0,0.0,0.0,0.0,-5.1229,-5.1229,-5.1229,-5.1229,-5.1229,-5.1229,-5.1229,0.0,0.0,0.0,0.0,-5.1229,-5.1229,-5.1229,-5.1229,-5.2013,-5.273,-5.3415,-5.3561,-5.3917,-5.4482,0.0,0.0,0.0,0.0,0.0,0.0,0.0,0.0,0.0,0.0,0.0,0.0,0.0,0.0,0.0,0.0,0.0,0.0,0.0,0.0,0.0,0.0,0.0,0.0,0.0,0.0,0.0,0.0,0.0,0.0,0.0,0.0,0.0,0.0,0.0,0.0,0.0,0.0,0.0,0.0,0.0,0.0,0.0,0.0,0.0,0.0,0.0,0.0,0.0,0.0,0.0,0.0,0.0,0.0,0.0,0.0,0.0,0.0,0.0,0.0,0.0,0.0,0.0,0.0,0.0,0.0,0.0,0.0,0.0,0.0,-5.2793,-5.2845,0.0,0.0,0.0,0.0,0.0,0.0,0.0,0.0,0.0,0.0,0.0,0.0,0.0,0.0,0.0,0.0,0.0,0.0,0.0,0.0,0.0,-5.1229,-5.1229,-5.1229,-5.1229,-5.1229,-5.1229,-5.1229,-5.1229,-5.1229,-5.1229,-5.1229,-5.1229,-5.1229,-5.1229,-5.1229,-5.1289,-5.1379,-5.2157,-5.2815,-5.3354,-5.3354,-5.3935,-5.4791,-5.3343,0.0,0.0,0.0,0.0,0.0,0.0,0.0,0.0,0.0,0.0,0.0,0.0,0.0,0.0,0.0,0.0,0.0,0.0,0.0,0.0,0.0,0.0,0.0,0.0,0.0,0.0,0.0,0.0,0.0,0.0,0.0,0.0,0.0,0.0,0.0,0.0,0.0,0.0,0.0,0.0,0.0,0.0,0.0,0.0,0.0,0.0,0.0,0.0,0.0,0.0,0.0,0.0,0.0,0.0,0.0,0.0,0.0,0.0,0.0,0.0,0.0,0.0,0.0,-5.1481,-5.1539,-5.1488,-5.0473,-5.0332,-5.0941,-5.2333,-5.3198,-5.3473,-5.2378,0.0,0.0,0.0,0.0,0.0,0.0,0.0,0.0,0.0,0.0,0.0,0.0,0.0,0.0,0.0,0.0,0.0,0.0,0.0,-5.1229,-5.1229,-5.1229,-5.1229,-5.1229,-5.1229,-5.1229,-5.1229,-5.1229,-5.1229,-5.1229,-5.1229,-5.1229,-5.1229,-5.1229,-5.1498,-5.2067,-5.3324,-5.3982,-5.4072,-5.4072,-5.416,-5.4285,-5.3495,-5.3098,-5.3068,0.0,0.0,0.0,0.0,0.0,0.0,0.0,0.0,0.0,0.0,0.0,0.0,0.0,0.0,0.0,0.0,0.0,0.0,0.0,0.0,0.0,0.0,0.0,0.0,0.0,0.0,0.0,0.0,0.0,0.0,0.0,0.0,0.0,0.0,0.0,0.0,0.0,0.0,0.0,0.0,0.0,-5.1666,-5.1666,0.0,0.0,0.0,0.0,0.0,0.0,0.0,0.0,0.0,0.0,0.0,0.0,0.0,-4.9764,-4.969,-5.0435,-5.0794,-5.0823,-5.1412,-5.1666,-5.1666,-5.1504,-5.1478,-5.1562,-5.1802,0.0,-5.112,-5.095,0.0,0.0,0.0,0.0,0.0,0.0,0.0,0.0,0.0,0.0,0.0,0.0,0.0,0.0,0.0,0.0,0.0,0.0,0.0,0.0,0.0,-5.1887,-5.2306,-5.2306,-5.2995,-5.3114,-5.2366,-5.2306,-5.2007,-5.1259,-5.1229,-5.1229,-5.1229,-5.1947,-5.2845,-5.3892,-5.4461,-5.476,-5.476,-5.476,-5.476,-5.476,-5.4461,-5.3892,-5.3144,-5.2875,0.0,0.0,0.0,0.0,0.0,0.0,0.0,0.0,0.0,0.0,0.0,0.0,0.0,0.0,0.0,0.0,0.0,0.0,0.0,0.0,0.0,0.0,0.0,0.0,0.0,0.0,0.0,0.0,0.0,0.0,0.0,0.0,0.0,0.0,0.0,0.0,0.0,0.0,0.0,-5.0905,-5.0502,-5.0609,-5.0501,-5.0138,0.0,0.0,0.0,0.0,0.0,0.0,0.0,0.0,0.0,-4.9308,-4.9308,-4.9146,-4.8834,-4.9775,-5.0244,-5.0244,-5.0574,-5.0685,-5.0685,-5.0041,-4.9702,-4.9702,-4.9702,-4.9567,-4.9353,-5.0322,-5.065,-5.0559,0.0,0.0,0.0,0.0,-5.0195,-5.0403,0.0,0.0,0.0,0.0,0.0,0.0,0.0,0.0,0.0,0.0,0.0,0.0,-5.1468,-5.2815,-5.3683,-5.3683,-5.461,-5.461,-5.3264,-5.3174,-5.2606,-5.1289,-5.1229,-5.1229,-5.1229,-5.2665,-5.4102,-5.5448,-5.5448,-5.5448,-5.5448,-5.5269,-5.5179,-5.5179,-5.5179,-5.464,-5.3683,-5.3503,-5.3174,-5.2695,0.0,0.0,0.0,0.0,0.0,0.0,0.0,0.0,0.0,0.0,0.0,0.0,0.0,0.0,0.0,0.0,0.0,0.0,0.0,0.0,0.0,0.0,0.0,0.0,0.0,0.0,0.0,0.0,0.0,0.0,0.0,0.0,0.0,0.0,0.0,0.0,0.0,-5.0169,-4.972,-4.9551,-4.9908,-4.9711,0.0,0.0,0.0,0.0,0.0,0.0,-4.9517,-4.9463,-4.92,-4.8661,-4.8575,-4.8334,-4.7938,-4.8815,-4.919,-4.919,-4.919,-4.9247,-4.9304,-4.8437,-4.8114,-4.8172,-4.8172,-4.8172,-4.8321,-4.9579,-5.0159,-5.0209,-4.9737,-4.9565,-4.9718,-4.9568,-4.96,-4.9768,0.0,0.0,0.0,0.0,0.0,0.0,0.0,0.0,0.0,0.0,0.0,-5.2157,-5.2157,-5.3892,-5.5089,-5.5089,-5.5149,-5.461,-5.3264,-5.3174,-5.2606,-5.1289,-5.1229,-5.1229,-5.1229,-5.3144,-5.479,-5.6188,-5.6188,-5.6188,-5.6158,-5.5478,-5.5179,-5.5179,-5.5179,-5.5149,-5.5059,-5.4431,-5.4132,-5.4012,-5.2725,0.0,0.0,0.0,0.0,0.0,0.0,0.0,0.0,0.0,0.0,0.0,0.0,0.0,0.0,0.0,0.0,0.0,0.0,0.0,0.0,0.0,0.0,0.0,0.0,0.0,0.0,0.0,0.0,0.0,0.0,0.0,0.0,0.0,0.0,0.0,0.0,0.0,0.0,-4.8399,-5.0126,0.0,0.0,0.0,0.0,-5.053,-5.0026,-4.9572,-4.9061,-4.8728,-4.8323,-4.7802,-4.7449,-4.7298,-4.7265,-4.7324,-4.7324,-4.7324,-4.7324,-4.7501,-4.7795,-4.7736,-4.788,-4.8172,-4.8172,-4.8172,-4.8172,-4.8262,-4.8642,-4.906,-4.9033,-4.9308,-4.9668,-4.92,-4.9359,-4.9759,0.0,0.0,0.0,0.0,0.0,-5.2449,-5.0515,-5.0196,-5.0106,-4.9912,-5.1229,-5.2366,-5.2785,-5.497,-5.6406,-5.6406,-5.7214,-5.7124,-5.5777,-5.494,-5.3892,-5.2546,-5.1678,-5.2037,-5.3743,-5.5269,-5.6526,-5.7423,-5.7423,-5.7004,-5.6166,-5.5978,-5.5598,-5.5179,-5.5179,-5.5179,-5.5179,-5.494,-5.461,-5.4162,-5.3683,-5.2965,0.0,0.0,0.0,0.0,0.0,0.0,0.0,0.0,0.0,0.0,0.0,0.0,0.0,0.0,0.0,0.0,0.0,0.0,0.0,0.0,0.0,0.0,0.0,0.0,0.0,0.0,0.0,0.0,0.0,0.0,0.0,0.0,0.0,0.0,0.0,0.0,0.0,-4.8329,-4.9522,0.0,-4.889,-4.909,-4.9152,-4.8752,-4.8713,-4.8452,-4.789,-4.7748,-4.7561,-4.7383,-4.7265,-4.7205,-4.7205,-4.7205,-4.7205,-4.7205,-4.7205,-4.7265,-4.7383,-4.7383,-4.7442,-4.756,-4.756,-4.7703,-4.788,-4.788,-4.81,-4.8493,-4.8493,-4.8562,-4.8742,-4.8585,-4.8625,-4.8753,0.0,0.0,0.0,0.0,-5.3459,-5.2342,-5.0215,-4.9912,-4.9912,-4.9912,-5.1259,-5.2546,-5.3443,-5.5658,-5.7094,-5.7094,-5.7902,-5.7782,-5.6226,-5.5329,-5.4072,-5.2276,-5.1558,-5.2456,-5.5119,-5.6017,-5.6885,-5.7782,-5.7573,-5.7034,-5.6218,-5.6008,-5.5598,-5.5179,-5.5179,-5.5179,-5.5179,-5.5179,-5.494,-5.4521,-5.4311,-5.3683,-5.2815,0.0,0.0,0.0,0.0,0.0,0.0,0.0,0.0,0.0,0.0,0.0,0.0,0.0,0.0,0.0,0.0,0.0,0.0,0.0,0.0,0.0,0.0,0.0,0.0,0.0,0.0,0.0,0.0,0.0,0.0,0.0,0.0,0.0,0.0,-4.9139,-4.9479,-4.8329,-4.9374,-4.968,-4.8472,-4.847,-4.8428,-4.7895,-4.7812,-4.7615,-4.7231,-4.7087,-4.7053,-4.7053,-4.6934,-4.6934,-4.6934,-4.6934,-4.6934,-4.6934,-4.6934,-4.6934,-4.7053,-4.7053,-4.7087,-4.7205,-4.7324,-4.7501,-4.7703,-4.7821,-4.7997,-4.8172,-4.8172,-4.8172,-4.8172,-4.8172,-4.8172,-4.8172,0.0,0.0,0.0,-5.4359,-5.4019,-5.2977,-4.9794,-4.9299,-4.9329,-4.9329,-5.099,-5.2725,-5.4102,-5.5957,-5.7094,-5.7094,-5.7094,-5.6286,-5.4401,-5.4221,-5.2995,-5.0345,-5.0913,-5.2546,-5.5119,-5.5239,-5.5867,-5.7094,-5.6496,-5.6248,-5.6218,-5.5538,-5.5209,-5.5179,-5.5179,-5.5179,-5.5179,-5.5179,-5.5179,-5.5119,-5.4491,-5.4221,-5.4012,0.0,0.0,0.0,0.0,0.0,0.0,0.0,0.0,0.0,0.0,0.0,0.0,0.0,0.0,0.0,0.0,0.0,0.0,0.0,0.0,0.0,0.0,0.0,0.0,0.0,0.0,0.0,0.0,0.0,0.0,0.0,0.0,0.0,-4.8381,-4.9218,-4.9505,-4.8407,-4.974,-5.0193,-4.8773,-4.8583,-4.8463,-4.8137,-4.7539,-4.7146,-4.7146,-4.6959,-4.6806,-4.6806,-4.6481,-4.6301,-4.6301,-4.6301,-4.6301,-4.6301,-4.6301,-4.6481,-4.6806,-4.6806,-4.6959,-4.7205,-4.7501,-4.7645,-4.7703,-4.7997,-4.8172,-4.8172,-4.8172,-4.8172,-4.8172,-4.8172,-4.8172,-4.8172,0.0,0.0,-5.6336,-5.5149,-5.4443,-5.3161,-5.0629,-4.9716,-4.9434,-4.9912,-5.1259,-5.2905,-5.473,-5.6226,-5.7094,-5.7094,-5.7094,-5.6675,-5.5688,-5.4281,-5.2725,-5.102,-5.2965,-5.4431,-5.5179,-5.6107,-5.6735,-5.7094,-5.6915,-5.6615,-5.6218,-5.5987,-5.5658,-5.5179,-5.5179,-5.5179,-5.5179,-5.5179,-5.5179,-5.5179,-5.4999,-5.464,-5.4162,0.0,0.0,0.0,0.0,0.0,0.0,0.0,0.0,0.0,0.0,0.0,0.0,0.0,0.0,0.0,0.0,0.0,0.0,0.0,0.0,0.0,0.0,0.0,0.0,0.0,0.0,0.0,0.0,0.0,0.0,0.0,-4.893,-4.9793,-4.9479,-5.008,-5.042,-5.0106,-5.0106,-5.0028,-4.9568,-4.8756,-4.8197,-4.8077,-4.7145,-4.6541,-4.6541,-4.6481,-4.6446,-4.6446,-4.6361,-4.6301,-4.6301,-4.6301,-4.6301,-4.6301,-4.6301,-4.6361,-4.6446,-4.6446,-4.6481,-4.6541,-4.6661,-4.684,-4.7019,-4.7138,-4.7316,-4.7501,-4.7997,-4.8172,-4.8172,-4.8172,-4.8172,-4.8172,0.0,-5.6872,-5.6531,-5.5595,-5.4911,-5.3767,-5.1389,-5.0323,-5.0139,-5.0947,-5.1498,-5.2665,-5.494,-5.5867,-5.6286,-5.6286,-5.6047,-5.5628,-5.497,-5.3324,-5.2396,-5.2456,-5.3683,-5.461,-5.5179,-5.5927,-5.6286,-5.6286,-5.6286,-5.6107,-5.5748,-5.5748,-5.5568,-5.5179,-5.5179,-5.5179,-5.5179,-5.5179,-5.5179,-5.5179,-5.5179,-5.497,-5.4551,-5.3982,-5.3952,-5.3983,-5.2179,-5.1638,-5.168,-5.0541,0.0,0.0,0.0,0.0,0.0,0.0,0.0,0.0,0.0,0.0,0.0,0.0,0.0,0.0,0.0,0.0,0.0,0.0,0.0,0.0,0.0,0.0,0.0,0.0,-4.9531,-5.0185,-4.9923,-5.042,-5.0707,-5.0446,-4.9776,-4.9291,-4.917,-4.8197,-4.7503,-4.7383,-4.6718,-4.6301,-4.6301,-4.6301,-4.6301,-4.6301,-4.6301,-4.6301,-4.6301,-4.6301,-4.6301,-4.6301,-4.6301,-4.6301,-4.6301,-4.6301,-4.6301,-4.6301,-4.6446,-4.6626,-4.6806,-4.69,-4.7053,-4.7265,0.0,0.0,0.0,0.0,-4.788,-4.7997,0.0,-5.7176,-5.6762,-5.5955,-5.5563,-5.4604,-5.2293,-5.1191,-5.1063,-5.2201,-5.1665,-5.2217,-5.491,-5.5179,-5.5179,-5.5179,-5.4581,-5.3892,-5.3114,-5.2127,-5.2306,-5.4012,-5.3653,-5.3982,-5.5149,-5.5179,-5.5179,-5.5179,-5.5179,-5.5179,-5.5179,-5.5179,-5.5179,-5.5179,-5.5179,-5.5179,-5.5179,-5.5179,-5.5179,-5.5179,-5.5179,-5.5179,-5.5059,-5.3862,-5.3832,-5.4132,-5.1792,-5.072,-5.0456,-5.0612,0.0,0.0,0.0,0.0,0.0,0.0,0.0,0.0,0.0,0.0,0.0,0.0,0.0,0.0,0.0,0.0,0.0,0.0,0.0,0.0,0.0,0.0,0.0,0.0,-4.9949,-5.0472,-4.9871,-5.0263,-5.0394,-4.9811,-4.8997,-4.836,-4.8034,-4.7265,-4.6686,-4.6386,-4.6301,-4.6301,-4.6301,-4.6301,0.0,0.0,0.0,-4.6301,-4.6301,-4.6301,-4.6301,-4.6301,-4.6301,-4.6301,-4.6301,-4.6301,-4.6301,-4.6326,-4.6626,-4.6746,-4.6746,-4.6993,-4.7087,-4.7087,-4.7146,-4.7205,-4.7265,-4.7205,-4.7383,-4.7619,0.0,-5.7289,-5.7176,-5.6992,-5.6309,-5.5382,-5.4293,-5.226,-5.1469,-5.3116,-5.2104,-5.2217,-5.491,-5.5179,-5.5179,-5.5179,-5.4581,-5.3683,-5.2456,-5.3174,-5.3563,-5.3384,-5.4281,-5.491,-5.5179,-5.5179,-5.5179,-5.5179,-5.5179,-5.5179,-5.5179,-5.5179,-5.5179,-5.5179,-5.5179,-5.5179,-5.5179,-5.5179,-5.5179,-5.5179,-5.5179,-5.5179,-5.5149,-5.491,-5.5209,-5.5594,-5.413,-5.3839,-5.3812,-5.1017,-4.9739,-4.9204,-4.8144,-4.7507,0.0,0.0,0.0,0.0,0.0,0.0,0.0,0.0,0.0,0.0,0.0,0.0,0.0,0.0,0.0,0.0,0.0,0.0,0.0,-4.8329,-4.9322,-4.9871,-4.9322,-4.9348,-4.9315,-4.8885,-4.828,-4.7741,-4.7444,-4.701,-4.6806,-4.6746,-4.6446,-4.6301,-4.6301,-4.6301,-4.6301,-4.6301,-4.6301,-4.6301,-4.6301,-4.6301,-4.6301,-4.6301,-4.6301,0.0,-4.6301,-4.6301,-4.6301,-4.6301,-4.6386,-4.6361,-4.6361,-4.6481,-4.6481,-4.6541,-4.7027,-4.7383,-4.756,-4.7324,-4.7383,-4.7619,0.0,-5.7514,-5.7439,-5.7439,-5.6958,-5.6327,-5.5424,-5.3906,-5.3079,-5.3772,-5.2424,-5.2063,-5.3685,-5.3766,-5.3683,-5.3683,-5.3683,-5.3414,-5.2725,-5.3653,-5.4192,-5.4192,-5.482,-5.5179,-5.5179,-5.5179,-5.5179,-5.5179,-5.5179,-5.5179,-5.5179,-5.5179,-5.5179,-5.5179,-5.5179,-5.5179,-5.5179,-5.5179,-5.5179,-5.5179,-5.5179,-5.5179,-5.5179,-5.5179,-5.5388,-5.5505,-5.4305,-5.4057,-5.4046,-5.2016,-5.0872,-5.0276,-4.9729,-4.8721,-4.7597,0.0,0.0,0.0,0.0,0.0,0.0,0.0,0.0,0.0,0.0,0.0,0.0,0.0,0.0,-4.7074,-4.7649,0.0,-4.8277,-4.859,-4.8994,-4.9031,-4.8458,-4.8262,-4.8143,-4.8143,-4.7741,-4.7324,-4.7053,-4.6721,-4.6566,-4.6566,-4.6361,-4.6301,-4.6301,-4.6301,-4.6301,-4.6301,-4.6301,-4.6301,-4.6301,-4.6301,-4.6301,-4.6301,-4.6301,-4.6301,-4.6301,-4.6301,-4.6301,-4.6301,-4.6301,-4.6301,-4.6301,-4.6301,-4.6301,-4.6301,-4.6636,-4.6874,-4.6993,-4.6815,-4.6934,-4.7197,0.0,-5.8211,-5.7965,-5.7527,-5.7413,-5.7143,-5.6354,-5.5444,-5.4767,-5.4707,-5.3181,-5.2304,-5.2868,-5.2791,-5.2527,-5.2217,-5.2935,-5.3324,-5.3204,-5.3952,-5.464,-5.5179,-5.5179,-5.5179,-5.5179,-5.5179,-5.5179,-5.5179,-5.5179,-5.5179,-5.5179,-5.5179,-5.5179,-5.5179,-5.5179,-5.5179,-5.5179,-5.5179,-5.5179,-5.5179,-5.5179,-5.5179,-5.5179,-5.5179,-5.5179,-5.5078,-5.4068,-5.3571,-5.3314,-5.2703,-5.1654,-5.0712,-5.1161,-4.9946,-4.812,-4.6839,-4.6473,0.0,0.0,0.0,0.0,0.0,0.0,0.0,0.0,-4.5584,-4.5767,-4.6917,-4.7048,-4.7257,-4.8198,-4.8277,-4.8355,-4.8826,-4.8726,-4.8366,-4.7873,-4.756,-4.7442,-4.7703,-4.7324,-4.6993,-4.6746,-4.6421,-4.6301,-4.6301,-4.6301,-4.6301,-4.6301,-4.6301,-4.6301,-4.6301,-4.6301,-4.6301,-4.6301,-4.6301,-4.6301,-4.6301,-4.6301,-4.6301,-4.6301,-4.6301,-4.6301,-4.6361,-4.6481,-4.6481,-4.6481,-4.6481,-4.6481,-4.6481,-4.6421,-4.6421,-4.6481,-4.6361,-4.6506,-4.6746,0.0,-5.9844,-5.9197,-5.7236,-5.7405,-5.7735,-5.7443,-5.6174,-5.5483,-5.6254,-5.4983,-5.4096,-5.4345,-5.4328,-5.3769,-5.2342,-5.3354,-5.3832,-5.3234,-5.4371,-5.5119,-5.5179,-5.5179,-5.5179,-5.5179,-5.5179,-5.5179,-5.5179,-5.5179,-5.5179,-5.5179,-5.5179,-5.5179,-5.5179,-5.5179,-5.5179,-5.5179,-5.5179,-5.5179,-5.5179,-5.5179,-5.5179,-5.5179,-5.5179,-5.5179,-5.5179,-5.5027,-5.4304,-5.3256,-5.2193,-5.1017,-4.9918,-4.9546,-4.9206,-4.8643,-4.697,-4.6473,-4.5976,-4.365,-4.3937,-4.5245,-4.6159,-4.6395,-4.6891,0.0,-4.8538,-4.812,-4.927,-4.9139,-4.8826,-4.8956,-4.8538,-4.8198,-4.8277,-4.8277,-4.8192,-4.814,-4.8114,-4.7997,-4.7762,-4.7197,-4.6721,-4.6386,-4.6301,-4.6301,-4.6301,-4.6301,-4.6301,-4.6301,-4.6301,-4.6301,-4.6301,-4.6301,-4.6301,-4.6301,-4.6301,-4.6301,-4.6301,-4.6301,-4.6301,-4.6301,-4.6301,-4.6421,-4.6746,-4.6993,-4.7087,-4.7087,-4.7087,-4.7087,-4.7087,-4.684,-4.69,-4.7027,-4.6481,-4.6506,-4.6746,0.0,0.0,-6.0216,-5.8423,-5.8355,-5.8352,-5.7839,-5.71,-5.6629,-5.653,-5.549,-5.4568,-5.4227,-5.3502,-5.2868,-5.2444,-5.3152,-5.3503,-5.3204,-5.4461,-5.5179,-5.5179,-5.5179,-5.5179,-5.5179,-5.5179,-5.5179,-5.5179,-5.5179,-5.5179,-5.5179,-5.5179,-5.5179,-5.5179,-5.5179,-5.5179,-5.5179,-5.5179,-5.5179,-5.5179,-5.5179,-5.5179,-5.5179,-5.5179,-5.5179,-5.5089,-5.4311,-5.3684,0.0,-5.1137,-5.0178,-4.9666,-4.8806,-4.8094,-4.7283,-4.5898,-4.548,-4.548,-4.5451,-4.5401,-4.5477,-4.6682,-4.697,-4.7127,-4.7754,-4.7545,-4.7519,-4.8669,-4.8721,-4.8564,-4.8564,-4.8355,-4.8172,-4.8172,-4.8055,-4.7938,-4.7938,-4.7611,-4.7316,-4.7197,-4.678,-4.6566,-4.6626,-4.6421,-4.6301,-4.6301,-4.6301,-4.6301,-4.6301,-4.6301,-4.6301,-4.6301,-4.6301,-4.6301,-4.6301,-4.6301,-4.6301,-4.6301,-4.6301,-4.6361,-4.6626,-4.6626,-4.6721,-4.7053,-4.7146,-4.7205,-4.7205,-4.7205,-4.7205,-4.7205,-4.7112,-4.7087,-4.7146,-4.6541,-4.6506,-4.6746,0.0,0.0,0.0,-5.9877,-5.9641,-5.9302,-5.8355,-5.8076,-5.7695,-5.6915,-5.6154,-5.5391,-5.4563,-5.3369,-5.2648,-5.2678,-5.3176,-5.3398,-5.3223,-5.4381,-5.51,-5.5179,-5.5179,-5.5179,-5.5179,-5.5179,-5.5179,-5.5179,-5.5179,-5.5179,-5.5179,-5.5179,-5.5179,-5.5179,-5.5179,-5.5179,-5.5179,-5.5179,-5.5179,-5.5179,-5.5179,-5.5179,-5.5179,-5.5179,-5.5089,-5.479,-5.3803,-5.3247,-5.2614,-5.028,-4.928,-4.8783,-4.7619,-4.6656,-4.5794,-4.4617,-4.4042,-4.4147,-4.566,-4.5767,-4.5663,-4.6813,-4.7336,-4.7466,-4.7048,-4.6944,-4.7179,-4.8015,-4.8172,-4.8172,-4.8172,-4.8172,-4.8172,-4.8172,-4.7997,-4.7821,-4.7821,-4.7493,-4.7197,-4.7197,-4.684,-4.6661,-4.69,-4.6541,-4.6301,-4.6301,-4.5999,-4.5914,-4.6301,-4.5939,-4.5914,-4.6301,-4.6301,-4.6301,-4.6301,-4.6386,-4.6446,-4.6446,-4.6541,-4.6661,-4.69,-4.7019,-4.7112,-4.7324,-4.7442,-4.7501,-4.7501,-4.7501,-4.7501,-4.7442,-4.7383,-4.7383,-4.7383,-4.6755,-4.6721,-4.69,0.0,0.0,0.0,0.0,-6.1231,-6.0723,-5.9201,-5.8961,-5.8619,-5.7692,-5.7554,-5.7076,-5.5975,-5.502,-5.4052,-5.2989,-5.3716,-5.3975,-5.3241,-5.4078,-5.4769,-5.5149,-5.5179,-5.5179,-5.5179,-5.5179,-5.5179,-5.5179,-5.5179,-5.5179,-5.5179,-5.5179,-5.5179,-5.5179,-5.5179,-5.5179,-5.5179,-5.5179,-5.5179,-5.5179,-5.5179,-5.5179,-5.5179,-5.5179,-5.479,-5.4251,-5.4192,-5.3402,-5.2098,-4.9784,-4.8221,-4.6974,-4.5309,-4.4826,-4.4591,-4.3415,-4.2291,-4.1664,-4.284,-4.3964,-4.5088,-4.6212,-4.7336,-4.8146,-4.8146,-4.812,-4.8146,-4.8172,-4.8172,-4.8172,-4.8172,-4.8172,-4.8172,-4.8172,-4.8172,-4.8172,-4.8172,-4.8198,-4.8198,-4.8198,-4.756,-4.7205,-4.7205,-4.6636,-4.6301,-4.6301,-4.5098,-4.4951,-4.624,-4.5074,-4.4951,-4.624,-4.6301,-4.6301,-4.6301,-4.6626,-4.6806,-4.6806,-4.7053,-4.7205,-4.7205,-4.7501,-4.7703,-4.7703,-4.7997,-4.8172,-4.8172,-4.8172,-4.8172,-4.8114,-4.7821,-4.788,-4.8055,-4.7442,-4.7205,-4.7205,0.0,0.0,0.0,0.0,0.0,-6.167,-6.0689,-5.9674,-5.8893,-5.8548,-5.8076,0.0,0.0,0.0,0.0,0.0,-5.5059,-5.5083,-5.4818,-5.5783,-5.6423,-5.6621,-5.6748,-5.6907,-5.703,-5.6907,-5.6907,-5.706,-5.6607,-5.6395,-5.6365,-5.5942,-5.5631,-5.5481,-5.5631,-5.5531,-5.5179,-5.5381,-5.533,-5.5179,-5.5179,-5.5179,-5.5149,-5.47,-5.4401,-5.4102,0.0,-5.2066,-5.0677,-4.9193,-4.8125,-4.72,-4.6052,-4.5206,-4.4246,-4.2417,-4.216,-4.2709,-4.3833,-4.5009,-4.6186,-4.731,-4.7911,-4.8172,-4.8172,-4.8172,-4.8172,-4.8172,-4.7571,-4.7048,-4.7048,-4.7048,-4.7048,-4.7048,-4.7702,-4.8172,-4.8172,-4.7997,-4.788,-4.788,-4.7442,-4.7146,-4.6959,-4.6541,-4.6301,-4.6301,-4.5853,-4.5793,-4.624,-4.5853,-4.5853,-4.6301,-4.5853,-4.5671,-4.5671,-4.5306,-4.5123,-4.5184,-4.613,-4.6909,-4.756,-4.788,-4.8055,-4.8055,-4.8114,-4.8172,-4.8172,-4.8172,-4.8172,-4.8172,-4.8055,-4.8114,-4.8146,-4.7522,-4.725,-4.7244,0.0,0.0,0.0,0.0,0.0,0.0,0.0,0.0,0.0,0.0,0.0,0.0,0.0,0.0,0.0,0.0,0.0,-5.585,-5.5613,-5.6354,-5.6878,-5.6992,-5.7115,-5.7272,-5.7466,-5.732,-5.7272,-5.7466,-5.7576,-5.7656,-5.7656,-5.7377,-5.704,-5.6629,-5.6412,-5.6042,-5.5481,-5.5681,-5.548,-5.507,-5.502,-5.485,-5.458,-5.4061,-5.3683,0.0,-5.2247,-5.102,-4.9699,-4.8617,-4.7804,-4.6965,-4.5486,-4.4253,-4.3155,-4.2207,-4.2448,-4.3363,-4.4931,-4.5898,-4.6761,-4.7911,-4.8172,-4.8172,-4.8172,-4.8172,-4.8172,-4.8172,-4.7283,-4.6473,-4.6473,-4.6473,-4.6342,-4.5924,-4.6813,-4.7571,-4.7571,-4.7398,-4.7412,-4.7828,-4.756,-4.7349,-4.7138,-4.684,-4.6601,-4.6506,-4.6095,-4.5974,-4.6095,-4.5974,-4.5828,-4.5611,-4.555,-4.5281,-4.4976,-4.4607,-4.473,-4.5135,-4.6371,-4.729,-4.788,-4.8114,-4.8172,-4.8172,-4.8172,-4.8172,-4.8172,-4.8172,-4.8172,-4.8172,-4.8172,-4.8172,-4.8146,-4.778,-4.7519,-4.7304,0.0,0.0,0.0,0.0,0.0,0.0,0.0,0.0,0.0,0.0,0.0,0.0,0.0,0.0,0.0,0.0,0.0,0.0,-5.576,-5.5898,-5.621,-5.6593,-5.6602,-5.6634,-5.6634,-5.6634,-5.6634,-5.6634,-5.8064,-5.8748,-5.878,-5.9192,-5.9013,-5.8387,-5.7463,-5.6663,-5.6005,-5.6054,-5.5609,-5.4952,-5.4722,-5.4262,-5.364,-5.329,-5.2725,-5.2067,-5.1409,-5.0331,-4.9104,-4.816,-4.7335,-4.6339,-4.3842,-4.2324,-4.1716,-4.2788,-4.3154,-4.3676,-4.5872,-4.6525,-4.6839,-4.7911,-4.8172,-4.8172,-4.8172,-4.8172,-4.8172,-4.812,-4.7179,-4.6369,-4.6316,-4.6342,-4.6029,-4.4905,-4.5767,-4.6578,-4.6578,-4.6578,-4.697,-4.8068,-4.7938,-4.7703,-4.7703,-4.7442,-4.7172,-4.6866,-4.5924,-4.5476,-4.5828,-4.5536,-4.5049,-4.4484,-4.5281,-4.5281,-4.436,-4.4607,-4.5379,-4.6645,-4.7645,-4.8114,-4.8172,-4.8172,-4.8172,-4.8172,-4.8172,-4.8172,-4.8172,-4.8172,-4.8172,-4.8172,-4.8172,-4.8172,-4.8172,-4.8146,-4.7806,-4.7257,0.0,0.0,0.0,0.0,0.0,0.0,0.0,0.0,0.0,0.0,0.0,0.0,0.0,0.0,0.0,0.0,0.0,0.0,-5.7339,-5.7674,-5.7929,-5.8084,-5.8216,-5.8402,-5.8687,-5.8402,-5.8402,-5.8687,-5.8494,-5.8441,-5.8441,-5.8061,-5.7648,-5.728,-5.7268,-5.6905,-5.6402,-5.6581,-5.6441,-5.6028,-5.5332,-5.4854,-5.4467,-5.3209,-5.221,-5.1379,-5.0674,-4.9643,-4.8536,-4.8239,-4.7323,-4.6248,-4.6538,-4.5348,-4.3912,-4.4225,-4.4931,-4.5715,-4.6316,-4.71,-4.7806,-4.812,-4.8172,-4.8172,-4.8172,-4.8172,-4.7937,-4.71,-4.6003,-4.4931,-4.4068,-4.4591,-4.5088,-4.4774,-4.6421,-4.7754,-4.7754,-4.7754,-4.7858,-4.8146,-4.8114,-4.7997,-4.7703,-4.788,-4.7821,-4.7468,-4.7027,-4.6704,-4.6849,-4.6764,-4.6645,-4.6491,-4.5586,-4.4915,-4.4669,-4.4237,-4.4607,-4.5707,-4.661,-4.7442,-4.8172,-4.8172,-4.8172,-4.8172,-4.8172,-4.8172,-4.8172,-4.8172,-4.8172,-4.8172,-4.8172,-4.8172,-4.8146,-4.7702,-4.7466,-4.7122,0.0,0.0,0.0,0.0,0.0,0.0,0.0,0.0,0.0,0.0,0.0,0.0,0.0,0.0,0.0,0.0,0.0,0.0,0.0,-5.814,-5.8269,-5.8269,-5.8408,-5.8552,-5.8741,-5.8552,-5.8552,-5.8708,-5.8979,-5.9078,-5.9078,-5.8936,-5.8661,-5.8209,-5.7871,-5.741,-5.6873,-5.7002,-5.6809,0.0,0.0,-5.4532,-5.3716,-5.2306,-5.1208,-5.0409,-4.9659,-4.9105,-4.8805,-4.9374,-4.8717,-4.7657,-4.7891,-4.6867,-4.5501,-4.5514,-4.5976,-4.6578,-4.71,-4.7702,-4.8172,-4.8172,-4.8172,-4.8041,-4.7545,-4.744,-4.71,-4.5976,-4.48,-4.3807,-4.3127,-4.3964,-4.4591,-4.4068,-4.5924,-4.744,-4.744,-4.744,-4.7623,-4.812,-4.8172,-4.7938,-4.7324,-4.7821,-4.7938,-4.7324,-4.7501,-4.7442,-4.7027,-4.7383,-4.7265,-4.6431,-4.5864,-4.5464,-4.5037,-4.5013,-4.5379,-4.5924,-4.6909,-4.7619,-4.8172,-4.8172,-4.8172,-4.8172,-4.8172,-4.8172,-4.8172,-4.8172,-4.8172,-4.8172,-4.8172,-4.8172,-4.8146,-4.7832,-4.7545,-4.7174,0.0,0.0,0.0,0.0,0.0,0.0,0.0,0.0,0.0,0.0,-6.1366,-6.1028,0.0,0.0,0.0,0.0,0.0,0.0,0.0,0.0,-5.7881,-5.7881,-5.7881,-5.7881,-5.7881,-5.7881,-5.7881,-5.7881,-5.9167,-5.981,-5.9844,-6.0278,-6.0181,-5.9584,-5.8656,-5.792,-5.7377,-5.7377,-5.7019,-5.6425,-5.5368,-5.4123,-5.2764,0.0,-5.0335,-4.9478,-4.8505,-4.867,-4.9509,-5.078,-5.0626,-4.9774,-4.8821,-4.7751,-4.6892,-4.6787,-4.6708,-4.6917,-4.7911,-4.8172,-4.8172,-4.8172,-4.8172,-4.7885,-4.6734,-4.6473,-4.6107,-4.48,-4.3729,-4.2971,-4.2814,-4.3755,-4.4251,-4.3389,-4.5062,-4.6525,-4.6682,-4.6708,-4.7074,-4.8068,-4.8172,-4.788,-4.6942,-4.7703,-4.7821,-4.6942,-4.7703,-4.7821,-4.6968,-4.7762,-4.7349,-4.5342,-4.6105,-4.5985,-4.4915,-4.5985,-4.6525,-4.6525,-4.7645,-4.8172,-4.8172,-4.8172,-4.8172,-4.8172,-4.8172,-4.8172,-4.8172,-4.8172,-4.8172,-4.8172,-4.8172,-4.8172,-4.8172,-4.8172,-4.7885,-4.744,0.0,0.0,0.0,0.0,0.0,0.0,0.0,0.0,0.0,0.0,-6.167,-6.1264,0.0,0.0,0.0,0.0,0.0,0.0,0.0,0.0,0.0,-5.7881,-5.7881,-5.7881,-5.7881,-5.7881,-5.7881,-5.7881,-5.8152,-5.8287,-5.8287,-5.8376,-5.8336,-5.8234,-5.8051,-5.7909,-5.7775,-5.7775,-5.7745,-5.7536,-5.6624,-5.5555,-5.4365,-5.2858,0.0,0.0,-4.7995,-4.8237,-4.9509,-5.078,-5.1168,-5.115,-5.1091,-5.0215,-4.9135,-4.821,-4.7885,-4.7937,-4.812,-4.8172,-4.8172,-4.8172,-4.8172,-4.7885,-4.6734,-4.6473,-4.5872,-4.3755,-4.3154,-4.2735,-4.1794,-4.2552,-4.3572,-4.4304,-4.5584,-4.6813,-4.7754,-4.7885,-4.7963,-4.8172,-4.8172,-4.8114,-4.7938,-4.8114,-4.8114,-4.7938,-4.8114,-4.8114,-4.7938,-4.8114,-4.7349,-4.5342,-4.5464,-4.4669,-4.2822,-4.4607,-4.5525,-4.5586,-4.7324,-4.8172,-4.8172,-4.8172,-4.8172,-4.8172,-4.8172,-4.8172,-4.8172,-4.8172,-4.8172,-4.8172,-4.8172,-4.8172,-4.8172,-4.8172,-4.812,-4.7963,0.0,0.0,0.0,0.0,0.0,0.0,0.0,-6.2381,-6.2381,-6.2381,-6.2076,-6.1873,-6.1873,-6.1197,-6.0588,0.0,0.0,0.0,0.0,0.0,0.0,0.0,-5.7881,-5.7881,-5.7881,-5.7881,-5.7881,-5.7881,0.0,-5.7881,-5.7881,-5.7881,-5.7881,-5.7881,-5.7881,-5.7881,-5.7881,-5.7881,-5.7881,-5.7808,-5.692,-5.5804,-5.4454,0.0,0.0,0.0,-4.7725,-4.8147,-4.9389,-5.0002,-5.1167,-5.2414,-5.2536,-5.1783,-5.0573,-4.9445,-4.8669,-4.8172,-4.8172,-4.8172,-4.8172,-4.8172,-4.8172,-4.7728,-4.5976,-4.5558,-4.4905,-4.2605,-4.2134,-4.1977,-4.1402,-4.2239,-4.3206,-4.3755,-4.5323,-4.6656,-4.7231,-4.7806,-4.8172,-4.8172,-4.8172,-4.7997,-4.7442,-4.7442,-4.7442,-4.7442,-4.7442,-4.7619,-4.8172,-4.8172,-4.7762,-4.6849,-4.6311,-4.5561,-4.4583,-4.5561,-4.607,-4.6045,-4.7501,-4.8172,-4.8172,-4.8172,-4.8172,-4.8172,-4.8172,-4.788,-4.7442,-4.7997,-4.788,-4.7442,-4.7997,-4.8172,-4.8172,-4.8172,-4.8172,-4.8146,0.0,0.0,0.0,0.0,0.0,0.0,-6.242,-6.2381,-6.2381,-6.2381,-6.2381,-6.2381,-6.2381,-6.1873,-6.1467,0.0,0.0,0.0,0.0,0.0,0.0,0.0,0.0,0.0,-5.7881,0.0,0.0,-5.7881,-5.7881,0.0,0.0,0.0,0.0,0.0,-5.7881,-5.7881,-5.7881,-5.7881,-5.7881,0.0,0.0,-5.594,-5.4358,0.0,0.0,0.0,0.0,-4.8055,-4.8984,-4.9209,-5.0677,-5.2431,-5.2834,-5.2358,-5.1389,-4.9912,-4.8843,-4.8148,-4.8178,-4.8172,-4.8172,-4.8172,-4.8172,-4.7571,-4.5271,-4.4722,-4.4015,-4.1794,-4.1324,-4.1324,-4.1324,-4.2056,-4.2735,-4.2997,-4.4539,-4.5924,-4.6395,-4.7257,-4.7911,-4.8146,-4.8172,-4.788,-4.7087,-4.6824,-4.6704,-4.6704,-4.6704,-4.7146,-4.8114,-4.8172,-4.8114,-4.788,-4.7146,-4.6465,-4.6105,-4.6465,-4.6585,-4.6405,-4.7645,-4.8172,-4.8172,-4.8172,-4.8172,-4.8172,-4.8172,-4.7762,-4.7087,-4.788,-4.7762,-4.7087,-4.788,-4.8172,-4.8172,-4.8172,-4.8172,-4.8172,0.0,0.0,0.0,0.0,0.0,0.0,-6.2498,-6.2381,-6.2381,-6.2381,-6.2381,-6.2381,-6.2381,-6.2347,-6.2009,0.0,0.0,0.0,0.0,0.0,0.0,0.0,0.0,0.0,0.0,0.0,0.0,-5.7881,-5.7881,0.0,0.0,0.0,0.0,0.0,0.0,-5.7881,-5.7881,-5.7881,0.0,0.0,0.0,0.0,0.0,0.0,0.0,0.0,0.0,-4.7671,-4.7899,-4.8954,-4.9479,-4.9853,-5.0999,-5.1493,-5.1058,-4.8816,-4.8081,-4.8047,-4.8174,-4.8172,-4.8172,-4.8172,-4.8172,-4.7571,-4.5297,-4.4748,-4.4015,-4.1794,-4.1324,-4.1324,-4.1324,-4.1402,-4.1821,-4.284,-4.3206,-4.4068,-4.6186,-4.6578,-4.7022,-4.8068,-4.8172,-4.8172,-4.8055,-4.7265,-4.6704,-4.6704,-4.6704,-4.7146,-4.8114,-4.8172,-4.7762,-4.6909,-4.6764,-4.5864,-4.4051,-4.5803,-4.6285,-4.5464,-4.7324,-4.8172,-4.8172,-4.8172,-4.8172,-4.8172,-4.8172,-4.8114,-4.8055,-4.8172,-4.8114,-4.8055,-4.8172,-4.8172,-4.8172,-4.8172,-4.8172,-4.8172,0.0,0.0,0.0,0.0,0.0,0.0,-6.2537,-6.2381,-6.2381,-6.2381,-6.2381,-6.2381,-6.2381,-6.2381,-6.2279,-6.1975,0.0,0.0,0.0,0.0,0.0,0.0,0.0,0.0,0.0,0.0,-5.7881,-5.7881,-5.7881,0.0,0.0,0.0,0.0,0.0,0.0,-5.7881,-5.7881,-5.7881,0.0,0.0,0.0,0.0,0.0,0.0,0.0,0.0,0.0,0.0,-4.7671,-4.7995,-4.8626,-4.9269,-4.8955,-4.9459,-5.0036,-4.927,-4.8544,-4.8023,-4.8148,-4.8172,-4.8172,-4.8172,-4.7675,-4.6734,-4.514,-4.4225,-4.3232,-4.1638,-4.1324,-4.1324,-4.1324,-4.1324,-4.1455,-4.1925,-4.2579,-4.3337,-4.4278,-4.5584,-4.6656,-4.71,-4.7754,-4.8172,-4.8172,-4.7265,-4.6704,-4.6704,-4.7265,-4.7762,-4.8198,-4.8172,-4.7997,-4.7645,-4.7027,-4.6345,-4.5561,-4.6285,-4.6525,-4.6165,-4.7527,-4.8172,-4.8172,-4.8172,-4.8172,-4.8172,-4.8172,-4.788,-4.7324,-4.7938,-4.7821,-4.7383,-4.7938,-4.8172,-4.8172,-4.8172,-4.8172,-4.8172,0.0,0.0,0.0,0.0,0.0,-6.3233,-6.2537,-6.2381,-6.2381,-6.2381,-6.2381,-6.2381,-6.2381,-6.2381,-6.2381,-6.2381,-6.1907,0.0,0.0,0.0,0.0,0.0,0.0,0.0,0.0,0.0,-5.7881,-5.7881,-5.7881,-5.7881,0.0,0.0,-5.7881,-5.7881,0.0,0.0,0.0,0.0,0.0,0.0,0.0,0.0,0.0,0.0,0.0,0.0,0.0,0.0,0.0,0.0,0.0,-4.8566,-4.7818,-4.8087,-4.8743,-4.8987,-4.8514,-4.7947,-4.8076,-4.8142,-4.8172,-4.8172,-4.731,-4.6186,-4.5009,-4.3859,-4.2709,-4.1559,-4.1324,-4.1324,-4.1324,-4.1324,-4.1324,-4.1324,-4.1977,-4.2631,-4.2971,-4.4434,-4.5584,-4.5924,-4.6682,-4.731,-4.7649,-4.7059,-4.6704,-4.6704,-4.7383,-4.788,-4.8172,-4.8172,-4.8172,-4.8172,-4.7501,-4.7027,-4.6704,-4.7027,-4.7002,-4.6704,-4.7703,-4.8172,-4.8172,-4.8172,-4.8172,-4.8172,-4.8172,-4.7821,-4.7205,-4.7938,-4.7762,-4.7205,-4.7938,-4.8172,-4.8172,-4.8172,-4.8172,-4.8172,0.0,0.0,0.0,0.0,0.0,0.0,-6.2537,-6.2381,-6.2381,-6.2381,-6.2381,-6.2381,-6.2381,-6.2381,-6.2381,-6.2381,-6.2381,0.0,0.0,0.0,0.0,0.0,0.0,0.0,0.0,0.0,-5.7881,-5.7881,-5.7881,-5.7881,-5.7881,-5.7881,-5.7881,-5.7881,0.0,0.0,0.0,0.0,0.0,0.0,0.0,0.0,-5.5134,0.0,0.0,0.0,0.0,0.0,0.0,0.0,0.0,0.0,0.0,-4.7848,-4.736,-4.7486,-4.7629,-4.7763,-4.792,-4.808,-4.8172,-4.8172,-4.731,-4.6159,-4.5009,-4.3833,-4.2709,-4.1559,-4.1324,-4.1324,-4.1324,-4.1324,-4.1324,-4.1324,-4.1324,-4.1716,-4.2866,-4.3049,-4.3415,-4.4563,-4.4774,-4.5299,-4.6395,-4.6623,-4.6704,-4.6704,-4.6704,-4.7146,-4.8114,-4.8172,-4.8172,-4.8172,-4.8172,-4.7703,-4.6704,-4.7703,-4.7677,-4.6704,-4.7703,-4.8172,-4.8172,-4.8172,-4.8172,-4.8172,-4.8172,-4.8172,-4.8172,-4.8172,-4.8172,-4.8172,-4.8172,-4.8172,-4.8172,-4.8172,-4.8172,-4.8172,0.0,0.0,0.0,0.0,0.0,0.0,-6.3271,-6.2697,-6.2381,-6.2381,-6.2381,-6.2381,-6.2381,-6.2381,-6.2381,-6.2381,-6.2381,0.0,0.0,0.0,0.0,0.0,0.0,0.0,0.0,-5.7881,-5.7881,-5.7881,-5.7881,-5.7881,-5.7881,-5.7881,-5.7881,-5.7881,-5.7881,-5.7881,0.0,0.0,0.0,0.0,0.0,-5.5555,-5.5117,0.0,0.0,0.0,0.0,0.0,0.0,0.0,0.0,0.0,0.0,0.0,0.0,-4.8015,-4.7355,-4.6584,-4.6723,-4.6272,-4.582,-4.5846,-4.4983,-4.4016,-4.365,-4.2683,-4.1768,-4.1376,-4.1324,-4.1324,-4.1324,-4.1324,-4.1324,-4.1324,-4.1324,-4.1455,-4.1794,-4.3232,-4.4356,-4.4722,-4.6159,-4.7257,-4.7623,-4.773,-4.7762,-4.7762,-4.7762,-4.788,-4.8172,-4.8172,-4.8172,-4.8172,-4.8172,-4.8055,-4.7762,-4.8055,-4.8055,-4.7762,-4.8055,-4.8172,-4.8172,-4.8172,-4.8172,-4.8172,-4.8172,-4.8172,-4.8172,-4.8172,-4.8172,-4.8172,-4.8172,-4.8172,-4.8172,-4.8172,-4.8172,-4.8172,0.0,0.0,0.0,0.0,0.0,0.0,-6.3196,-6.2697,-6.2381,-6.2381,-6.2381,-6.2381,-6.2381,-6.2381,-6.2381,-6.2381,-6.2381,0.0,0.0,0.0,0.0,0.0,0.0,0.0,-5.8321,-5.8017,-5.7881,-5.7881,-5.7881,-5.7881,-5.7881,-5.7881,-5.7881,-5.7881,-5.7881,-5.7881,0.0,0.0,0.0,0.0,-5.6348,-5.5595,-5.5149,0.0,0.0,0.0,0.0,0.0,0.0,0.0,0.0,0.0,0.0,0.0,0.0,0.0,-4.7203,-4.5957,-4.6105,-4.542,-4.4722,-4.4748,-4.3885,-4.3023,-4.3023,-4.2134,-4.1324,-4.1324,-4.1324,-4.1324,-4.1324,-4.1324,-4.1324,-4.1324,-4.1324,-4.1455,-4.1899,-4.3206,-4.4278,-4.4696,-4.6395,-4.7545,-4.7545,-4.7937,-4.8172,-4.8172,-4.8172,-4.8172,-4.8172,-4.8172,-4.8172,-4.8172,-4.8172,-4.8172,-4.8172,-4.8172,-4.8172,-4.8172,-4.8172,-4.8172,-4.8172,-4.8172,-4.8172,-4.8172,-4.8172,-4.8172,0.0,-4.8172,-4.8172,-4.8172,-4.8172,-4.8172,-4.8172,-4.8172,-4.8172,-4.8172,0.0,0.0,0.0,0.0,0.0,0.0,0.0,-6.242,-6.2381,-6.2381,-6.2381,-6.2381,-6.2381,-6.2381,-6.2381,-6.2381,-6.2381,0.0,0.0,0.0,0.0,0.0,0.0,0.0,-5.9032,-5.8321,-5.7949,-5.7881,-5.7881,-5.7881,-5.7881,-5.7881,-5.7881,-5.7881,-5.7881,-5.7881,-5.7881,-5.7881,-5.7881,-5.7808,-5.6882,-5.6034,0.0,0.0,0.0,0.0,0.0,0.0,0.0,0.0,0.0,0.0,0.0,0.0,0.0,0.0,0.0,0.0,0.0,-4.5261,-4.454,-4.4487,-4.3676,-4.2892,-4.2892,-4.2056,0.0,-4.1298,-4.1272,-4.1272,-4.1298,-4.1324,-4.1324,-4.1324,-4.1324,-4.1716,-4.2866,-4.3154,-4.365,-4.4722,-4.5898,-4.6578,-4.6499,-4.7519,-4.8172,-4.8172,-4.8172,-4.8172,-4.8172,-4.8172,-4.8172,-4.8172,-4.8172,-4.8172,-4.8172,-4.8172,-4.8172,-4.8172,-4.8172,-4.8172,-4.8172,-4.8172,-4.8172,-4.8172,-4.8172,-4.8172,-4.8172,-4.8172,-4.8172,-4.8172,-4.8172,-4.8172,-4.8172,-4.8172,-4.8172,-4.8172,0.0,0.0,0.0,0.0,0.0,0.0,0.0,0.0,0.0,0.0,-6.2381,-6.2381,-6.2381,-6.2381,-6.2381,0.0,0.0,0.0,0.0,0.0,0.0,0.0,0.0,0.0,-5.9032,-5.8829,-5.8457,-5.7881,-5.7881,-5.7881,-5.7881,-5.7881,-5.7881,-5.7881,-5.7881,-5.7881,-5.7881,-5.7881,-5.7881,-5.7772,-5.6231,-5.5474,0.0,0.0,0.0,0.0,-4.9491,-4.8533,0.0,0.0,0.0,0.0,0.0,0.0,0.0,0.0,-4.7096,-4.5656,-4.4884,0.0,-4.3065,-4.2312,-4.1925,-4.1716,0.0,-4.1167,-4.0749,-4.1219,-4.0958,-4.0775,-4.1219,-4.1324,-4.1324,-4.1324,-4.1324,-4.1716,-4.2866,-4.4539,-4.5767,-4.6029,-4.7074,-4.744,-4.6552,-4.7519,-4.8172,-4.8172,-4.8172,-4.8172,-4.8172,-4.8172,-4.8172,-4.8172,-4.8172,-4.8172,-4.8172,-4.8172,-4.8172,-4.8172,-4.8172,-4.8172,-4.8172,-4.8172,-4.8172,-4.8172,-4.8172,-4.8172,-4.8172,-4.8172,-4.8172,-4.8172,-4.8172,-4.8172,-4.8172,-4.8172,-4.8172,-4.8172,0.0,0.0,0.0,0.0,0.0,0.0,0.0,0.0,0.0,0.0,-6.2381,-6.2381,-6.2381,-6.2381,-6.2381,0.0,0.0,0.0,0.0,0.0,0.0,0.0,0.0,-6.0926,-6.008,-5.937,-5.8829,-5.8389,-5.8051,-5.7881,-5.7881,-5.7881,-5.7881,-5.7881,-5.7881,-5.7881,-5.7881,-5.7881,-5.7881,-5.7772,-5.5995,0.0,0.0,0.0,0.0,0.0,-4.9296,-4.8326,0.0,-4.7682,-4.7997,-4.8297,0.0,0.0,0.0,0.0,-4.7199,-4.6107,-4.4362,-4.3164,-4.2145,-4.1127,-4.0723,-4.054,-4.054,-4.0278,-4.0148,-4.0461,-4.0461,-4.0514,-4.0853,-4.1559,-4.1925,-4.1402,-4.2213,-4.3101,-4.3729,-4.4879,-4.5872,-4.6421,-4.7022,-4.7362,-4.7257,-4.7832,-4.8172,-4.8172,-4.8172,-4.8172,-4.8172,-4.8172,-4.8172,-4.8172,-4.8172,-4.8172,-4.8172,-4.8172,-4.8172,-4.8172,-4.8172,-4.8172,-4.8172,-4.8172,-4.8172,-4.8172,-4.8172,-4.8172,-4.8172,-4.8172,-4.8172,-4.8172,-4.8172,-4.8172,-4.8172,-4.8172,-4.8172,-4.8172,0.0,0.0,0.0,0.0,0.0,0.0,0.0,0.0,0.0,0.0,0.0,0.0,0.0,0.0,0.0,0.0,0.0,0.0,0.0,0.0,0.0,0.0,-6.1738,-6.1366,-6.1129,-5.9979,-5.9201,-5.8829,-5.8321,-5.8017,-5.7881,-5.7881,-5.7881,-5.7881,-5.7881,-5.7845,-5.7735,-5.7845,-5.7772,-5.7368,-5.5915,0.0,0.0,0.0,0.0,0.0,0.0,0.0,0.0,-4.7938,-4.8147,-4.8147,-4.8147,0.0,0.0,0.0,0.0,0.0,-4.4089,-4.2759,-4.1849,-4.0597,-3.9939,-3.9599,-3.9599,-3.9547,-3.9494,-3.9599,-3.9965,-4.0383,-4.0644,-4.1821,-4.25,-4.1716,-4.3363,-4.4826,-4.4983,-4.514,-4.5558,-4.6369,-4.663,-4.7048,-4.7832,-4.8094,-4.8172,-4.8172,-4.8172,-4.8172,-4.8172,-4.8172,-4.8172,-4.8172,-4.8172,-4.8172,-4.8172,-4.8172,-4.8172,-4.8172,-4.8172,-4.8172,-4.8172,-4.8172,-4.8172,-4.8172,-4.8172,-4.8172,-4.8172,-4.8172,-4.8172,-4.8172,-4.8172,-4.8172,-4.8172,-4.8172,-4.8172,-4.8172,0.0,0.0,0.0,0.0,0.0,0.0,0.0,0.0,0.0,0.0,0.0,0.0,0.0,0.0,0.0,0.0,0.0,0.0,0.0,0.0,0.0,-6.1501,-6.1941,-6.1603,-6.0317,-6.0723,-6.0013,-5.8051,-5.8592,-5.8524,-5.7881,-5.7881,-5.7881,-5.7881,-5.7881,-5.748,-5.6844,-5.7625,-5.7034,-5.5676,-5.5434,0.0,0.0,0.0,0.0,0.0,0.0,0.0,0.0,-4.7429,-4.7459,-4.7459,-4.7459,0.0,0.0,0.0,0.0,0.0,-4.3975,-4.322,-4.2537,-4.0314,-3.9677,-3.9599,-3.9599,-3.9207,-3.8998,-3.9494,-3.9677,-4.0174,-4.1638,-4.1716,-4.1847,-4.2631,-4.3885,-4.5114,-4.6081,-4.7048,-4.7362,-4.6578,-4.7336,-4.7623,-4.6813,-4.7623,-4.8172,-4.8172,-4.8172,-4.8172,-4.8172,-4.8172,-4.8172,-4.8172,-4.8172,-4.8172,-4.8172,-4.8172,-4.8172,-4.8172,-4.8172,-4.8172,-4.8172,-4.8172,-4.8172,-4.8172,-4.8172,-4.8172,-4.8172,-4.8172,-4.8172,-4.8172,-4.8172,-4.8172,-4.8172,-4.8172,-4.8172,-4.8172,0.0,0.0,0.0,0.0,0.0,0.0,0.0,0.0,0.0,0.0,0.0,0.0,0.0,0.0,0.0,0.0,0.0,0.0,0.0,0.0,-6.1839,-6.1873,-6.14,-6.0825,-6.0114,-6.0892,-6.0554,-5.9099,-5.9032,-5.8829,-5.849,-5.7607,-5.7218,-5.7181,-5.6729,-5.627,-5.5915,-5.6309,-5.5844,-5.4729,0.0,0.0,0.0,0.0,0.0,0.0,0.0,0.0,0.0,0.0,-4.7309,-4.7309,-4.7309,0.0,0.0,0.0,0.0,0.0,-4.3548,-4.2671,-4.1952,-4.0097,-4.0069,-4.054,-4.054,-4.0305,-4.0017,-3.9677,-3.9834,-4.0383,-4.1507,-4.2265,-4.3389,-4.548,-4.5218,-4.5221,-4.6316,-4.6395,-4.6369,-4.6473,-4.6944,-4.731,-4.7388,-4.7885,-4.8172,-4.8172,-4.8172,-4.8172,-4.8172,-4.8172,-4.8172,-4.8172,-4.8172,-4.8172,-4.8172,-4.8172,-4.8172,-4.8172,-4.8172,-4.8172,-4.8172,-4.8172,-4.8172,-4.8172,-4.8172,-4.8172,-4.8172,-4.8172,-4.8172,-4.8172,-4.8172,-4.8172,-4.8172,-4.8172,-4.8172,-4.8172,0.0,0.0,0.0,0.0,0.0,0.0,0.0,0.0,0.0,0.0,0.0,0.0,0.0,0.0,0.0,0.0,0.0,0.0,0.0,-6.1603,-6.14,-6.1603,-6.0825,-6.0385,-6.0385,-6.0994,-6.0926,-6.0114,-5.9742,-5.937,-5.8961,-5.7363,-5.6614,-5.6575,-5.5676,-5.5117,-5.4911,-5.5037,-5.4446,-5.3483,0.0,0.0,0.0,0.0,0.0,0.0,0.0,0.0,0.0,0.0,0.0,0.0,0.0,0.0,0.0,-4.7309,-4.6711,-4.5522,-4.305,-4.2097,-4.1396,-3.9991,-4.0069,-4.0644,-4.1193,-4.1115,-4.0749,-4.0122,-4.0435,-4.101,-4.1611,-4.3023,-4.48,-4.7022,-4.6133,-4.5584,-4.6708,-4.6107,-4.5872,-4.6761,-4.6865,-4.7231,-4.8094,-4.8172,-4.8172,-4.8172,-4.8172,-4.8172,-4.8172,-4.8172,-4.8172,-4.8172,-4.8172,-4.8172,-4.8172,-4.8172,-4.8172,-4.8172,-4.8172,-4.8172,-4.8172,-4.8172,-4.8172,-4.8172,-4.8172,-4.8172,-4.8172,-4.8172,-4.8172,-4.8172,-4.8172,-4.8172,-4.8172,-4.8172,-4.8172,-4.8172,0.0,0.0,0.0,0.0,0.0,0.0,0.0,0.0,0.0,0.0,0.0,0.0,0.0,0.0,0.0,0.0,0.0,0.0,0.0,-6.1332,-6.0689,-5.9302,-6.052,-6.1231,-6.1231,-6.1264,-6.0926,-6.0114,-6.0791,-6.0419,-5.8961,-5.7363,-5.6614,-5.6575,-5.5676,-5.4704,-5.3742,-5.4195,-5.3164,-5.1267,-5.1842,0.0,0.0,0.0,0.0,0.0,0.0,0.0,0.0,0.0,0.0,0.0,0.0,0.0,-4.7309,-4.7309,-4.6381,-4.481,-4.2366,-4.1952,-4.1834,-4.005,-3.8867,-3.871,-4.0827,-4.0488,-4.0017,-4.0984,-4.1638,-4.2213,-4.2788,-4.3885,-4.4828,-4.4983,-4.5767,-4.6761,-4.7911,-4.7989,-4.7963,-4.8041,-4.8068,-4.8094,-4.8172,-4.8172,-4.8172,-4.8172,-4.8172,-4.8172,-4.8172,-4.8172,-4.8172,-4.8172,-4.8172,-4.8172,-4.8172,-4.8172,-4.8172,-4.8172,-4.8172,-4.8172,-4.8172,-4.8172,-4.8172,-4.8172,-4.8172,-4.8172,-4.8172,-4.8172,-4.8172,-4.8172,-4.8172,-4.8172,-4.8172,-4.8172,-4.8172,-4.8172,0.0,0.0,0.0,0.0,0.0,0.0,0.0,0.0,0.0,0.0,0.0,0.0,0.0,0.0,0.0,0.0,0.0,0.0,0.0,-6.0554,-6.052,-6.0452,-6.052,-6.0994,-6.1941,-6.1975,-6.1603,-6.0858,-6.0119,-5.9176,-5.8174,-5.5807,-5.4828,-5.4943,-5.3762,-5.2878,-5.218,-5.2238,-5.1259,-4.9782,-5.0027,-4.9462,0.0,0.0,0.0,0.0,0.0,0.0,0.0,0.0,-4.8177,-4.8566,-4.885,-4.8446,-4.7848,-4.7429,-4.6352,-4.4751,-4.2237,-4.1952,-4.1844,-4.005,-3.9285,-3.9573,-4.1847,-4.203,-4.1742,-4.1821,-4.2291,-4.2762,-4.2971,-4.514,-4.6656,-4.595,-4.6787,-4.7702,-4.812,-4.8172,-4.8172,-4.8172,-4.8172,-4.8172,-4.8172,-4.8172,-4.8172,-4.8172,-4.8172,-4.8172,-4.8172,-4.8172,-4.8172,-4.8172,-4.8172,-4.8172,-4.8172,-4.8172,-4.8172,-4.8172,-4.8172,-4.8172,-4.8172,-4.8172,-4.8172,-4.8172,-4.8172,-4.8172,-4.8172,-4.8172,-4.8172,-4.8172,-4.8172,-4.8172,-4.8172,-4.8172,-4.8172,-4.8172,0.0,0.0,0.0,0.0,0.0,0.0,0.0,0.0,0.0,0.0,0.0,0.0,0.0,0.0,0.0,0.0,0.0,0.0,-5.981,-5.9979,-6.025,-6.0554,-6.052,-6.096,-6.2009,-6.2279,-6.2144,-6.1637,-6.0169,-5.8966,-5.7926,-5.5429,-5.408,-5.3719,-5.2317,-5.144,-5.1044,-5.0559,-4.9772,-4.8762,-4.868,-4.8359,0.0,0.0,0.0,0.0,0.0,0.0,0.0,0.0,-4.876,-4.9329,-4.9494,-4.8985,-4.8147,-4.7489,-4.6437,-4.4889,-4.2477,-4.1854,-4.159,-4.0403,-3.9886,-4.02,-4.25,-4.2735,-4.2579,-4.2918,-4.3284,-4.3624,-4.3807,-4.5924,-4.7388,-4.6604,-4.744,-4.8172,-4.8172,-4.8172,-4.8172,-4.8172,-4.8172,-4.8172,-4.8172,-4.8172,-4.8172,-4.8172,-4.8172,-4.8172,-4.8172,-4.8172,-4.8172,-4.8172,-4.8172,-4.8172,-4.8172,-4.8172,-4.8172,-4.8172,-4.8172,-4.8172,-4.8172,-4.8172,-4.8172,-4.8172,-4.8172,-4.8172,-4.8172,-4.8172,-4.8172,-4.8172,-4.8172,-4.8172,-4.8172,-4.8172,-4.8172,-4.8172,0.0,0.0,0.0,0.0,0.0,0.0,0.0,0.0,0.0,0.0,0.0,0.0,0.0,0.0,0.0,0.0,0.0,0.0,-5.9066,-5.9708,-5.9776,-5.9066,-6.0486,-6.1332,-6.1332,-6.2009,-6.2381,-6.2381,-6.1369,-6.005,-5.8452,-5.6589,-5.4824,-5.3209,-5.1693,-5.0834,-5.0532,-4.9425,-4.8706,-4.8251,-4.8067,-4.7837,-4.7611,0.0,0.0,0.0,0.0,0.0,0.0,0.0,-4.8745,-4.9449,-4.9986,-4.9344,-4.8177,-4.7489,-4.658,-4.5203,-4.2902,-4.169,-4.1073,-4.1258,-4.0488,-4.0252,-4.2526,-4.216,-4.1977,-4.4224,-4.4694,-4.4931,-4.5451,-4.6107,-4.6499,-4.6473,-4.744,-4.8172,-4.8172,-4.8172,-4.8172,-4.8172,-4.8172,-4.8172,-4.8172,-4.8172,-4.8172,-4.8172,-4.8172,-4.8172,-4.8172,-4.8172,-4.8172,-4.8172,-4.8172,-4.8172,-4.8172,-4.8172,-4.8172,-4.8172,-4.8172,-4.8172,-4.8172,-4.8172,-4.8172,-4.8172,-4.8172,-4.8172,-4.8172,-4.8172,-4.8172,-4.8172,-4.8172,-4.8172,-4.8172,-4.8172,-4.8172,-4.8172,0.0,0.0,0.0,0.0,0.0,0.0,0.0,0.0,0.0,0.0,0.0,0.0,0.0,0.0,0.0,0.0,0.0,0.0,-5.8254,-5.9404,-6.0013,-5.9776,-6.1264,-6.2076,-6.2076,-6.2127,-6.215,-6.215,-6.0018,-5.8688,-5.7958,-5.4934,-5.3101,-5.2321,-5.1046,-4.996,-4.9191,-4.8711,-4.8159,-4.7608,-4.8053,-4.8173,-4.8115,0.0,0.0,0.0,0.0,0.0,0.0,0.0,0.0,0.0,-5.0285,-4.9927,-4.9344,-4.7758,-4.7062,-4.6197,-4.3243,-4.3399,-4.3925,-4.1802,-4.2265,-4.3336,-4.4068,-4.3337,-4.3049,-4.4903,-4.5689,-4.5898,-4.5663,-4.6761,-4.7414,-4.6604,-4.744,-4.8172,-4.8172,-4.8172,-4.8172,-4.8172,-4.8172,-4.8172,-4.8172,-4.8172,-4.8172,-4.8172,-4.8172,-4.8172,-4.8172,-4.8172,-4.8172,-4.8172,-4.8172,-4.8172,-4.8172,-4.8172,-4.8172,-4.8172,-4.8172,-4.8172,-4.8172,-4.8172,-4.8172,-4.8172,-4.8172,-4.8172,-4.8172,-4.8172,-4.8172,-4.8172,-4.8172,-4.8172,-4.8172,-4.8172,-4.8172,-4.8172,0.0,0.0,0.0,0.0,0.0,0.0,0.0,0.0,0.0,0.0,-6.0419,-5.9979,0.0,0.0,0.0,0.0,0.0,0.0,-5.7915,-5.9268,-6.0114,-6.0114,-6.1569,-6.2341,-6.2229,-6.1723,-6.1324,-6.116,-5.9608,-5.8265,-5.701,-5.4591,-5.2805,-5.1618,-5.0409,-4.9344,-4.8443,-4.8085,-4.7668,-4.7339,-4.7728,-4.8057,-4.8327,0.0,0.0,0.0,0.0,0.0,0.0,0.0,0.0,0.0,-5.0704,-5.0405,-4.9865,-4.8235,-4.7342,-4.6413,-4.445,-4.4343,-4.4536,-4.3598,-4.4042,-4.4853,-4.5323,-4.4879,-4.4748,-4.5973,-4.6578,-4.6787,-4.6682,-4.7492,-4.7963,-4.7257,-4.7728,-4.8172,-4.8172,-4.8172,-4.8172,-4.8172,-4.8172,-4.8172,-4.8172,-4.8172,-4.8172,-4.8172,-4.8172,-4.8172,-4.8172,-4.8172,-4.8172,-4.8172,-4.8172,-4.8172,-4.8172,-4.8172,-4.8172,-4.8172,-4.8172,-4.8172,-4.8172,-4.8172,-4.8172,-4.8172,-4.8172,-4.8172,-4.8172,-4.8172,-4.8172,-4.8172,-4.8172,-4.8172,-4.8172,-4.8172,-4.8172,-4.8172,0.0,0.0,-5.893,-5.893,0.0,0.0,0.0,0.0,0.0,0.0,-5.9945,-5.9641,0.0,0.0,0.0,0.0,0.0,0.0,0.0,-5.9268,-6.0114,-6.0114,-6.1569,-6.2156,-6.1776,-6.0962,-6.0247,-5.9642,-5.9642,-5.8403,-5.603,-5.5023,-5.3373,-5.1169,-4.9853,-4.891,-4.8147,-4.7549,-4.7339,-4.7399,-4.7459,-4.7878,-4.8476,-4.8536,0.0,0.0,0.0,0.0,0.0,0.0,0.0,0.0,-5.1139,-5.0704,-5.0041,-4.8851,-4.752,-4.6385,-4.6147,-4.4783,-4.3939,-4.6006,-4.5767,-4.5323,-4.6395,-4.663,-4.6761,-4.7174,-4.7304,-4.7571,-4.8094,-4.8172,-4.8172,-4.8172,-4.8172,-4.8172,-4.8172,-4.8172,-4.8172,-4.8172,-4.8172,-4.8172,-4.8172,-4.8172,-4.8172,-4.8172,-4.8172,-4.8172,-4.8172,-4.8172,-4.8172,-4.8172,-4.8172,-4.8172,-4.8172,-4.8172,-4.8172,-4.8172,-4.8172,-4.8172,-4.8172,-4.8172,-4.8172,-4.8172,-4.8172,-4.8172,-4.8172,-4.8172,-4.8172,-4.8172,-4.8172,-4.8172,-4.8172,-4.8172,-4.8172,-4.8172,0.0,0.0,-5.8118,-5.8118,0.0,0.0,0.0,0.0,0.0,0.0,0.0,0.0,0.0,0.0,0.0,0.0,0.0,0.0,0.0,-5.9268,-6.0114,-6.0114,-6.1379,-6.1455,-6.0092,-6.0069,-5.9258,-5.7621,-5.7621,-5.723,-5.644,-5.4461,-5.2695,-5.1169,-4.9853,-4.8626,-4.7519,-4.7369,-4.7608,-4.8117,-4.8626,-4.9224,-4.9837,-5.0391,-5.075,0.0,0.0,0.0,0.0,0.0,0.0,0.0,-5.0554,-5.0674,-5.0644,-4.8864,-4.8536,-4.835,-4.6532,-4.6469,-4.6864,-4.6567,-4.697,-4.7519,-4.7754,-4.7806,-4.7728,-4.733,-4.7702,-4.8041,-4.8172,-4.8172,-4.8172,-4.8172,-4.8172,-4.8172,-4.8172,-4.8172,-4.8172,-4.8172,-4.8172,-4.8172,-4.8172,-4.8172,-4.8172,-4.8172,-4.8172,-4.8172,-4.8172,-4.8172,-4.8172,-4.8172,-4.8172,-4.8172,-4.8172,-4.8172,-4.8172,-4.8172,-4.8172,-4.8172,-4.8172,-4.8172,-4.8172,-4.8172,-4.8172,-4.8172,-4.8172,-4.8172,-4.8172,-4.8172,-4.8172,-4.8172,-4.8172,-4.8172,-4.8172,-4.8172,0.0,0.0,0.0,0.0,0.0,0.0,0.0,0.0,0.0,0.0,0.0,0.0,0.0,0.0,0.0,0.0,0.0,0.0,0.0,-5.9167,-5.9873,-6.0468,-6.0705,-6.0431,-5.969,-5.8888,-5.7946,-5.68,-5.6347,-5.6085,-5.5888,-5.4097,-5.2486,-5.1169,-4.9853,-4.858,-4.7339,-4.7638,-4.7967,-4.8356,-4.906,-4.9643,-5.0226,-5.0584,-5.0913,-5.1229,-5.1229,0.0,0.0,0.0,0.0,0.0,0.0,0.0,-5.0986,-4.9727,-4.9033,-4.8499,-4.7675,-4.7263,-4.719,-4.728,-4.7754,-4.8172,-4.8172,-4.8172,-4.8094,-4.7806,-4.7989,-4.8172,-4.8172,-4.8172,-4.8172,-4.8172,-4.8172,-4.8172,-4.8172,-4.8172,-4.8172,-4.8172,-4.8172,-4.8172,-4.8172,-4.8172,-4.8172,-4.8172,-4.8172,-4.8172,-4.8172,-4.8172,-4.8172,-4.8172,-4.8172,-4.8172,-4.8172,-4.8172,-4.8172,-4.8172,-4.8172,-4.8172,-4.8172,-4.8172,-4.8172,-4.8172,-4.8172,-4.8172,-4.8172,-4.8172,-4.8172,-4.8172,-4.8172,-4.8172,-4.8172,-4.8172,-4.8172,-4.8172,0.0,0.0,0.0,0.0,0.0,0.0,0.0,0.0,0.0,0.0,0.0,0.0,0.0,0.0,0.0,0.0,0.0,0.0,0.0,0.0,0.0,-6.0606,-6.013,-5.9718,-5.9447,-5.7976,-5.6896,-5.6378,-5.5601,-5.5179,-5.5149,-5.3803,-5.2486,-5.1169,-4.9853,-4.858,-4.7339,-4.7997,-4.8356,-4.8506,-4.9164,-4.9823,-5.0375,-5.0375,-5.0704,-5.1229,-5.1229,-5.1229,-5.1229,-5.1229,0.0,0.0,0.0,0.0,-5.1101,-5.0574,-4.9436,-4.8355,-4.8775,-4.7756,-4.6786,-4.7937,-4.8172,-4.8172,-4.8172,-4.8172,-4.8172,-4.8172,-4.8172,-4.8172,-4.8172,-4.8172,-4.8172,-4.8172,-4.8172,-4.8172,-4.8172,-4.8172,-4.8172,-4.8172,-4.8172,-4.8172,-4.8172,-4.8172,-4.8172,-4.8172,-4.8172,-4.8172,-4.8172,-4.8172,-4.8172,-4.8172,-4.8172,-4.8172,-4.8172,-4.8172,-4.8172,-4.8172,-4.8172,-4.8172,-4.8172,-4.8172,-4.8172,-4.8172,-4.8172,-4.8172,-4.8172,-4.8172,-4.8172,-4.8172,-4.8172,-4.8172,-4.8172,-4.8172,-4.8172,-4.8172,0.0,0.0,0.0,0.0,0.0,0.0,0.0,0.0,0.0,0.0,-5.7881,-5.7881,0.0,0.0,0.0,0.0,0.0,0.0,-5.8017,0.0,0.0,-5.9706,-6.0631,-6.0055,-5.7707,-5.786,-5.7086,-5.5381,-5.528,-5.5179,-5.5149,-5.3803,-5.2486,-5.1169,-4.9853,-4.858,-4.7339,-4.7997,-4.8626,-4.9239,-4.9853,-5.0465,-5.1079,-5.1079,-5.1139,-5.1229,-5.1229,-5.1229,-5.1229,-5.1229,-5.1229,0.0,0.0,0.0,-5.1063,-5.0445,-5.018,-4.9898,-4.8862,-4.8172,-4.7835,-4.8148,-4.8172,-4.8172,-4.8172,-4.8172,-4.8172,-4.8172,-4.8172,-4.8172,-4.8172,-4.8172,-4.8172,-4.8172,-4.8172,-4.8172,-4.8172,-4.8172,-4.8172,-4.8172,-4.8172,-4.8172,-4.8172,-4.8172,-4.8172,-4.8172,-4.8172,-4.8172,-4.8172,-4.8172,-4.8172,-4.8172,-4.8172,-4.8172,-4.8172,-4.8172,-4.8172,-4.8172,-4.8172,-4.8172,-4.8172,-4.8172,-4.8172,-4.8172,-4.8172,-4.8172,-4.8172,-4.8172,-4.8172,-4.8172,-4.8172,-4.8172,-4.8172,-4.8172,-4.8172,-4.8172,0.0,0.0,0.0,0.0,0.0,0.0,0.0,0.0,0.0,0.0,0.0,-5.7881,0.0,0.0,0.0,-5.7881,-5.7881,-5.8014,-5.8343,-5.9161,-5.97,-5.9938,-5.9413,-5.8666,-5.7747,-5.6884,-5.6066,-5.5179,-5.5179,-5.4999,-5.461,-5.3623,-5.2665,-5.1708,-5.0048,-4.9,-4.8416,-4.876,-4.9224,-4.9853,-5.0076,-5.0794,-5.1648,-5.0541,-5.081,-5.1678,-5.0883,-5.09,-5.1229,-5.1229,-5.1229,-5.1229,-5.1229,0.0,0.0,0.0,-5.0555,-5.0084,-4.8902,-4.8603,-4.8509,-4.8253,-4.8172,-4.8172,-4.8172,-4.8172,-4.8172,-4.8172,-4.8172,-4.8172,-4.8172,-4.8172,-4.8172,-4.8172,-4.8172,-4.8172,-4.8172,-4.8172,-4.8172,-4.8172,-4.8172,-4.8172,-4.8172,-4.8172,-4.8172,-4.8172,-4.8172,-4.8172,-4.8172,-4.8172,-4.8172,-4.8172,-4.8172,-4.8172,-4.8172,-4.8172,-4.8172,-4.8172,-4.8172,-4.8172,-4.8172,-4.8172,-4.8172,-4.8172,-4.8172,-4.8172,-4.8172,-4.8172,-4.8172,-4.8172,-4.8172,-4.8172,-4.8172,-4.8172,-4.8172,-4.8172,0.0,0.0,0.0,0.0,0.0,0.0,0.0,0.0,0.0,0.0,0.0,0.0,0.0,0.0,0.0,0.0,-5.7808,-5.8002,-5.8513,-5.9298,-5.9871,-6.0203,-5.8691,-5.7955,-5.8085,-5.6427,-5.5431,-5.5179,-5.5179,-5.485,-5.4192,-5.3503,-5.2725,-5.1887,-5.0062,-4.9209,-4.909,-4.9239,-4.9464,-4.9747,-5.0435,-5.1229,-5.1828,-5.069,-5.1169,-5.2276,-5.096,-5.0764,-5.1169,-5.084,-5.072,-5.072,-5.072,-5.072,0.0,0.0,0.0,-4.9542,-4.8859,-4.8642,-4.8544,-4.8209,-4.8131,-4.8153,-4.8178,-4.8172,-4.8172,-4.8172,-4.8172,-4.8172,-4.8172,-4.8172,-4.8172,-4.8172,-4.8172,-4.8172,-4.8172,-4.8172,-4.8172,-4.8172,-4.8172,-4.8172,-4.8172,-4.8172,-4.8172,-4.8172,-4.8172,-4.8172,-4.8172,-4.8172,-4.8172,-4.8172,-4.8172,-4.8172,-4.8172,-4.8172,-4.8172,-4.8172,-4.8172,-4.8172,-4.8172,-4.8172,-4.8172,-4.8172,-4.8172,-4.8172,-4.8172,-4.8172,-4.8172,-4.8172,-4.8172,-4.8172,-4.8172,-4.8172,-4.8172,-4.8172,0.0,0.0,0.0,0.0,0.0,0.0,0.0,0.0,0.0,0.0,0.0,-5.7881,-5.7881,-5.7881,-5.7808,-5.7625,-5.7625,-5.7741,-5.813,-5.9452,-6.0203,-5.9993,-5.9673,0.0,-5.8131,-5.7039,-5.6085,-5.5179,-5.5179,-5.485,-5.4192,-5.3503,-5.2486,-5.1199,-4.9853,-4.897,-4.8386,-4.906,-4.897,-4.8596,-5.1109,-5.1768,-5.1379,-5.2546,-5.3025,-5.2965,-5.1648,-5.1199,-5.102,-4.9793,-4.9419,-4.9419,-4.9419,-4.9419,-4.9419,0.0,0.0,0.0,-4.8468,-4.8047,-4.7641,-4.7945,-4.8027,-4.8047,-4.8169,-4.8172,-4.8172,-4.8172,-4.8172,-4.8172,-4.8172,-4.8172,-4.8172,-4.8172,-4.8172,-4.8172,-4.8172,-4.8172,-4.8172,-4.8172,-4.8172,-4.8172,-4.8172,-4.8172,-4.8172,-4.8172,-4.8172,-4.8172,-4.8172,-4.8172,-4.8172,-4.8172,-4.8172,-4.8172,-4.8172,-4.8172,-4.8172,-4.8172,-4.8172,-4.8172,-4.8172,-4.8172,-4.8172,-4.8172,-4.8172,-4.8172,-4.8172,-4.8172,-4.8172,-4.8172,-4.8172,-4.8172,-4.8172,-4.8172,-4.8172,-4.8172,0.0,0.0,0.0,0.0,0.0,0.0,0.0,0.0,0.0,0.0,0.0,0.0,0.0,-5.7514,-5.7476,-5.7402,-5.7725,-5.7908,-5.7854,-5.9275,-5.9703,-5.8815,-5.8716,-5.8162,-5.7134,-5.6183,-5.5551,-5.5179,-5.5179,-5.464,-5.3533,-5.3294,-5.2247,-5.0495,-4.9673,-4.9179,-4.897,-4.9209,-4.9179,-4.912,-5.084,-5.1678,-5.1768,-5.096,-5.1977,-5.3563,-5.1379,-5.0823,-5.1139,-5.069,-4.9972,-4.9299,-4.9299,-4.9299,-4.9299,-4.9299,-4.9149,-4.8879,-4.8592,-4.8335,-4.8095,-4.787,-4.7916,-4.8027,-4.807,-4.8167,-4.8172,-4.8172,-4.8172,-4.8172,-4.8172,-4.8172,-4.8172,-4.8172,-4.8172,-4.8172,-4.8172,-4.8172,-4.8172,-4.8172,-4.8172,-4.8172,-4.8172,-4.8172,-4.8172,-4.8172,-4.8172,-4.8172,-4.8172,-4.8172,-4.8172,-4.8172,-4.8172,-4.8172,-4.8172,-4.8172,-4.8172,-4.8172,-4.8172,-4.8172,-4.8172,-4.8172,-4.8172,-4.8172,-4.8172,-4.8172,-4.8172,-4.8172,-4.8172,-4.8172,-4.8172,-4.8172,-4.8172,-4.8172,-4.8172,-4.8172,0.0,0.0,0.0,-5.7808,0.0,-5.7698,-5.7698,-5.7698,-5.7662,-5.7514,0.0,0.0,0.0,0.0,-5.7239,-5.7094,-5.7475,-5.7664,-5.7485,-5.8657,-5.9014,-5.8131,-5.7761,-5.7276,-5.659,-5.57,-5.5179,-5.5179,-5.497,-5.4281,-5.3174,-5.2965,-5.1798,-4.9912,-4.9673,-4.9344,-4.897,-4.897,-4.8805,-4.8775,-5.075,-5.1409,-5.1169,-5.0797,-5.1678,-5.2965,-5.1152,-5.0794,-5.1229,-5.1229,-5.0631,-4.9853,-4.9449,-4.9,-4.864,-4.864,-4.864,-4.8552,-4.8165,-4.8097,-4.7992,-4.7693,-4.774,-4.7848,-4.7948,-4.8038,-4.8162,-4.821,-4.8172,-4.8172,-4.8172,-4.8172,-4.8172,-4.8172,-4.8172,-4.8172,-4.8172,-4.8172,-4.8172,-4.8172,-4.8172,-4.8172,-4.8172,-4.8172,-4.8172,-4.8172,-4.8172,-4.8172,-4.8172,-4.8172,-4.8172,-4.8172,-4.8172,-4.8172,-4.8172,-4.8172,-4.8172,-4.8172,-4.8172,-4.8172,-4.8172,-4.8172,-4.8172,-4.8172,-4.8172,-4.8172,-4.8172,-4.8172,-4.8172,-4.8172,-4.8172,-4.8172,-4.8172,-4.8172,-4.8172,-4.8172,-5.8961,-5.8204,-5.7588,-5.7588,-5.7439,-5.7289,-5.7289,-5.7289,-5.7289,-5.7289,0.0,0.0,0.0,0.0,0.0,-5.6596,-5.6826,-5.6997,-5.6951,-5.766,-5.8039,-5.7993,-5.7086,-5.659,-5.6541,-5.57,-5.5179,-5.5179,-5.4521,-5.3862,-5.3174,-5.2486,-5.1139,-4.9329,-4.9912,-4.9464,-4.8267,-4.8297,-4.7908,-4.7608,-5.087,-5.105,-4.9659,-5.2187,-5.2426,-5.1319,-5.1289,-5.1259,-5.1229,-5.1259,-5.1199,-5.087,-4.9613,-4.8327,-4.7309,-4.7309,-4.7309,-4.7309,0.0,0.0,0.0,-4.7456,-4.7496,-4.7586,-4.7915,-4.8029,-4.8077,-4.8174,-4.8204,-4.823,-4.8172,-4.8172,-4.8172,-4.8172,-4.8172,-4.8172,-4.8172,-4.8172,-4.8172,-4.8172,-4.8172,-4.8172,-4.8172,-4.8172,-4.8172,-4.8172,-4.8172,-4.8172,-4.8172,-4.8172,-4.8172,-4.8172,-4.8172,-4.8172,-4.8172,-4.8172,-4.8172,-4.8172,-4.8172,-4.8172,-4.8172,-4.8172,-4.8172,-4.8172,-4.8172,-4.8172,-4.8172,-4.8172,-4.8172,-4.8172,-4.8172,-4.8172,-4.8172,-4.8172,-4.8172,-4.8172,-5.8585,-5.7905,-5.7402,-5.7402,-5.7327,-5.7289,-5.7289,-5.7289,-5.7252,0.0,0.0,0.0,-5.5876,-5.5725,-5.5762,-5.6077,-5.6626,-5.6709,-5.5999,-5.7323,-5.7465,-5.6066,-5.6378,-5.628,-5.5601,-5.533,-5.5179,-5.5179,-5.4521,-5.3862,-5.3144,-5.2007,-5.069,-4.9299,-4.8955,-4.8356,-4.7638,-4.8596,-4.8356,-4.7608,-5.087,-5.1588,-5.087,-5.2546,-5.3563,-5.3952,-5.2995,-5.2037,-5.1379,-5.2306,-5.075,-4.8327,-4.7967,-4.7608,-4.7309,-4.7309,-4.7309,-4.7309,-4.7309,0.0,0.0,0.0,0.0,0.0,-4.7649,-4.8453,-4.9003,-4.824,-4.8798,-4.916,-4.8347,-4.8172,-4.8172,-4.8172,-4.8172,-4.8172,-4.8172,-4.8172,-4.8172,-4.8172,-4.8172,-4.8172,-4.8172,-4.8172,-4.8172,-4.8172,-4.8172,-4.8172,-4.8172,-4.8172,-4.8172,-4.8172,-4.8172,-4.8172,-4.8172,-4.8172,-4.8172,-4.8172,-4.8172,-4.8172,-4.8172,-4.8172,-4.8172,-4.8172,-4.8172,-4.8172,-4.8172,-4.8172,-4.8172,-4.8172,-4.8172,-4.8172,-4.8172,-4.8172,-4.8172,-4.8172,-5.8433,-5.7716,-5.7176,-5.7176,-5.7101,-5.7063,-5.7063,-5.7063,-5.6872,0.0,0.0,0.0,-5.5204,-5.4976,-5.5076,-5.5717,-5.6077,-5.6005,-5.5439,-5.6357,-5.6378,-5.5229,-5.572,-5.5769,-5.5179,-5.5179,-5.5059,-5.479,-5.4102,-5.3294,-5.2336,-5.1289,-5.0122,-4.891,-4.879,-4.8177,-4.7369,-4.8416,-4.8267,-4.7578,-5.0571,-5.1229,-5.0601,-5.2486,-5.3324,-5.3503,-5.3264,-5.2695,-5.2247,-5.3563,-5.1768,-4.8955,-4.8955,-4.8177,-4.7309,-4.7309,-4.7309,-4.7309,-4.7309,-4.7309,-4.7309,-4.7309,0.0,0.0,-4.7549,-4.8274,-4.8742,-4.8181,-4.8706,-4.8988,-4.8347,-4.8172,-4.8172,-4.8172,-4.8172,-4.8172,-4.8172,-4.8172,-4.8172,-4.8172,-4.8172,-4.8172,-4.8172,-4.8172,-4.8172,-4.8172,-4.8172,-4.8172,-4.8172,-4.8172,-4.8172,-4.8172,-4.8172,-4.8172,-4.8172,-4.8172,-4.8172,-4.8172,-4.8172,-4.8172,-4.8172,-4.8172,-4.8172,-4.8172,-4.8172,-4.8172,-4.8172,-4.8172,-4.8172,-4.8172,-4.8172,-4.8172,-4.8172,-4.8172,-4.8172,-4.8172,0.0,-5.7568,-5.6949,-5.6949,-5.6834,-5.6641,-5.6564,-5.6564,-5.6218,0.0,-5.5131,-5.5037,-5.4958,-5.4714,-5.4833,-5.5507,-5.5318,-5.5179,-5.5179,-5.5179,-5.5179,-5.5179,-5.5179,-5.5149,-5.5089,-5.5089,-5.476,-5.4102,-5.3414,-5.2426,-5.1199,-5.0435,-4.9464,-4.8297,-4.888,-4.8386,-4.7339,-4.7938,-4.7908,-4.7728,-5.0062,-5.0391,-4.9808,-5.2247,-5.2546,-5.1798,-5.2995,-5.3324,-5.3354,-5.4401,-5.3264,-5.1379,-5.1079,-4.9494,-4.7698,-4.7399,-4.7399,-4.7489,-4.7339,-4.7309,-4.7309,-4.7309,-4.7309,0.0,-4.7608,-4.7756,-4.7926,-4.8089,-4.825,-4.8299,-4.8263,-4.8289,-4.8289,-4.8368,-4.8332,-4.8268,-4.823,-4.8172,-4.8172,-4.8172,-4.8172,-4.8172,-4.8172,-4.8172,-4.8172,-4.8172,-4.8172,-4.8172,-4.8172,-4.8172,-4.8172,-4.8172,-4.8172,-4.8172,-4.8172,-4.8172,-4.8172,-4.8172,-4.8172,-4.8172,-4.8172,-4.8172,-4.8172,-4.8172,-4.8172,-4.8172,-4.8172,-4.8172,-4.8172,-4.8172,-4.8172,-4.8172,-4.8172,-4.8172,-4.8172,-4.8172,-5.7066,-5.6895,-5.6757,-5.6757,-5.6719,-5.6447,-5.5676,-5.5555,-5.5271,-5.4359,-5.406,-5.4051,-5.4334,-5.4315,-5.4548,-5.521,-5.522,-5.5179,-5.5179,-5.5179,-5.5179,-5.5179,-5.5179,-5.494,-5.4431,-5.4401,-5.4072,-5.3384,-5.2725,-5.2007,-5.1199,-5.0002,-4.9045,-4.8267,-4.7878,-4.7549,-4.7309,-4.7429,-4.8027,-4.8925,-4.9479,-5.0122,-5.102,-5.2576,-5.3683,-5.4431,-5.47,-5.4102,-5.3054,-5.2276,-5.2366,-5.2426,-5.0301,-5.0032,-5.0032,-4.7938,-4.8057,-4.8656,-4.7578,-4.7309,-4.7309,-4.7309,-4.7309,0.0,-4.7377,-4.8204,-4.8764,-4.7783,-4.8524,-4.9121,-4.8661,-4.8586,-4.8752,-4.933,-4.909,-4.8709,-4.8294,-4.8172,-4.8172,-4.8172,-4.8172,-4.8172,-4.8172,-4.8172,-4.8172,-4.8172,-4.8172,-4.8172,-4.8172,-4.8172,-4.8172,-4.8172,-4.8172,-4.8172,-4.8172,-4.8172,-4.8172,-4.8172,-4.8172,-4.8172,-4.8172,-4.8172,-4.8172,-4.8172,-4.8172,-4.8172,-4.8172,-4.8172,-4.8172,-4.8172,-4.8172,-4.8172,-4.8172,-4.8172,-4.8172,-4.8172,-5.6719,-5.668,-5.6564,-5.6067,-5.5988,-5.5708,-5.4819,-5.4653,-5.4359,-5.3415,-5.3054,-5.3239,-5.4121,-5.4221,-5.4491,-5.5119,-5.5179,-5.5179,-5.5179,-5.5179,-5.5029,-5.473,-5.47,-5.4371,-5.3713,-5.3683,-5.3354,-5.2695,-5.2037,-5.1199,-5.0212,-4.9224,-4.882,-4.876,-4.7758,-4.7668,-4.8237,-4.7578,-4.7698,-4.8416,-4.9703,-5.102,-5.2336,-5.3683,-5.461,-5.5179,-5.5179,-5.476,-5.4072,-5.3414,-5.2755,-5.2097,-5.1439,-5.078,-4.9972,-4.8656,-4.8745,-4.903,-4.7668,-4.7549,-4.7788,-4.7788,-4.8027,0.0,0.0,-4.9186,-4.9666,-4.8787,-4.9386,-4.9887,-4.9318,-4.9214,-4.9326,-4.9634,-4.9501,-4.9274,-4.8976,-4.8528,-4.8172,-4.8172,-4.8172,-4.8172,-4.8172,-4.8172,-4.8172,-4.8172,-4.8172,-4.8172,-4.8172,-4.8172,-4.8172,-4.8172,-4.8486,-4.8643,-4.8643,-4.8904,-4.9035,-4.9035,-4.9035,-4.8904,-4.8643,-4.8643,-4.846,-4.8172,-4.8172,-4.8172,-4.8172,-4.8172,-4.8172,-4.8172,-4.8172,-4.8172,-4.8172,-4.8172,-4.8172,-4.8172,-5.6453,-5.6414,-5.6139,-5.5231,-5.5067,-5.481,-5.4037,-5.3907,-5.3684,-5.2978,-5.2812,-5.3234,-5.4461,-5.47,-5.497,-5.5508,-5.5568,-5.5448,-5.5209,-5.5179,-5.491,-5.4251,-5.4072,-5.3743,-5.3204,-5.3054,-5.2606,-5.1828,-5.1289,-5.0361,-4.912,-4.8536,-4.8506,-4.891,-4.8027,-4.8117,-4.888,-4.8027,-4.7818,-4.8237,-5.0361,-5.1708,-5.2576,-5.3922,-5.4581,-5.485,-5.5089,-5.5179,-5.5149,-5.488,-5.3384,-5.1708,-5.2247,-5.1366,-4.9928,-4.9149,-4.9389,-4.9494,-4.7908,-4.7967,-4.8476,-4.8476,-4.891,-4.9342,0.0,0.0,0.0,-4.97,-5.0058,-5.0285,-4.9836,-4.9779,-4.9864,-5.0143,-5.0067,-4.9967,-5.0013,-4.9144,-4.8524,-4.8524,-4.8516,-4.8524,-4.8521,-4.8347,-4.8224,-4.8355,-4.825,-4.8224,-4.8355,-4.846,-4.8512,-4.8512,-4.8982,-4.9244,-4.9244,-4.9662,-4.9897,-4.9897,-4.9897,-4.9662,-4.9244,-4.9139,-4.8826,-4.8355,-4.8224,-4.8172,-4.8172,-4.8172,-4.8172,-4.8172,-4.8172,-4.8172,-4.8172,-4.8172,-4.8172,-4.8172,-5.5474,-5.5474,-5.519,-5.4317,-5.4147,-5.4037,-5.3723,-5.3635,-5.3776,-5.3977,-5.4481,-5.5119,-5.5867,-5.6436,-5.6795,-5.6885,-5.6885,-5.6406,-5.5269,-5.5179,-5.491,-5.4251,-5.3623,-5.3264,-5.3174,-5.2606,-5.1708,-5.0405,-5.0345,-4.9673,-4.8386,-4.8327,-4.8027,-4.7578,-4.8596,-4.8476,-4.7608,-4.8626,-4.9703,-5.081,-5.1109,-5.0601,-4.9898,-5.1169,-5.2396,-5.3563,-5.476,-5.5179,-5.4999,-5.3803,-5.3204,-5.2576,-5.0437,-5.1156,-5.2037,-4.8566,-4.9583,-5.1319,-4.8835,-4.87,-4.9209,-4.9209,-4.9239,-4.9314,-4.9298,0.0,-4.9431,-4.9353,0.0,-4.9575,-5.0033,0.0,0.0,-5.1713,-5.1099,-5.063,-5.1186,-5.0275,-4.9542,-4.9542,-4.9626,-4.9686,-4.964,-4.8784,-4.8407,-4.893,-4.8486,-4.8407,-4.8956,-4.9427,-4.9688,-4.9688,-4.9766,-4.9793,-4.9793,-4.9871,-4.9897,-4.9897,-4.9897,-4.9845,-4.9793,-4.9296,-4.9035,-4.8956,-4.8407,-4.8172,-4.8172,-4.8172,-4.8172,-4.8172,-4.8172,-4.8172,-4.8172,-4.8172,-4.8172,-4.8172,-5.5859,-5.5471,-5.4962,-5.4438,-5.4321,-5.4097,-5.3476,-5.3347,-5.3567,-5.4121,-5.4461,-5.488,-5.5538,-5.5508,-5.5718,-5.6496,-5.5867,-5.5359,-5.5209,-5.485,-5.4162,-5.3084,-5.2755,-5.2426,-5.2067,-5.1409,-5.0734,-5.0196,-4.9494,-4.8835,-4.8267,-4.7908,-4.7967,-4.8476,-4.906,-4.9374,-4.9613,-5.0152,-5.0272,-5.0152,-5.09,-5.0451,-4.9629,-5.2426,-5.3862,-5.4431,-5.4999,-5.5179,-5.5089,-5.4551,-5.3324,-5.2127,-5.2576,-5.1935,-5.081,-5.0301,-5.0571,-5.072,-4.9254,-4.9613,-5.0301,-4.9912,-5.0391,-5.087,-5.0481,-5.069,-5.087,-5.0481,0.0,0.0,0.0,0.0,0.0,0.0,-5.1248,-5.1046,-5.1297,-5.0955,-5.0449,-4.9774,-4.9748,-4.9767,-4.9788,-5.0121,-5.0073,-4.9591,-5.0008,-5.0073,-4.9591,-4.9766,-4.9897,-4.9897,-5.0237,-5.042,-5.042,-5.0734,-5.089,-5.089,-5.089,-5.0707,-5.0394,-5.0185,-4.9897,-4.9531,-4.8956,-4.8695,-4.8669,-4.8329,-4.8172,-4.8172,-4.8172,-4.8172,-4.8172,-4.8172,-4.8172,-4.8172,-5.6046,-5.543,-5.4781,-5.4296,-5.4199,-5.4023,-5.3541,-5.3623,-5.3922,-5.4401,-5.464,-5.485,-5.5149,-5.5239,-5.5508,-5.6188,-5.5628,-5.5269,-5.5179,-5.4581,-5.3773,-5.2785,-5.2217,-5.1798,-5.1498,-5.0614,-5.0016,-4.9703,-4.8745,-4.8207,-4.7997,-4.7519,-4.7818,-4.879,-4.9149,-4.9793,-5.069,-5.1079,-5.087,-5.0467,-5.1379,-5.1409,-5.1216,-5.3683,-5.488,-5.5179,-5.5179,-5.5179,-5.5119,-5.476,-5.3354,-5.2037,-5.3593,-5.2366,-5.0541,-5.1618,-5.1648,-5.1016,-4.974,-5.0181,-5.0864,-5.0164,-5.0775,-5.1464,-5.1225,-5.1588,-5.1798,-5.1319,-5.1588,0.0,0.0,0.0,-5.1289,-5.1468,0.0,-5.1336,-5.1446,-5.1424,-5.1038,-5.0229,-5.012,-5.0166,-5.0241,-5.1172,-5.1312,-5.0208,-5.1169,-5.1299,-5.0193,-5.0289,-5.0368,-5.0368,-5.0786,-5.1021,-5.1021,-5.1413,-5.1596,-5.1596,-5.1596,-5.1387,-5.0995,-5.0864,-5.0551,-5.0106,-4.9557,-4.9218,-4.9061,-4.8616,-4.8329,-4.8172,-4.8172,-4.8172,-4.8172,-4.8172,-4.8172,-4.8172,-5.5468,-5.5068,-5.431,-5.3417,-5.3223,-5.3462,-5.4072,-5.473,-5.5119,-5.5149,-5.5718,-5.5867,-5.5269,-5.6855,-5.7513,-5.6286,-5.7304,-5.7214,-5.5329,-5.4581,-5.4192,-5.4162,-5.2276,-5.1528,-5.2157,-5.09,-4.9613,-4.8356,-4.8297,-4.7967,-4.7339,-4.7309,-4.7339,-4.7429,-4.8686,-4.9329,-4.9449,-5.069,-5.1947,-5.3054,-5.3084,-5.3862,-5.488,-5.3683,-5.4042,-5.5179,-5.5179,-5.5179,-5.4999,-5.3683,-5.3204,-5.2905,-5.1708,-5.2127,-5.2815,-5.1588,-5.2606,-5.3407,-5.0418,-5.0095,-5.0444,-4.9805,-4.9659,-4.996,-5.0964,-5.1229,-5.1259,-5.1229,-5.1229,-5.1259,-5.1229,-5.1229,-5.1439,-5.2067,-5.1631,0.0,0.0,-5.1583,-5.1178,-5.1148,-5.1218,-5.127,-5.1344,-5.1567,-5.1405,-5.0709,-5.1336,-5.1487,-5.0795,-5.1256,-5.1544,-5.1544,-5.157,-5.157,-5.157,-5.1596,-5.1596,-5.1596,-5.1596,-5.1596,-5.1544,-5.1021,-5.0786,-5.0734,-5.0132,-4.9557,-4.9087,-4.9061,-4.8721,-4.8172,-4.8172,-4.8172,-4.8172,-4.8172,-4.8172,-4.8172,-5.5288,-5.5137,-5.4888,-5.4571,-5.4521,-5.4581,-5.482,-5.5029,-5.5359,-5.5777,-5.6047,-5.6256,-5.6436,-5.6286,-5.6346,-5.6735,-5.6017,-5.5448,-5.5209,-5.4162,-5.3533,-5.3533,-5.1618,-5.0823,-5.1528,-4.9853,-4.8716,-4.8297,-4.7848,-4.7519,-4.7309,-4.7309,-4.7309,-4.7369,-4.8686,-4.9763,-5.0631,-5.1947,-5.2785,-5.3174,-5.3174,-5.3099,-5.3015,-5.4062,-5.479,-5.5179,-5.5179,-5.5179,-5.5119,-5.467,-5.3922,-5.3264,-5.3713,-5.2935,-5.2067,-5.2935,-5.2487,-5.1628,-5.1046,-5.1081,-5.1095,-5.0348,-5.0788,-5.1379,-5.1214,-5.1229,-5.1229,-5.1229,-5.1229,-5.1229,-5.1229,-5.1229,-5.1289,-5.1498,-5.1379,-5.1289,0.0,-5.1349,-5.1229,-5.1229,-5.1238,-5.1315,-5.1332,-5.2254,-5.2377,-5.1305,-5.2284,-5.2453,-5.1371,-5.1492,-5.1596,-5.1596,-5.1596,-5.1596,-5.1596,-5.1596,-5.1596,-5.1596,-5.1596,-5.1596,-5.1596,-5.1413,-5.1335,-5.1282,-5.0734,-5.0394,-5.0159,-4.9401,-4.8956,-4.8747,-4.8329,-4.8172,-4.8172,-4.8172,-4.8172,-4.8172,-5.5179,-5.5179,-5.5179,-5.5179,-5.5179,-5.5179,-5.5179,-5.4999,-5.5149,-5.6098,-5.5777,-5.5718,-5.6346,-5.5897,-5.5688,-5.6047,-5.5359,-5.488,-5.485,-5.4042,-5.3563,-5.3563,-5.2097,-5.1498,-5.1917,-4.9972,-4.8865,-4.867,-4.7758,-4.7309,-4.7309,-4.7309,-4.7309,-4.7339,-4.8177,-4.9553,-5.1289,-5.2127,-5.3025,-5.3892,-5.3892,-5.3516,-5.3103,-5.4649,-5.4678,-5.4069,-5.4899,-5.5179,-5.5179,-5.5179,-5.433,-5.3514,-5.4809,-5.3734,-5.2309,-5.4062,-5.3145,-5.1512,-5.1276,-5.1449,-5.1499,-5.0766,-5.1661,-5.2625,-5.2066,-5.1917,-5.1917,-5.1917,-5.1558,-5.1498,-5.2456,-5.1858,-5.1379,0.0,0.0,-5.1229,0.0,-5.1229,-5.1229,-5.1229,-5.1246,-5.1283,-5.1317,-5.2507,-5.2795,-5.1607,-5.272,-5.2929,-5.1695,-5.1596,-5.1596,-5.1596,-5.1596,-5.1596,-5.1596,-5.1596,-5.1596,-5.1596,-5.1596,-5.1596,-5.1596,-5.1596,-5.1596,-5.157,-5.123,-5.0969,-5.0734,-5.0002,-4.9453,-4.9035,-4.8643,-4.8381,-4.8172,-4.8172,-4.8172,-4.8172,-5.5179,-5.5179,-5.5179,-5.5179,-5.5179,-5.5179,-5.5179,-5.47,-5.476,-5.6017,-5.5119,-5.4581,-5.5209,-5.5807,-5.5658,-5.4431,-5.5418,-5.5598,-5.4341,-5.4221,-5.4221,-5.4251,-5.3533,-5.3144,-5.3174,-5.1199,-4.9883,-4.9299,-4.7967,-4.7309,-4.7309,-4.7309,-4.7309,-4.7309,-4.7309,-4.8775,-5.1229,-5.1229,-5.2755,-5.5179,-5.5179,-5.5149,-5.5039,-5.5179,-5.371,-5.2004,-5.4348,-5.5179,-5.5179,-5.5179,-5.4406,-5.3623,-5.4794,-5.4355,-5.3623,-5.4743,-5.4252,-5.2953,-5.124,-5.1281,-5.1618,-5.0972,-5.2301,-5.3604,-5.3367,-5.3264,-5.3264,-5.3264,-5.2276,-5.2157,-5.464,-5.3025,-5.1708,0.0,0.0,0.0,-5.1229,-5.1229,-5.1229,-5.1229,-5.1289,-5.1291,-5.1294,-5.2407,-5.2652,-5.1591,-5.2648,-5.2794,-5.1642,-5.1606,-5.1606,-5.1596,-5.1596,-5.1596,-5.1596,-5.1596,-5.1596,-5.1596,-5.1596,-5.1596,-5.1596,-5.1596,-5.1596,-5.1596,-5.1596,-5.1309,-5.0838,-5.0812,-5.0159,-4.9165,-4.9139,-4.8747,-4.8224,-4.8198,-4.8172,-4.8172,-5.5179,-5.5179,-5.5179,-5.5179,-5.5179,-5.5179,-5.5179,-5.5478,-5.5777,-5.6188,-5.6286,-5.6406,-5.6585,-5.6346,-5.6047,-5.5688,-5.5538,-5.5299,-5.497,-5.4491,-5.4431,-5.491,-5.3354,-5.2665,-5.3174,-5.078,-4.9434,-4.9299,-4.7967,-4.7309,-4.7309,-4.7309,-4.7309,-4.7309,-4.7309,-4.8775,-5.1229,-5.1229,-5.2755,-5.5179,-5.5179,-5.4179,-5.2797,-5.4538,-5.371,-5.2004,-5.4348,-5.5179,-5.5179,-5.5179,-5.4406,-5.3623,-5.4794,-5.4355,-5.3466,-5.3756,-5.3045,-5.1863,-5.0492,-5.0954,-5.1758,-5.1512,-5.3166,-5.4813,-5.4717,-5.467,-5.467,-5.467,-5.4401,-5.4072,-5.3743,-5.3144,-5.2456,-5.1828,-5.1439,-5.1229,-5.1229,-5.1229,-5.1229,-5.1229,-5.2067,-5.233,-5.1339,-5.1613,-5.1748,-5.1461,-5.1779,-5.188,-5.1606,-5.1554,-5.1535,-5.1632,-5.1596,-5.1596,-5.1596,-5.1596,-5.1596,-5.1596,-5.1596,-5.1596,-5.1596,-5.1596,-5.1596,-5.1596,-5.1596,-5.1518,-5.1361,-5.0943,-5.0629,-5.0315,-4.9845,-4.9348,-4.8799,-4.8355,-4.8172,-4.8347,-5.5119,-5.5179,-5.5179,-5.5179,-5.5418,-5.5628,-5.5628,-5.5179,-5.5179,-5.6098,-5.5718,-5.5598,-5.6196,-5.5957,-5.5748,-5.5748,-5.5418,-5.5059,-5.479,-5.467,-5.467,-5.476,-5.3952,-5.3683,-5.4042,-5.2085,-5.0737,-5.0122,-4.8805,-4.7878,-4.7309,-4.7309,-4.7309,-4.7309,-4.7309,-4.8446,-5.0451,-5.1588,-5.2935,-5.4371,-5.494,-5.4428,0.0,-5.4678,-5.4399,-5.3402,-5.4708,-5.5179,-5.5179,-5.5179,-5.4406,-5.3623,-5.4794,-5.4355,-5.3413,-5.3413,-5.2591,-5.1565,-5.0851,-5.1651,-5.2766,-5.3183,-5.5159,-5.6804,-5.6161,-5.6017,-5.6017,-5.6017,-5.5568,-5.5299,-5.5688,-5.4341,-5.2755,-5.1439,-5.1229,-5.1229,-5.1229,-5.1229,-5.1229,-5.1229,-5.1887,-5.2037,-5.1289,-5.2339,-5.2619,-5.1456,-5.1933,-5.1836,-5.0871,-5.1239,-5.1276,-5.09,-5.1866,-5.213,-5.1596,-5.213,-5.213,-5.1596,-5.1596,-5.1596,-5.1596,-5.1596,-5.1596,-5.1596,-5.1596,-5.1596,-5.157,-5.1256,-5.0995,-5.0734,-5.0132,-5.0406,-5.0914,-4.9244,-4.8732,-4.9045,-5.482,-5.494,-5.494,-5.494,-5.5478,-5.6008,-5.6068,-5.47,-5.4251,-5.5888,-5.461,-5.3982,-5.5059,-5.5179,-5.5179,-5.5179,-5.5179,-5.494,-5.4371,-5.488,-5.494,-5.4371,-5.488,-5.5179,-5.5179,-5.3862,-5.2546,-5.1229,-4.9912,-4.8596,-4.7309,-4.7309,-4.7309,-4.7309,-4.7309,-4.8147,-4.9719,-5.2127,-5.3294,-5.3533,-5.473,-5.5179,-5.5179,-5.5179,-5.5179,-5.5179,-5.5179,-5.5179,-5.5179,-5.5179,-5.4406,-5.3623,-5.4794,-5.4252,-5.3203,-5.3203,-5.2377,-5.1484,-5.1568,-5.263,-5.3923,-5.5008,-5.7118,-5.85,-5.7179,-5.7017,-5.7123,-5.7123,-5.6362,-5.6346,-5.8441,-5.5867,-5.3025,-5.1678,-5.1618,-5.1738,-5.1738,-5.1738,-5.1678,-5.1498,-5.1618,0.0,-5.1259,-5.3326,-5.3781,-5.1558,-5.2415,-5.2156,-5.0146,-5.0956,-5.1052,-5.0167,-5.215,-5.2719,-5.1596,-5.2719,-5.2719,-5.1596,-5.1596,-5.1596,-5.1596,-5.1596,-5.1596,-5.1596,-5.1596,-5.1596,-5.1596,-5.1596,-5.1433,-5.1145,-5.0696,-5.1855,-5.35,-5.0708,-5.0086,-5.0569,-5.3503,-5.3533,-5.3533,-5.3533,-5.4102,-5.473,-5.5269,-5.5957,-5.6166,-5.5448,-5.5538,-5.5538,-5.5209,-5.5179,-5.5179,-5.5179,-5.5179,-5.5149,-5.5029,-5.5119,-5.5149,-5.5029,-5.5119,-5.5179,-5.5179,-5.3862,-5.2546,-5.1229,-4.9912,-4.8596,-4.7309,-4.7309,-4.7309,-4.7309,-4.7309,-4.8626,-5.099,-5.2516,-5.3832,-5.485,-5.5089,-5.5179,-5.5179,-5.5179,-5.5179,-5.5179,-5.5179,-5.5179,-5.5179,-5.5179,-5.4406,-5.3623,-5.4794,-5.3704,-5.2,-5.2,-5.1127,-5.0348,-5.0896,-5.2321,-5.3867,-5.4516,-5.6076,-5.7214,-5.5966,-5.6475,-5.7146,-5.7146,-5.7853,-5.8231,-5.7573,-5.6017,-5.4401,-5.3054,-5.3773,-5.4491,-5.4491,-5.4491,-5.4072,-5.2965,-5.3832,-5.3623,-5.1439,-5.1699,-5.1795,-5.1385,-5.151,-5.1538,-5.1254,-5.1343,-5.138,-5.1292,-5.1741,-5.1846,-5.1596,-5.1846,-5.1846,-5.1596,-5.1596,-5.1596,-5.1596,-5.1596,-5.1596,-5.1596,-5.1596,-5.1596,-5.1596,-5.1596,-5.2139,-5.3052,-5.3554,-5.4001,-5.426,-5.3244,-5.3556,-5.413,-5.3174,-5.3174,-5.3294,-5.3653,-5.4281,-5.482,-5.5149,-5.6017,-5.6286,-5.5329,-5.5179,-5.5029,-5.473,-5.497,-5.5179,-5.5179,-5.5179,-5.5179,-5.5179,-5.5179,-5.5179,-5.5179,-5.5179,-5.5179,-5.5179,-5.4551,-5.3234,-5.1229,-5.0601,-4.9254,-4.7309,-4.7309,-4.7309,-4.7339,-4.8027,-4.9015,-5.0331,-5.2336,-5.3563,-5.4221,-5.491,-5.5179,-5.5179,-5.5179,-5.5179,-5.5179,-5.5179,-5.5179,-5.5179,-5.5179,-5.4794,-5.4458,-5.5027,-5.3993,-5.2591,-5.2591,-5.1729,-5.11,-5.235,-5.3607,-5.4734,-5.5279,-5.6331,-5.7018,-5.648,-5.6792,-5.7384,-5.8026,-5.8689,-5.868,-5.7334,-5.6047,-5.497,-5.4341,-5.4192,-5.4401,-5.5089,-5.5179,-5.494,-5.4311,-5.4162,-5.3653,-5.2366,-5.1628,-5.1523,-5.2249,-5.2279,-5.2082,-5.1653,-5.1461,-5.1172,-5.0716,-5.2581,-5.3268,-5.2596,-5.3268,-5.3268,-5.2596,-5.1882,-5.1596,-5.1596,-5.1596,-5.1596,-5.1659,-5.2315,-5.2596,-5.2658,-5.3329,-5.4323,-5.5385,-5.5104,-5.5738,-5.6638,-5.4799,-5.5271,-5.6437,-5.3114,-5.3084,-5.3234,-5.4072,-5.464,-5.497,-5.497,-5.5538,-5.5777,-5.5269,-5.473,-5.4431,-5.4431,-5.488,-5.5179,-5.5179,-5.5179,-5.5179,-5.5179,-5.5179,-5.5179,-5.5179,-5.5179,-5.5179,-5.5179,-5.5179,-5.4012,-5.1648,-5.1349,-5.0032,-4.7728,-4.7429,-4.7459,-4.7758,-4.885,-4.9629,-5.0288,-5.2354,-5.3354,-5.3713,-5.476,-5.5179,-5.5179,-5.5179,-5.5179,-5.5179,-5.5179,-5.5179,-5.5179,-5.5179,-5.5179,-5.5179,-5.5179,-5.4355,-5.3413,-5.3413,-5.2591,-5.2115,-5.4075,-5.5006,-5.5478,-5.5983,-5.6671,-5.7075,-5.6508,-5.6792,-5.7496,-5.8495,-5.8936,-5.868,-5.7334,-5.6496,-5.5927,-5.5628,-5.494,-5.482,-5.5867,-5.6017,-5.5927,-5.5628,-5.467,-5.3892,-5.3623,-5.2665,-5.2486,-5.3533,-5.3128,-5.2435,-5.1672,-5.1456,-5.1038,-5.0266,-5.3323,-5.4466,-5.3462,-5.4744,-5.4738,-5.351,-5.25,-5.1846,-5.1596,-5.1596,-5.1596,-5.1659,-5.2658,-5.3268,-5.3631,-5.515,-5.6366,-5.7131,-5.6423,-5.7358,-5.8822,-5.6386,-5.6657,-5.7981,-5.2935,-5.2695,-5.2695,-5.3982,-5.4251,-5.4311,-5.4311,-5.485,-5.5269,-5.5209,-5.5149,-5.5089,-5.5089,-5.5149,-5.5179,-5.5179,-5.5179,-5.5179,-5.5179,-5.5179,-5.5179,-5.5179,-5.5179,-5.5179,-5.5179,-5.5179,-5.4461,-5.2995,-5.1798,-5.0481,-4.912,-4.7878,-4.7938,-4.912,-4.9269,-5.0647,-5.2815,-5.3084,-5.3892,-5.4999,-5.5149,-5.5179,-5.5179,-5.5179,-5.5179,-5.5179,-5.5179,-5.5179,-5.5179,-5.5179,-5.5179,-5.5179,-5.5179,-5.4355,-5.3413,-5.3413,-5.2591,-5.2228,-5.4652,-5.5355,-5.5429,-5.548,-5.6366,-5.6622,-5.4355,-5.5588,-5.7243,-5.7384,-5.8331,-5.868,-5.7334,-5.7992,-5.8351,-5.7124,-5.7842,-5.859,-5.871,-5.874,-5.8291,-5.7064,-5.6795,-5.6286,-5.5119,-5.488,-5.488,-5.4999,-5.2805,-5.1483,-5.1455,-5.1401,-5.1376,-5.1341,-5.2787,-5.3527,-5.3414,-5.4706,-5.4738,-5.351,-5.3389,-5.2719,-5.1596,-5.1596,-5.1596,-5.1596,-5.1721,-5.2439,-5.3664,-5.605,-5.7075,-5.7328,-5.8331,-5.8882,-5.9099,-5.8793,-5.8817,-5.8919,-5.3773,-5.3593,-5.3563,-5.4132,-5.4221,-5.4341,-5.473,-5.5029,-5.5179,-5.5179,-5.5179,-5.5179,-5.5179,-5.5179,-5.5179,-5.5179,-5.5179,-5.5179,-5.5179,-5.5179,-5.5179,-5.5179,-5.5179,-5.5179,-5.5179,-5.5179,-5.4521,-5.3174,-5.1858,-5.0541,-4.9299,-4.876,-4.9164,-5.0481,-5.1259,-5.2187,-5.3234,-5.4042,-5.47,-5.5179,-5.5179,-5.5179,-5.5179,-5.5179,-5.5179,-5.5179,-5.5179,-5.5179,-5.5179,-5.5179,-5.5179,-5.5179,-5.5179,-5.4355,-5.3518,-5.4252,-5.3914,-5.3794,-5.5878,-5.6675,-5.6937,-5.6591,-5.6849,-5.6962,-5.5935,-5.6508,-5.744,-5.8166,-5.8743,-5.8949,-5.8411,-5.8082,-5.7992,-5.8261,-5.8082,-5.8171,-5.8979,-5.9099,-5.889,-5.8351,-5.7603,-5.6885,-5.6376,-5.5628,-5.5179,-5.5179,-5.4217,-5.3304,-5.2562,-5.328,-5.3413,-5.2648,-5.463,-5.5706,-5.5706,-5.6222,-5.5848,-5.4619,-5.3844,-5.2842,-5.1596,-5.1596,-5.2439,-5.3844,-5.3844,-5.5032,-5.6934,-5.7915,-5.8331,-5.8386,-5.8936,-5.9099,-5.9099,-5.9099,-5.9099,-5.9069,-5.479,-5.4491,-5.4341,-5.473,-5.464,-5.464,-5.5119,-5.5179,-5.5179,-5.5179,-5.5179,-5.5179,-5.5179,-5.5179,-5.5179,-5.5179,-5.5179,-5.5179,-5.5179,-5.5179,-5.5179,-5.5179,-5.5179,-5.5179,-5.5179,-5.5179,-5.473,-5.3773,-5.2456,-5.1319,-5.0467,-5.0032,-5.0541,-5.1828,-5.2755,-5.3414,-5.3832,-5.479,-5.5179,-5.5179,-5.5179,-5.5179,-5.5179,-5.5179,-5.5179,-5.5179,-5.5179,-5.5179,-5.5179,-5.5179,-5.5179,-5.5179,-5.5179,-5.4641,-5.4068,-5.4976,-5.5086,-5.5236,-5.6706,-5.7603,-5.794,-5.735,-5.7496,-5.7664,-5.7328,-5.7496,-5.8026,-5.8936,-5.9099,-5.9099,-5.9099,-5.8321,-5.7992,-5.8949,-5.8291,-5.8022,-5.8979,-5.9099,-5.8949,-5.856,-5.7663,-5.7094,-5.7094,-5.6286,-5.5748,-5.5748,-5.6107,-5.5619,-5.3994,-5.4811,-5.4892,-5.3978,-5.6061,-5.7163,-5.7163,-5.7544,-5.6934,-5.5412,-5.4501,-5.3389,-5.2192,-5.2562,-5.3664,-5.5412,-5.579,-5.6934,-5.858,-5.8936,-5.9099,-5.9099,-5.9099,-5.9099,-5.9099,-5.9099,-5.9099,-5.9099,-5.5948,-5.5089,-5.461,-5.5927,-5.5598,-5.5179,-5.5179,-5.5179,-5.5179,-5.5179,-5.5179,-5.5179,-5.5179,-5.5179,-5.5179,-5.5179,-5.5179,-5.5179,-5.5179,-5.5179,-5.5179,-5.5179,-5.5179,-5.5179,-5.5179,-5.5179,-5.5179,-5.5179,-5.3803,-5.3144,-5.3114,-5.1798,-5.1887,-5.3144,-5.3174,-5.3922,-5.5179,-5.5179,-5.5179,-5.5179,-5.5179,-5.5179,-5.5179,-5.5179,-5.5179,-5.5179,-5.5179,-5.5179,-5.5179,-5.5179,-5.5179,-5.5179,-5.5179,-5.5179,-5.5179,-5.5179,-5.5658,-5.6316,-5.6915,-5.7603,-5.794,-5.735,-5.8136,-5.8743,-5.7496,-5.8166,-5.9099,-5.9099,-5.9099,-5.9099,-5.9099,-5.9099,-5.9069,-5.9099,-5.9099,-5.9069,-5.9099,-5.9099,-5.862,-5.7274,-5.7094,-5.7094,-5.7094,-5.7094,-5.7064,-5.7064,-5.8291,-5.7986,-5.5387,-5.5275,-5.5304,-5.5304,-5.6462,-5.7124,-5.7124,-5.8441,-5.7833,-5.5412,-5.5412,-5.4679,-5.351,-5.4797,-5.5353,-5.547,-5.6622,-5.7216,-5.7328,-5.858,-5.9099,-5.9099,-5.9099,-5.9099,-5.9099,-5.9099,-5.9099,-5.9099,-5.6256,-5.5837,-5.5538,-5.5508,-5.5329,-5.5179,-5.5179,-5.5179,-5.5179,-5.5179,-5.5179,-5.5179,-5.5179,-5.5179,-5.5179,-5.5179,-5.5179,-5.5179,-5.5179,-5.5179,-5.5179,-5.5179,-5.5179,-5.5179,-5.5179,-5.5179,-5.5179,-5.5179,-5.3832,-5.3174,-5.3174,-5.2755,-5.3264,-5.4551,-5.4551,-5.479,-5.5179,-5.5179,-5.5179,-5.5179,-5.5179,-5.5179,-5.5179,-5.5179,-5.5179,-5.5179,-5.5179,-5.5179,-5.5179,-5.5179,-5.5179,-5.5179,-5.5179,-5.5179,-5.5179,-5.5179,-5.5957,-5.6855,-5.7034,-5.7932,-5.8722,-5.852,-5.8798,-5.8991,-5.858,-5.8798,-5.9099,-5.9099,-5.9099,-5.9099,-5.9099,-5.9099,-5.9099,-5.9099,-5.9099,-5.9099,-5.9099,-5.9099,-5.8949,-5.8501,-5.8471,-5.8471,-5.8471,-5.8471,-5.8082,-5.7154,-5.7483,-5.6997,-5.5323,-5.6954,-5.7487,-5.6568,-5.7779,-5.8471,-5.8471,-5.889,-5.8276,-5.6651,-5.6651,-5.5993,-5.4797,-5.5208,-5.5848,-5.6622,-5.7018,-5.7664,-5.8495,-5.8936,-5.9099,-5.9099,-5.9099,-5.9099,-5.9099,-5.9099,-5.9099,-5.9099,-5.6346,-5.5987,-5.5658,-5.5269,-5.5179,-5.5179,-5.5179,-5.5179,-5.5179,-5.5179,-5.5179,-5.5179,-5.5179,-5.5179,-5.5179,-5.5179,-5.5179,-5.5179,-5.5179,-5.5179,-5.5179,-5.5179,-5.5179,-5.5179,-5.5179,-5.5179,-5.5179,-5.5179,-5.4341,-5.3922,-5.3922,-5.3922,-5.4401,-5.5179,-5.5179,-5.5179,-5.5179,-5.5179,-5.5179,-5.5179,-5.5179,-5.5179,-5.5179,-5.5179,-5.5179,-5.5179,-5.5179,-5.5179,-5.5179,-5.5179,-5.5179,-5.5179,-5.5179,-5.5359,-5.5568,-5.5568,-5.6286,-5.7154,-5.7423,-5.8261,-5.9099,-5.9099,-5.9099,-5.9099,-5.9099,-5.9099,-5.9099,-5.9099,-5.9099,-5.9099,-5.9099,-5.9099,-5.9099,-5.9099,-5.9099,-5.9099,-5.9099,-5.9099,-5.8919,-5.8411,-5.8351,-5.8351,-5.8351,-5.8351,-5.8201,-5.7872,-5.7842,-5.7513,-5.6705,-5.7723,-5.8201,-5.7872,-5.865,-5.9099,-5.9099,-5.9099,-5.844,-5.7187,-5.7187,-5.6821,-5.6079,-5.6537,-5.7189,-5.7915,-5.7915,-5.8386,-5.9099,-5.9099,-5.9099,-5.9099,-5.9099,-5.9099,-5.9099,-5.9099,-5.9099,-5.9099,-5.6158,-5.5598,-5.5179,-5.5179,-5.5179,-5.5179,-5.5179,-5.5179,-5.5179,-5.5179,-5.5179,-5.5179,-5.5179,-5.5179,-5.5179,-5.5179,-5.5179,-5.5179,-5.5179,-5.5179,-5.5179,-5.5179,-5.5179,-5.5179,-5.5179,-5.5179,-5.5179,-5.5179,-5.5179,-5.5179,-5.5179,-5.5179,-5.5179,-5.5179,-5.5179,-5.5179,-5.5179,-5.5179,-5.5179,-5.5179,-5.5179,-5.5179,-5.5179,-5.5179,-5.5179,-5.5179,-5.5179,-5.5209,-5.5269,-5.5269,-5.5299,-5.5329,-5.5329,-5.5748,-5.6226,-5.6248,-5.6645,-5.7304,-5.7962,-5.859,-5.9099,-5.9099,-5.9099,-5.9099,-5.9099,-5.9099,-5.9099,-5.9099,-5.9099,-5.9099,-5.9099,-5.9099,-5.9099,-5.9099,-5.9099,-5.9099,-5.9099,-5.9099,-5.865,-5.7393,-5.7244,-5.7244,-5.7244,-5.7244,-5.7723,-5.889,-5.8949,-5.8949,-5.8949,-5.7782,-5.7723,-5.9069,-5.9099,-5.9099,-5.9099,-5.9099,-5.8495,-5.7328,-5.7328,-5.7328,-5.7384,-5.858,-5.9099,-5.9099,-5.9099,-5.9099,-5.9099,-5.9099,-5.9099,-5.9099,-5.9099,-5.9099,-5.9099,-5.9099,-5.9099,-5.9099,-5.5538,-5.5299,-5.5179,-5.5179,-5.5179,-5.5179,-5.5179,-5.5179,-5.5179,-5.5179,-5.5179,-5.5179,-5.5179,-5.5179,-5.5179,-5.5179,-5.5179,-5.5179,-5.5179,-5.5179,-5.5179,-5.5179,-5.5179,-5.5179,-5.5179,-5.5179,-5.5179,-5.5179,-5.5179,-5.5179,-5.5179,-5.5179,-5.5179,-5.5179,-5.5179,-5.5179,-5.5179,-5.5179,-5.5179,-5.5179,-5.5179,-5.5179,-5.5179,-5.5179,-5.5179,-5.5179,-5.5179,-5.5508,-5.5927,-5.5927,-5.6256,-5.6645,-5.6645,-5.6765,-5.6795,-5.6368,-5.6974,-5.7932,-5.8082,-5.859,-5.9099,-5.9099,-5.9099,-5.9099,-5.9099,-5.9099,-5.9099,-5.9099,-5.9099,-5.9099,-5.9099,-5.9099,-5.9099,-5.9099,-5.9099,-5.9099,-5.9099,-5.9099,-5.8979,-5.865,-5.862,-5.862,-5.862,-5.862,-5.8321,-5.7633,-5.7573,-5.7573,-5.7573,-5.7274,-5.7723,-5.9069,-5.9099,-5.9099,-5.9099,-5.9099,-5.8936,-5.8634,-5.8634,-5.8634,-5.8689,-5.8991,-5.9099,-5.9099,-5.9099,-5.9099,-5.9099,-5.9099,-5.9099,-5.9099,-5.9099,-5.9099,-5.9099,-5.9099,-5.9099,-5.9099,-5.5319,-5.5179,-5.5179,-5.5179,-5.5179,-5.5179,-5.5179,-5.5179,-5.5179,-5.5179,-5.5179,-5.5179,-5.5179,-5.5179,-5.5179,-5.5179,-5.5179,-5.5179,-5.5179,-5.5179,-5.5179,-5.5179,-5.5179,-5.5179,-5.5179,-5.5179,-5.5179,-5.5179,-5.5179,-5.5179,-5.5179,-5.5179,-5.5179,-5.5179,-5.5179,-5.5179,-5.5179,-5.5179,-5.5179,-5.5179,-5.5179,-5.5179,-5.5179,-5.5179,-5.5388,-5.5658,-5.5658,-5.6047,-5.6585,-5.6585,-5.6825,-5.7094,-5.7094,-5.7304,-5.7483,-5.7154,-5.7573,-5.8201,-5.8501,-5.883,-5.9099,-5.9099,-5.9099,-5.9099,-5.9099,-5.9099,-5.9099,-5.9099,-5.9099,-5.9099,-5.9099,-5.9099,-5.9099,-5.9099,-5.859,-5.8411,-5.9009,-5.856,-5.8411,-5.9039,-5.9099,-5.9099,-5.9099,-5.9099,-5.88,-5.8082,-5.8022,-5.8022,-5.8022,-5.8022,-5.8351,-5.9069,-5.9099,-5.9099,-5.9099,-5.9099,-5.9099,-5.9099,-5.9099,-5.9099,-5.9099,-5.9099,-5.9099,-5.9099,-5.9099,-5.9099,-5.9099,-5.9099,-5.9099,-5.9099,-5.9099,-5.9099,-5.9099,-5.9099,-5.9099,-5.9099,-5.528,-5.5229,-5.5229,-5.5179,-5.5179,-5.5179,-5.5179,-5.5179,-5.5179,-5.5179,-5.5179,-5.5179,-5.5179,-5.5179,-5.5179,-5.5179,-5.5179,-5.5179,-5.5179,-5.5179,-5.5179,-5.5179,-5.5179,-5.5179,-5.5179,-5.5179,-5.5179,-5.5179,-5.5179,-5.5179,-5.5179,-5.5179,-5.5179,-5.5179,-5.5179,-5.5179,-5.5179,-5.5179,-5.5179,-5.5179,-5.5179,-5.5179,-5.5209,-5.5299,-5.5688,-5.6248,-5.6286,-5.6705,-5.7244,-5.7244,-5.7304,-5.7393,-5.7393,-5.7812,-5.8261,-5.8261,-5.8261,-5.8411,-5.8949,-5.9099,-5.9099,-5.9099,-5.9099,-5.9099,-5.9099,-5.9099,-5.9099,-5.9099,-5.9099,-5.9099,-5.9099,-5.9099,-5.9039,-5.883,-5.8022,-5.7723,-5.868,-5.7992,-5.7812,-5.8949,-5.9099,-5.9099,-5.9099,-5.9099,-5.9099,-5.9099,-5.9099,-5.9099,-5.9099,-5.9099,-5.9099,-5.9099,-5.9099,-5.9099,-5.9099,-5.9099,-5.9099,-5.9099,-5.9099,-5.9099,-5.9099,-5.9099,-5.9099,-5.9099,-5.9099,-5.9099,-5.9099,-5.9099,-5.9099,-5.9099,-5.9099,-5.9099,-5.9099,-5.9099,-5.9099,-5.9099,-5.5581,-5.5531,-5.5481,-5.5229,-5.5179,-5.5179,-5.5179,-5.5179,-5.5179,-5.5179,-5.5179,-5.5179,-5.5179,-5.5179,-5.5179,-5.5179,-5.5179,-5.5179,-5.5179,-5.5179,-5.5179,-5.5179,-5.5179,-5.5179,-5.5179,-5.5179,-5.5179,-5.5179,-5.5179,-5.5179,-5.5179,-5.5179,-5.5179,-5.5179,-5.5179,-5.5179,-5.5179,-5.5179,-5.5179,-5.5179,-5.5179,-5.5179,-5.5239,-5.5807,-5.6077,-5.6308,-5.6765,-5.7393,-5.7962,-5.7962,-5.8321,-5.88,-5.88,-5.886,-5.8949,-5.8949,-5.8949,-5.8979,-5.9069,-5.9099,-5.9099,-5.9099,-5.9099,-5.9099,-5.9099,-5.9099,-5.9099,-5.9099,-5.9099,-5.9099,-5.9099,-5.9099,-5.874,-5.7603,-5.8171,-5.8471,-5.7543,-5.8201,-5.886,-5.9069,-5.9099,-5.9099,-5.9099,-5.9099,-5.9099,-5.9099,-5.9099,-5.9099,-5.9099,-5.9099,-5.9099,-5.9099,-5.9099,-5.9099,-5.9099,-5.9099,-5.9099,-5.9099,-5.9099,-5.9099,-5.9099,-5.9099,-5.9099,-5.9099,-5.9099,-5.9099,-5.9099,-5.9099,-5.9099,-5.9099,-5.9099,-5.9099,-5.9099,-5.9099,-5.9099,-5.9099,-5.588,-5.583,-5.578,-5.5631,-5.5631,-5.5581,-5.5431,-5.5431,-5.533,-5.5229,-5.5179,-5.5179,-5.5179,-5.5179,-5.5179,-5.5179,-5.5179,-5.5179,-5.5179,-5.5179,-5.5179,-5.5179,-5.5179,-5.5179,-5.5179,-5.5179,-5.5179,-5.5179,-5.5179,-5.5179,-5.5179,-5.5179,-5.5179,-5.5179,-5.5179,-5.5179,-5.5179,-5.5179,-5.5179,-5.5179,-5.5179,-5.5418,-5.5748,-5.6047,-5.6615,-5.7274,-5.7543,-5.8082,-5.865,-5.865,-5.886,-5.9099,-5.9099,-5.9099,-5.9099,-5.9099,-5.9099,-5.9099,-5.9099,-5.9099,-5.9099,-5.9099,-5.9099,-5.9099,-5.9099,-5.9099,-5.9099,-5.9099,-5.9099,-5.9099,-5.9099,-5.9099,-5.889,-5.8291,-5.8082,-5.8052,-5.8171,-5.8082,-5.8291,-5.9009,-5.9099,-5.9099,-5.9099,-5.9099,-5.9099,-5.9099,-5.9099,-5.9099,-5.9099,-5.9099,-5.9099,-5.9099,-5.9099,-5.9099,-5.9099,-5.9099,-5.9099,-5.9099,-5.9099,-5.9099,-5.9099,-5.9099,-5.9099,-5.9099,-5.9099,-5.9099,-5.9099,-5.9099,-5.9099,-5.9099,-5.9099,-5.9099,-5.9099,-5.9099,-5.9099,-5.9099,-5.6157,-5.6077,-5.6077,-5.6028,-5.5979,-5.5929,-5.5731,-5.5681,-5.5631,-5.5431,-5.5381,-5.5381,-5.5381,-5.5381,-5.5381,-5.5381,-5.533,-5.528,-5.528,-5.5229,-5.5179,-5.5179,-5.5179,-5.5179,-5.5179,-5.5179,-5.5179,-5.5179,-5.5179,-5.5179,-5.5179,-5.5179,-5.5179,-5.5179,-5.5179,-5.5179,-5.5179,-5.5179,-5.5179,-5.5209,-5.5359,-5.5718,-5.6248,-5.6496,-5.7244,-5.8141,-5.8291,-5.868,-5.9099,-5.9099,-5.9099,-5.9099,-5.9099,-5.9099,-5.9099,-5.9099,-5.9099,-5.9099,-5.9099,-5.9099,-5.9099,-5.9099,-5.9099,-5.9099,-5.9099,-5.9099,-5.9099,-5.9099,-5.9099,-5.9099,-5.9099,-5.9099,-5.9009,-5.868,-5.8022,-5.7812,-5.853,-5.8022,-5.7962,-5.8979,-5.9099,-5.9099,-5.9099,-5.9099,-5.9099,-5.9099,-5.9099,-5.9099,-5.9099,-5.9099,-5.9099,-5.9099,-5.9099,-5.9099,-5.9099,-5.9099,-5.9099,-5.9099,-5.9099,-5.9099,-5.9099,-5.9099,-5.9099,-5.9099,-5.9099,-5.9099,-5.9099,-5.9099,-5.9099,-5.9099,-5.9099,-5.9099,-5.9099,-5.9099,-5.9099,-5.9099,-5.6543,-5.6372,-5.6274,-5.6028,-5.5979,-5.5979,-5.5979,-5.5979,-5.5979,-5.5929,-5.5929,-5.5929,-5.5929,-5.5929,-5.5929,-5.5929,-5.5731,-5.5581,-5.5581,-5.533,-5.5179,-5.5179,-5.5179,-5.5179,-5.5179,-5.5179,-5.5179,-5.5179,-5.5179,-5.5179,-5.5179,-5.5179,-5.5179,-5.5179,-5.5179,-5.5179,-5.5179,-5.5179,-5.5179,-5.5239,-5.5867,-5.6188,-5.6316,-5.7513,-5.8052,-5.8201,-5.88,-5.9069,-5.9099,-5.9099,-5.9099,-5.9099,-5.9099,-5.9099,-5.9099,-5.9099,-5.9099,-5.9099,-5.9099,-5.9099,-5.9099,-5.9099,-5.9099,-5.9099,-5.9099,-5.9099,-5.9099,-5.9099,-5.9099,-5.9099,-5.9099,-5.9099,-5.868,-5.7453,-5.8201,-5.856,-5.7393,-5.8231,-5.9009,-5.9099,-5.9099,-5.9099,-5.9099,-5.9099,-5.9099,-5.9099,-5.9099,-5.9099,-5.9099,-5.9099,-5.9099,-5.9099,-5.9099,-5.9099,-5.9099,-5.9099,-5.9099,-5.9099,-5.9099,-5.9099,-5.9099,-5.9099,-5.9099,-5.9099,-5.9099,-5.9099,-5.9099,-5.9099,-5.9099,-5.9099,-5.9099,-5.9099,-5.9099,-5.9099,-5.9099,-5.9099,-5.734,-5.6941,-5.6616,-5.6519,-5.6519,-5.6421,-5.6274,-5.6274,-5.6176,-5.6028,-5.5979,-5.5979,-5.5979,-5.5979,-5.5979,-5.5979,-5.5929,-5.583,-5.583,-5.5731,-5.5531,-5.5179,-5.5179,-5.5179,-5.5179,-5.5179,-5.5179,-5.5179,-5.5179,-5.5179,-5.5179,-5.5179,-5.5179,-5.5179,-5.5179,-5.5179,-5.5179,-5.5179,-5.5418,-5.5807,-5.6128,-5.6645,-5.7423,-5.7932,-5.8381,-5.877,-5.9009,-5.9099,-5.9099,-5.9099,-5.9099,-5.9099,-5.9099,-5.9099,-5.9099,-5.9099,-5.9099,-5.9099,-5.9099,-5.9099,-5.9099,-5.9099,-5.9099,-5.9099,-5.9099,-5.9099,-5.9099,-5.9099,-5.9099,-5.9099,-5.9099,-5.9099,-5.8949,-5.8411,-5.877,-5.8919,-5.8411,-5.877,-5.9099,-5.9099,-5.9099,-5.9099,-5.9099,-5.9099,-5.9099,-5.9099,-5.9099,-5.9099,-5.9099,-5.9099,-5.9099,-5.9099,-5.9099,-5.9099,-5.9099,-5.9099,-5.9099,-5.9099,-5.9099,-5.9099,-5.9099,-5.9099,-5.9099,-5.9099,-5.9099,-5.9099,-5.9099,-5.9099,-5.9099,-5.9099,-5.9099,-5.9099,-5.9099,-5.9099,-5.9099,-5.9099,-5.7857,-5.7272,-5.681,-5.681,-5.681,-5.6761,-5.6567,-5.6519,-5.647,-5.6274,-5.6274,-5.6274,-5.6274,-5.6274,-5.6274,-5.6274,-5.6176,-5.6127,-5.6127,-5.6028,-5.583,-5.5481,-5.5431,-5.5381,-5.533,-5.533,-5.528,-5.5179,-5.5179,-5.5179,-5.5179,-5.5179,-5.5179,-5.5179,-5.5179,-5.5179,-5.5209,-5.5418,-5.5748,-5.6248,-5.6615,-5.7334,-5.8141,-5.8351,-5.871,-5.9099,-5.9099,-5.9099,-5.9099,-5.9099,-5.9099,-5.9099,-5.9099,-5.9099,-5.9099,-5.9099,-5.9099,-5.9099,-5.9099,-5.9099,-5.9099,-5.9099,-5.9099,-5.9099,-5.9099,-5.9099,-5.9099,-5.9099,-5.9099,-5.9099,-5.9099,-5.9099,-5.9099,-5.9099,-5.9099,-5.9099,-5.9099,-5.9099,-5.9099,-5.9099,-5.9099,-5.9099,-5.9099,-5.9099,-5.9099,-5.9099,-5.9099,-5.9099,-5.9099,-5.9099,-5.9099,-5.9099,-5.9099,-5.9099,-5.9099,-5.9099,-5.9099,-5.9099,-5.9099,-5.9099,-5.9099,-5.9099,-5.9099,-5.9099,-5.9099,-5.9099,-5.9099,-5.9099,-5.9099,-5.9099,-5.9099,-5.9099,-5.9099,-5.9099,-5.9099,-5.9099,-5.7949,-5.7272,-5.681,-5.681,-5.681,-5.681,-5.681,-5.681,-5.681,-5.681,-5.681,-5.681,-5.681,-5.681,-5.681,-5.681,-5.6567,-5.6421,-5.6421,-5.6176,-5.6028,-5.6028,-5.5979,-5.588,-5.5631,-5.5581,-5.5481,-5.5179,-5.5179,-5.5179,-5.5179,-5.5179,-5.5179,-5.5179,-5.5179,-5.5179,-5.5239,-5.5948,-5.6248,-5.6368,-5.7603,-5.8112,-5.8201,-5.886,-5.9099,-5.9099,-5.9099,-5.9099,-5.9099,-5.9099,-5.9099,-5.9099,-5.9099,-5.9099,-5.9099,-5.9099,-5.9099,-5.9099,-5.9099,-5.9099,-5.9099,-5.9099,-5.9099,-5.9099,-5.9099,-5.9099,-5.9099,-5.9099,-5.9099,-5.9099,-5.9099,-5.9099,-5.9099,-5.9099,-5.9099,-5.9099,-5.9099,-5.9099,-5.9099,-5.9099,-5.9099,-5.9099,-5.9099,-5.9099,-5.9099,-5.9099,-5.9099,-5.9099,-5.9099,-5.9099,-5.9099,-5.9099,-5.9099,-5.9099,-5.9099,-5.9099,-5.9099,-5.9099,-5.9099,-5.9099,-5.9099,-5.9099,-5.9099,-5.9099,-5.9099,-5.9099,-5.9099,-5.9099,-5.9099,-5.9099,-5.9099,-5.9099,-5.9099,-5.9099,-5.9099,-5.9099,-5.8608,-5.798,-5.7364,-5.6902,-5.681,-5.681,-5.681,-5.681,-5.681,-5.681,-5.681,-5.681,-5.681,-5.681,-5.681,-5.681,-5.6713,-5.6664,-5.6664,-5.6616,-5.6567,-5.6567,-5.6225,-5.5979,-5.588,-5.588,-5.583,-5.578,-5.578,-5.5681,-5.5481,-5.5481,-5.5381,-5.5179,-5.5179,-5.5448,-5.5897,-5.6128,-5.6705,-5.7573,-5.7962,-5.8411,-5.883,-5.9039,-5.9099,-5.9099,-5.9099,-5.9099,-5.9099,-5.9099,-5.9099,-5.9099,-5.9099,-5.9099,-5.9099,-5.9099,-5.9099,-5.9099,-5.9099,-5.9099,-5.9099,-5.9099,-5.9099,-5.9099,-5.9099,-5.9099,-5.9099,-5.9099,-5.9099,-5.9099,-5.9099,-5.9099,-5.9099,-5.9099,-5.9099,-5.9099,-5.9099,-5.9099,-5.9099,-5.9099,-5.9099,-5.9099,-5.9099,-5.9099,-5.9099,-5.9099,-5.9099,-5.9099,-5.9099,-5.9099,-5.9099,-5.9099,-5.9099,-5.9099,-5.9099,-5.9099,-5.9099,-5.9099,-5.9099,-5.9099,-5.9099,-5.9099,-5.9099,-5.9099,-5.9099,-5.9099,-5.9099,-5.9099,-5.9099,-5.9099,-5.9099,-5.9099,-5.9099,-5.9099,-5.9099,-5.9099,-5.9255,-5.8423,-5.7703,-5.7272,-5.6994,-5.681,-5.681,-5.681,-5.681,-5.681,-5.681,-5.681,-5.681,-5.681,-5.681,-5.681,-5.681,-5.681,-5.681,-5.681,-5.681,-5.681,-5.647,-5.6274,-5.6176,-5.6176,-5.6127,-5.5979,-5.5979,-5.5929,-5.578,-5.578,-5.5832,-5.5922,-5.5922,-5.6284,-5.6946,-5.7114,-5.7581,-5.8331,-5.8464,-5.874,-5.9099,-5.9099,-5.9099,-5.9099,-5.9099,-5.9099,-5.9099,-5.9099,-5.9099,-5.9099,-5.9099,-5.9099,-5.9099,-5.9099,-5.9099,-5.9099,-5.9099,-5.9099,-5.9099,-5.9099,-5.9099,-5.9099,-5.9099,-5.9099,-5.9099,-5.9099,-5.9099,-5.9099,-5.9099,-5.9099,-5.9099,-5.9099,-5.9099,-5.9099,-5.9099,-5.9099,-5.9099,-5.9099,-5.9099,-5.9099,-5.9099,-5.9099,-5.9099,-5.9099,-5.9099,-5.9099,-5.9099,-5.9099,-5.9099,-5.9099,-5.9099,-5.9099,-5.9099,-5.9099,-5.9099,-5.9099,-5.9099,-5.9099,-5.9099,-5.9099,-5.9099,-5.9099,-5.9099,-5.9099,-5.9099,-5.9099,-5.9099,-5.9099,-5.9099,-5.9099,-5.9099,-5.9099,-5.9099,-5.9099,-5.9809,-5.8793,-5.7949,-5.7857,-5.7303,-5.6871,-5.681,-5.681,-5.681,-5.681,-5.681,-5.681,-5.681,-5.681,-5.681,-5.681,-5.681,-5.681,-5.681,-5.681,-5.681,-5.681,-5.681,-5.6713,-5.6421,-5.6421,-5.6323,-5.6077,-5.6077,-5.6077,-5.6028,-5.6089,-5.6453,-5.7031,-5.7092,-5.7487,-5.8104,-5.8481,-5.8678,-5.8746,-5.9021,-5.9099,-5.9099,-5.9099,-5.9099,-5.9099,-5.9099,-5.9099,-5.9099,-5.9099,-5.9099,-5.9099,-5.9099,-5.9099,-5.9099,-5.9099,-5.9099,-5.9099,-5.9099,-5.9099,-5.9099,-5.9099,-5.9099,-5.9099,-5.9099,-5.9099,-5.9099,-5.9099,-5.9099,-5.9099,-5.9099,-5.9099,-5.9099,-5.9099,-5.9099,-5.9099,-5.9099,-5.9099,-5.9099,-5.9099,-5.9099,-5.9099,-5.9099,-5.9099,-5.9099,-5.9099,-5.9099,-5.9099,-5.9099,-5.9099,-5.9099,-5.9099,-5.9099,-5.9099,-5.9099,-5.9099,-5.9099,-5.9099,-5.9099,-5.9099,-5.9099,-5.9099,-5.9099,-5.9099,-5.9099,-5.9099,-5.9099,-5.9099,-5.9099,-5.9099,-5.9099,-5.9099,-5.9099,-5.9099,-5.9099,-5.9099,-5.9901,-5.9562,-5.9008,-5.7962,-5.7703,-5.7426,-5.6902,-5.681,-5.681,-5.681,-5.681,-5.681,-5.681,-5.681,-5.681,-5.681,-5.681,-5.681,-5.681,-5.681,-5.681,-5.681,-5.681,-5.6761,-5.6713,-5.6713,-5.6664,-5.6616,-5.6616,-5.6519,-5.6323,-5.6873,-5.7079,-5.7031,-5.7578,-5.8185,-5.8823,-5.8871,-5.9047,-5.9349,-5.9362,-5.9261,-5.9099,-5.9099,-5.9099,-5.9099,-5.9099,-5.9099,-5.9099,-5.9099,-5.9099,-5.9099,-5.9099,-5.9099,-5.9099,-5.9099,-5.9099,-5.9099,-5.9099,-5.9099,-5.9099,-5.9099,-5.9099,-5.9099,-5.9099,-5.9099,-5.9099,-5.9099,-5.9099,-5.9099,-5.9099,-5.9099,-5.9099,-5.9099,-5.9099,-5.9099,-5.9099,-5.9099,-5.9099,-5.9099,-5.9099,-5.9099,-5.9099,-5.9099,-5.9099,-5.9099,-5.9099,-5.9099,-5.9099,-5.9099,-5.9099,-5.9099,-5.9099,-5.9099,-5.9099,-5.9099,-5.9099,-5.9099,-5.9099,-5.9099,-5.9099,-5.9099,-5.9099,-5.9099,-5.9099,-5.9099,-5.9099,-5.9099,-5.9099,-5.9099,-5.9099,-5.9099,-5.9099,-5.9099,-5.9099,-5.9099,-6.0332,-6.0024,-5.9562,-5.8854,-5.8258,-5.7703,-5.7333,-5.7025,-5.681,-5.681,-5.681,-5.681,-5.681,-5.681,-5.681,-5.681,-5.681,-5.681,-5.681,-5.681,-5.681,-5.681,-5.681,-5.681,-5.681,-5.7118,-5.7148,-5.681,-5.7148,-5.7205,-5.7058,-5.7733,-5.8174,-5.8329,-5.8695,-5.9215,-5.9857,-5.9701,-5.981,-5.9902,-5.9796,-5.9667,-5.956,-5.956,-5.956,-5.956,-5.956,-5.9452,-5.9315,-5.9315,-5.9207,-5.9099,-5.9099,-5.9099,-5.9099,-5.9099,-5.9099,-5.9099,-5.9099,-5.9099,-5.9099,-5.9099,-5.9099,-5.9099,-5.9099,-5.9099,-5.9099,-5.9099,-5.9099,-5.9099,-5.9099,-5.9099,-5.9099,-5.9099,-5.9099,-5.9099,-5.9099,-5.9099,-5.9099,-5.9099,-5.9099,-5.9099,-5.9099,-5.9099,-5.9099,-5.9099,-5.9099,-5.9099,-5.9099,-5.9099,-5.9099,-5.9099,-5.9099,-5.9099,-5.9099,-5.9099,-5.9099,-5.9099,-5.9099,-5.9099,-5.9099,-5.9099,-5.9099,-5.9099,-5.9099,-5.9099,-5.9099,-5.9099,-5.9099,-5.9099,-5.9099,-5.9099,-5.9099,-5.9099,-5.9099,-5.9099,-6.0794,-6.0332,-5.9932,-5.9809,-5.8854,-5.8134,-5.8011,-5.7426,-5.6994,-5.6994,-5.6871,-5.681,-5.681,-5.681,-5.681,-5.681,-5.681,-5.681,-5.681,-5.681,-5.6871,-5.6994,-5.6994,-5.7025,-5.7148,-5.7703,-5.7672,-5.6994,-5.7672,-5.798,-5.8011,-5.8639,-5.9255,-5.9809,-5.9901,-6.027,-6.0794,-6.0534,-6.0429,-6.0377,-6.0144,-6.0069,-6.0016,-6.0016,-6.0016,-6.0016,-6.0016,-5.9827,-5.9583,-5.9529,-5.9369,-5.9207,-5.9207,-5.9207,-5.9207,-5.9207,-5.9153,-5.9153,-5.9099,-5.9099,-5.9099,-5.9099,-5.9099,-5.9099,-5.9099,-5.9099,-5.9099,-5.9099,-5.9099,-5.9099,-5.9099,-5.9099,-5.9099,-5.9099,-5.9099,-5.9099,-5.9099,-5.9099,-5.9099,-5.9099,-5.9099,-5.9099,-5.9099,-5.9099,-5.9099,-5.9099,-5.9099,-5.9099,-5.9099,-5.9099,-5.9099,-5.9099,-5.9099,-5.9099,-5.9099,-5.9099,-5.9099,-5.9099,-5.9099,-5.9099,-5.9099,-5.9099,-5.9099,-5.9099,-5.9099,-5.9099,-5.9099,-5.9099,-5.9099,-5.9099,-5.9099,-5.9099,-5.9099,-5.9099,-5.9099,-5.9099,-6.0794,-6.0732,-6.0486,-5.9901,-5.9624,-5.9316,-5.8731,-5.8134,-5.7672,-5.7672,-5.7179,-5.681,-5.681,-5.681,-5.681,-5.681,-5.681,-5.681,-5.681,-5.681,-5.7087,-5.7672,-5.7672,-5.7949,-5.8485,-5.8608,-5.83,-5.7672,-5.83,-5.8639,-5.867,-5.9347,-5.9686,-5.9809,-6.0393,-6.0701,-6.0794,-6.0742,-6.0586,-6.0377,-6.0377,-6.0197,-6.0016,-6.0016,-6.0016,-6.0016,-6.0016,-5.9963,-5.988,-5.9583,-5.9667,-5.9827,-5.9529,-5.9667,-5.9827,-5.9529,-5.9476,-5.9422,-5.9153,-5.9099,-5.9099,-5.9099,-5.9099,-5.9099,-5.9099,-5.9099,-5.9099,-5.9099,-5.9099,-5.9099,-5.9099,-5.9099,-5.9099,-5.9099,-5.9099,-5.9099,-5.9099,-5.9099,-5.9099,-5.9099,-5.9099,-5.9099,-5.9099,-5.9099,-5.9099,-5.9099,-5.9099,-5.9099,-5.9099,-5.9099,-5.9099,-5.9099,-5.9099,-5.9099,-5.9099,-5.9099,-5.9099,-5.9099,-5.9099,-5.9099,-5.9099,-5.9099,-5.9099,-5.9099,-5.9099,-5.9099,-5.9099,-5.9099,-5.9099,-5.9099,-5.9099,-5.9099,-5.9099,-5.9099,-5.9099,-5.9099,-6.0794,-6.0794,-6.0701,-6.0393,-6.0055,-5.9686,-5.9378,-5.8762,-5.8331,-5.8331,-5.8134,-5.7795,-5.7426,-5.7025,-5.6964,-5.7333,-5.7364,-5.7549,-5.7919,-5.7949,-5.8073,-5.8331,-5.8331,-5.8485,-5.8762,-5.9162,-5.9193,-5.8885,-5.9193,-5.9347,-5.9347,-6.0024,-6.0363,-6.0363,-6.0671,-6.0794,-6.0794,-6.0794,-6.0742,-6.0638,-6.0638,-6.0534,-6.046,-6.046,-6.046,-6.046,-6.046,-6.0355,-6.0197,-6.0061,-5.9986,-5.9963,-5.9827,-5.988,-5.9963,-5.9827,-5.9773,-5.972,-5.9422,-5.9315,-5.9261,-5.9153,-5.9099,-5.9099,-5.9099,-5.9099,-5.9099,-5.9099,-5.9099,-5.9099,-5.9099,-5.9099,-5.9099,-5.9099,-5.9099,-5.9099,-5.9099,-5.9099,-5.9099,-5.9099,-5.9099,-5.9099,-5.9099,-5.9099,-5.9099,-5.9099,-5.9099,-5.9099,-5.9099,-5.9099,-5.9099,-5.9099,-5.9099,-5.9099,-5.9099,-5.9099,-5.9099,-5.9099,-5.9099,-5.9099,-5.9099,-5.9099,-5.9099,-5.9099,-5.9099,-5.9099,-5.9099,-5.9099,-5.9099,-5.9099,-5.9099,-5.9099,-5.9099,-5.9099,-5.9099,-5.9099]},{"header":{"parameterUnit":"m.s-1","parameterCategory":1,"la1":30.6,"la2":28.766,"lo1":-90.7593,"lo2":-88.6598,"dy":0.0162,"dx":0.0183,"nx":116,"ny":114,"refTime":"2024-04-05T12:00:00:Z","depth":0,"parameterNumber":3,"parameterNumberName":"V-component_of_WINDS"},"data":[0.0,0.0,0.0,0.0,0.0,0.0,0.0,0.0,0.0,0.0,0.0,0.0,0.0,0.0,0.0,0.0,0.0,0.0,0.0,0.0,0.0,0.0,0.0,0.0,0.0,0.0,0.0,0.0,0.0,0.0,0.0,0.0,0.0,0.0,0.0,0.0,0.0,0.0,0.0,0.0,0.0,0.0,0.0,0.0,0.0,0.0,0.0,0.0,0.0,0.0,0.0,0.0,0.0,0.0,0.0,0.0,0.0,0.0,0.0,0.0,0.0,0.0,0.0,0.0,0.0,0.0,0.0,0.0,0.0,0.0,0.0,0.0,0.0,0.0,0.0,0.0,0.0,0.0,0.0,0.0,0.0,0.0,0.0,0.0,0.0,0.0,0.0,0.0,0.0,0.0,0.0,0.0,0.0,0.0,0.0,0.0,0.0,0.0,0.0,0.0,0.0,0.0,0.0,0.0,0.0,0.0,0.0,0.0,0.0,0.0,0.0,0.0,0.0,0.0,0.0,0.0,0.0,0.0,0.0,0.0,0.0,0.0,0.0,0.0,0.0,0.0,0.0,0.0,0.0,0.0,0.0,0.0,0.0,0.0,0.0,0.0,0.0,0.0,0.0,0.0,0.0,0.0,0.0,0.0,0.0,0.0,0.0,0.0,0.0,0.0,0.0,0.0,0.0,0.0,0.0,0.0,0.0,0.0,0.0,0.0,0.0,0.0,0.0,0.0,0.0,0.0,0.0,0.0,0.0,0.0,0.0,0.0,0.0,0.0,0.0,0.0,0.0,0.0,0.0,0.0,0.0,0.0,0.0,0.0,0.0,0.0,0.0,0.0,0.0,0.0,0.0,0.0,0.0,0.0,0.0,0.0,0.0,0.0,0.0,0.0,0.0,0.0,0.0,0.0,0.0,0.0,0.0,0.0,0.0,0.0,0.0,0.0,0.0,0.0,0.0,0.0,0.0,0.0,0.0,0.0,0.0,0.0,0.0,0.0,0.0,0.0,0.0,0.0,0.0,0.0,0.0,0.0,0.0,0.0,0.0,0.0,0.0,0.0,0.0,0.0,0.0,0.0,0.0,0.0,0.0,0.0,0.0,0.0,0.0,0.0,0.0,0.0,0.0,0.0,0.0,0.0,0.0,0.0,0.0,0.0,0.0,0.0,0.0,0.0,0.0,0.0,0.0,0.0,0.0,0.0,0.0,0.0,0.0,0.0,0.0,0.0,0.0,0.0,0.0,0.0,0.0,0.0,0.0,0.0,0.0,0.0,0.0,0.0,0.0,0.0,0.0,0.0,0.0,0.0,0.0,0.0,0.0,0.0,0.0,0.0,0.0,0.0,0.0,0.0,0.0,0.0,0.0,0.0,0.0,0.0,0.0,0.0,0.0,0.0,0.0,0.0,0.0,0.0,0.0,0.0,0.0,0.0,0.0,0.0,0.0,0.0,0.0,0.0,0.0,0.0,0.0,0.0,0.0,0.0,0.0,0.0,0.0,0.0,0.0,0.0,0.0,0.0,0.0,0.0,0.0,0.0,0.0,0.0,0.0,0.0,0.0,0.0,0.0,0.0,0.0,0.0,0.0,0.0,0.0,0.0,0.0,0.0,0.0,0.0,0.0,0.0,0.0,0.0,0.0,0.0,0.0,0.0,0.0,0.0,0.0,0.0,0.0,0.0,0.0,0.0,0.0,0.0,0.0,0.0,0.0,0.0,0.0,0.0,0.0,0.0,0.0,0.0,0.0,0.0,0.0,0.0,0.0,0.0,0.0,0.0,0.0,0.0,0.0,0.0,0.0,0.0,0.0,0.0,0.0,0.0,0.0,0.0,0.0,0.0,0.0,0.0,0.0,0.0,0.0,0.0,0.0,0.0,0.0,0.0,0.0,0.0,0.0,0.0,0.0,0.0,0.0,0.0,0.0,0.0,0.0,0.0,0.0,0.0,0.0,0.0,0.0,0.0,0.0,0.0,0.0,0.0,0.0,0.0,0.0,0.0,0.0,0.0,0.0,0.0,0.0,0.0,0.0,0.0,0.0,0.0,0.0,0.0,0.0,0.0,0.0,0.0,0.0,0.0,0.0,0.0,0.0,0.0,0.0,0.0,0.0,0.0,0.0,0.0,0.0,0.0,0.0,0.0,0.0,0.0,0.0,0.0,0.0,0.0,0.0,0.0,0.0,0.0,0.0,0.0,0.0,0.0,0.0,0.0,0.0,0.0,0.0,0.0,0.0,0.0,0.0,0.0,0.0,0.0,0.0,0.0,0.0,0.0,0.0,0.0,0.0,0.0,0.0,0.0,0.0,0.0,0.0,0.0,0.0,0.0,0.0,0.0,0.0,0.0,0.0,0.0,0.0,0.0,0.0,0.0,0.0,0.0,0.0,0.0,0.0,0.0,0.0,0.0,0.0,0.0,0.0,0.0,0.0,0.0,0.0,0.0,0.0,0.0,0.0,0.0,0.0,0.0,0.0,0.0,0.0,0.0,0.0,0.0,0.0,0.0,0.0,0.0,0.0,0.0,0.0,0.0,0.0,0.0,0.0,0.0,0.0,0.0,0.0,0.0,0.0,0.0,0.0,0.0,0.0,0.0,0.0,0.0,0.0,0.0,0.0,0.0,0.0,0.0,0.0,0.0,0.0,0.0,0.0,0.0,0.0,0.0,0.0,0.0,0.0,0.0,0.0,0.0,0.0,0.0,0.0,0.0,0.0,0.0,0.0,0.0,0.0,0.0,0.0,0.0,0.0,0.0,0.0,0.0,0.0,0.0,0.0,0.0,0.0,0.0,0.0,0.0,0.0,0.0,0.0,0.0,0.0,0.0,0.0,0.0,0.0,0.0,0.0,0.0,0.0,0.0,0.0,0.0,0.0,0.0,0.0,0.0,0.0,0.0,0.0,0.0,0.0,0.0,0.0,0.0,0.0,0.0,0.0,0.0,0.0,0.0,0.0,0.0,0.0,0.0,0.0,0.0,0.0,0.0,0.0,0.0,0.0,0.0,0.0,0.0,0.0,0.0,0.0,0.0,0.0,0.0,0.0,0.0,0.0,0.0,0.0,0.0,0.0,0.0,0.0,0.0,0.0,0.0,0.0,0.0,0.0,0.0,0.0,0.0,0.0,0.0,0.0,0.0,0.0,0.0,0.0,0.0,0.0,0.0,0.0,0.0,0.0,0.0,0.0,0.0,0.0,0.0,0.0,0.0,0.0,0.0,0.0,0.0,0.0,0.0,0.0,0.0,0.0,0.0,0.0,0.0,0.0,0.0,0.0,0.0,0.0,0.0,0.0,0.0,0.0,0.0,0.0,0.0,0.0,0.0,0.0,0.0,0.0,0.0,0.0,0.0,0.0,0.0,0.0,0.0,0.0,0.0,0.0,0.0,0.0,0.0,0.0,0.0,0.0,0.0,0.0,0.0,0.0,0.0,0.0,0.0,0.0,0.0,0.0,0.0,0.0,0.0,0.0,0.0,0.0,0.0,0.0,0.0,0.0,0.0,0.0,0.0,0.0,0.0,0.0,0.0,0.0,0.0,0.0,0.0,0.0,0.0,0.0,0.0,0.0,0.0,0.0,0.0,0.0,0.0,0.0,0.0,0.0,0.0,0.0,0.0,0.0,0.0,0.0,0.0,0.0,0.0,0.0,0.0,0.0,0.0,0.0,0.0,0.0,0.0,0.0,0.0,0.0,0.0,0.0,0.0,0.0,0.0,0.0,0.0,0.0,0.0,0.0,0.0,0.0,0.0,0.0,0.0,0.0,0.0,0.0,0.0,0.0,0.0,0.0,0.0,0.0,0.0,0.0,0.0,0.0,0.0,0.0,0.0,0.0,0.0,0.0,0.0,0.0,0.0,0.0,0.0,0.0,0.0,0.0,0.0,0.0,0.0,0.0,0.0,0.0,0.0,0.0,0.0,0.0,0.0,0.0,0.0,0.0,0.0,0.0,0.0,0.0,0.0,0.0,0.0,0.0,0.0,0.0,0.0,0.0,0.0,0.0,0.0,0.0,0.0,0.0,0.0,0.0,0.0,0.0,0.0,0.0,0.0,0.0,0.0,0.0,0.0,0.0,0.0,0.0,0.0,0.0,0.0,0.0,0.0,0.0,0.0,0.0,0.0,0.0,0.0,0.0,0.0,0.0,0.0,0.0,0.0,0.0,0.0,0.0,0.0,0.0,0.0,0.0,0.0,0.0,0.0,0.0,0.0,0.0,0.0,0.0,0.0,0.0,0.0,0.0,0.0,0.0,0.0,0.0,0.0,0.0,0.0,0.0,0.0,0.0,0.0,0.0,0.0,0.0,0.0,0.0,0.0,0.0,0.0,0.0,0.0,0.0,0.0,0.0,0.0,0.0,0.0,0.0,0.0,0.0,0.0,0.0,0.0,0.0,0.0,0.0,0.0,0.0,0.0,0.0,0.0,0.0,0.0,0.0,0.0,0.0,0.0,0.0,0.0,0.0,0.0,0.0,0.0,0.0,0.0,0.0,0.0,0.0,0.0,0.0,0.0,0.0,0.0,0.0,0.0,0.0,0.0,0.0,0.0,0.0,0.0,0.0,0.0,0.0,0.0,0.0,0.0,0.0,0.0,0.0,0.0,0.0,0.0,0.0,0.0,0.0,0.0,0.0,0.0,0.0,0.0,0.0,0.0,0.0,0.0,0.0,0.0,0.0,0.0,0.0,0.0,0.0,0.0,0.0,0.0,0.0,0.0,0.0,0.0,0.0,0.0,0.0,0.0,0.0,0.0,0.0,0.0,0.0,0.0,0.0,0.0,0.0,0.0,0.0,0.0,0.0,0.0,0.0,0.0,0.0,0.0,0.0,0.0,0.0,0.0,0.0,0.0,0.0,0.0,0.0,0.0,0.0,0.0,0.0,0.0,0.0,0.0,0.0,0.0,0.0,0.0,0.0,0.0,0.0,0.0,0.0,0.0,0.0,0.0,0.0,0.0,0.0,0.0,0.0,0.0,0.0,0.0,0.0,0.0,0.0,0.0,0.0,0.0,0.0,0.0,0.0,0.0,0.0,0.0,0.0,0.0,0.0,0.0,0.0,0.0,0.0,0.0,0.0,0.0,0.0,0.0,0.0,0.0,0.0,0.0,0.0,0.0,0.0,0.0,0.0,0.0,0.0,0.0,0.0,0.0,0.0,0.0,0.0,0.0,0.0,0.0,0.0,0.0,0.0,0.0,0.0,0.0,0.0,0.0,0.0,0.0,0.0,0.0,0.0,0.0,0.0,0.0,0.0,0.0,0.0,0.0,0.0,0.0,0.0,0.0,0.0,0.0,0.0,0.0,0.0,0.0,0.0,0.0,0.0,0.0,0.0,0.0,0.0,0.0,0.0,0.0,0.0,0.0,0.0,0.0,0.0,0.0,0.0,0.0,0.0,0.0,0.0,0.0,0.0,0.0,0.0,0.0,0.0,0.0,0.0,0.0,0.0,0.0,0.0,0.0,0.0,0.0,0.0,0.0,0.0,0.0,0.0,0.0,0.0,0.0,0.0,0.0,0.0,0.0,0.0,0.0,0.0,0.0,0.0,0.0,0.0,0.0,0.0,0.0,0.0,0.0,0.0,0.0,0.0,0.0,0.0,0.0,0.0,0.0,0.0,0.0,0.0,0.0,0.0,0.0,0.0,0.0,0.0,0.0,0.0,0.0,0.0,0.0,0.0,0.0,0.0,0.0,0.0,0.0,0.0,0.0,0.0,0.0,0.0,0.0,0.0,0.0,0.0,0.0,0.0,0.0,0.0,0.0,0.0,0.0,0.0,0.0,0.0,0.0,0.0,0.0,0.0,0.0,0.0,0.0,0.0,0.0,0.0,0.0,0.0,0.0,0.0,0.0,0.0,0.0,0.0,0.0,0.0,0.0,0.0,0.0,0.0,0.0,0.0,0.0,0.0,0.0,0.0,0.0,0.0,0.0,0.0,0.0,0.0,0.0,0.0,0.0,0.0,0.0,0.0,0.0,0.0,0.0,0.0,0.0,0.0,0.0,0.0,0.0,0.0,0.0,0.0,0.0,0.0,0.0,0.0,0.0,0.0,0.0,0.0,0.0,0.0,0.0,0.0,0.0,0.0,0.0,0.0,0.0,0.0,0.0,0.0,0.0,0.0,0.0,4.4292,4.3689,0.0,0.0,0.0,0.0,0.0,0.0,0.0,0.0,0.0,0.0,0.0,0.0,0.0,0.0,0.0,0.0,0.0,0.0,0.0,0.0,0.0,0.0,0.0,4.2986,4.2986,4.2986,4.2986,4.2986,4.2986,4.2986,0.0,0.0,0.0,0.0,4.2986,4.2986,4.2986,4.2986,4.2591,4.27,4.3158,4.2224,4.0999,3.9584,0.0,0.0,0.0,0.0,0.0,0.0,0.0,0.0,0.0,0.0,0.0,0.0,0.0,0.0,0.0,0.0,0.0,0.0,0.0,0.0,0.0,0.0,0.0,0.0,0.0,0.0,0.0,0.0,0.0,0.0,0.0,0.0,0.0,0.0,0.0,0.0,0.0,0.0,0.0,0.0,0.0,0.0,0.0,0.0,0.0,0.0,0.0,0.0,0.0,0.0,0.0,0.0,0.0,0.0,0.0,0.0,0.0,0.0,0.0,0.0,0.0,0.0,0.0,0.0,0.0,0.0,0.0,0.0,0.0,0.0,4.5189,4.4342,0.0,0.0,0.0,0.0,0.0,0.0,0.0,0.0,0.0,0.0,0.0,0.0,0.0,0.0,0.0,0.0,0.0,0.0,0.0,0.0,0.0,4.2986,4.2986,4.2986,4.2986,4.2986,4.2986,4.2986,4.2986,4.2986,4.2986,4.2986,4.2986,4.2986,4.2986,4.2986,4.3037,4.3112,4.3765,4.4317,4.4769,4.4769,4.3384,4.1008,4.1489,0.0,0.0,0.0,0.0,0.0,0.0,0.0,0.0,0.0,0.0,0.0,0.0,0.0,0.0,0.0,0.0,0.0,0.0,0.0,0.0,0.0,0.0,0.0,0.0,0.0,0.0,0.0,0.0,0.0,0.0,0.0,0.0,0.0,0.0,0.0,0.0,0.0,0.0,0.0,0.0,0.0,0.0,0.0,0.0,0.0,0.0,0.0,0.0,0.0,0.0,0.0,0.0,0.0,0.0,0.0,0.0,0.0,0.0,0.0,0.0,0.0,0.0,0.0,4.6968,4.7021,4.7077,4.8107,4.8817,4.9086,4.6607,4.5737,4.6076,4.5132,0.0,0.0,0.0,0.0,0.0,0.0,0.0,0.0,0.0,0.0,0.0,0.0,0.0,0.0,0.0,0.0,0.0,0.0,0.0,4.2986,4.2986,4.2986,4.2986,4.2986,4.2986,4.2986,4.2986,4.2986,4.2986,4.2986,4.2986,4.2986,4.2986,4.2986,4.3212,4.3689,4.4744,4.5296,4.5372,4.5372,4.5144,4.4749,4.4294,4.4161,4.4136,0.0,0.0,0.0,0.0,0.0,0.0,0.0,0.0,0.0,0.0,0.0,0.0,0.0,0.0,0.0,0.0,0.0,0.0,0.0,0.0,0.0,0.0,0.0,0.0,0.0,0.0,0.0,0.0,0.0,0.0,0.0,0.0,0.0,0.0,0.0,0.0,0.0,0.0,0.0,0.0,0.0,4.9459,4.9459,0.0,0.0,0.0,0.0,0.0,0.0,0.0,0.0,0.0,0.0,0.0,0.0,0.0,4.8056,4.83,4.8598,4.8731,4.8758,4.9216,4.9459,4.9459,4.9628,4.9711,4.9793,4.9373,0.0,4.8617,4.8455,0.0,0.0,0.0,0.0,0.0,0.0,0.0,0.0,0.0,0.0,0.0,0.0,0.0,0.0,0.0,0.0,0.0,0.0,0.0,0.0,0.0,4.3539,4.389,4.389,4.4468,4.4568,4.394,4.389,4.3639,4.3011,4.2986,4.2986,4.2986,4.3589,4.4342,4.5221,4.5698,4.5949,4.5949,4.5949,4.5949,4.5949,4.5698,4.5221,4.4593,4.4367,0.0,0.0,0.0,0.0,0.0,0.0,0.0,0.0,0.0,0.0,0.0,0.0,0.0,0.0,0.0,0.0,0.0,0.0,0.0,0.0,0.0,0.0,0.0,0.0,0.0,0.0,0.0,0.0,0.0,0.0,0.0,0.0,0.0,0.0,0.0,0.0,0.0,0.0,0.0,4.7991,4.909,4.898,4.8134,4.7268,0.0,0.0,0.0,0.0,0.0,0.0,0.0,0.0,0.0,4.9741,4.9741,5.023,5.1236,5.0762,5.0574,5.0574,5.0796,5.0906,5.0906,5.1593,5.192,5.192,5.192,5.1779,5.1443,4.9776,4.8487,4.7561,0.0,0.0,0.0,0.0,4.7322,4.7726,0.0,0.0,0.0,0.0,0.0,0.0,0.0,0.0,0.0,0.0,0.0,0.0,4.3187,4.4317,4.5045,4.5045,4.5824,4.5824,4.4694,4.4618,4.4141,4.3037,4.2986,4.2986,4.2986,4.4192,4.5397,4.6527,4.6527,4.6527,4.6527,4.6376,4.6301,4.6301,4.6301,4.5849,4.5045,4.4895,4.4618,4.4217,0.0,0.0,0.0,0.0,0.0,0.0,0.0,0.0,0.0,0.0,0.0,0.0,0.0,0.0,0.0,0.0,0.0,0.0,0.0,0.0,0.0,0.0,0.0,0.0,0.0,0.0,0.0,0.0,0.0,0.0,0.0,0.0,0.0,0.0,0.0,0.0,0.0,4.8872,4.9937,4.9443,4.9583,4.9172,0.0,0.0,0.0,0.0,0.0,0.0,4.8979,4.9033,4.9848,5.1616,5.175,5.2402,5.371,5.2808,5.2405,5.2405,5.2405,5.2352,5.2298,5.3208,5.3553,5.35,5.35,5.35,5.3314,5.1117,4.994,4.9557,4.909,4.8708,4.8328,4.8816,4.9062,4.9336,0.0,0.0,0.0,0.0,0.0,0.0,0.0,0.0,0.0,0.0,0.0,4.3765,4.3765,4.5221,4.6225,4.6225,4.6276,4.5824,4.4694,4.4618,4.4141,4.3037,4.2986,4.2986,4.2986,4.4593,4.5974,4.7043,4.7043,4.7043,4.7018,4.6552,4.6301,4.6301,4.6301,4.6276,4.62,4.5673,4.5422,4.5321,4.4242,0.0,0.0,0.0,0.0,0.0,0.0,0.0,0.0,0.0,0.0,0.0,0.0,0.0,0.0,0.0,0.0,0.0,0.0,0.0,0.0,0.0,0.0,0.0,0.0,0.0,0.0,0.0,0.0,0.0,0.0,0.0,0.0,0.0,0.0,0.0,0.0,0.0,0.0,5.34,5.3402,0.0,0.0,0.0,0.0,4.9117,4.8627,4.9034,5.0694,5.1014,5.1933,5.3675,5.3987,5.4171,5.4252,5.42,5.42,5.42,5.42,5.4045,5.3785,5.3838,5.3762,5.35,5.35,5.35,5.35,5.3366,5.2276,5.0803,5.0775,4.9741,4.8491,5.0176,5.1112,5.1866,0.0,0.0,0.0,0.0,0.0,4.0793,4.2013,4.2213,4.2137,4.1882,4.2986,4.394,4.4292,4.6125,4.733,4.733,4.8008,4.7933,4.6803,4.61,4.5221,4.4091,4.3363,4.3664,4.5095,4.6376,4.7431,4.8184,4.8184,4.7832,4.7129,4.6867,4.6652,4.6301,4.6301,4.6301,4.6301,4.61,4.5824,4.5447,4.5045,4.4443,0.0,0.0,0.0,0.0,0.0,0.0,0.0,0.0,0.0,0.0,0.0,0.0,0.0,0.0,0.0,0.0,0.0,0.0,0.0,0.0,0.0,0.0,0.0,0.0,0.0,0.0,0.0,0.0,0.0,0.0,0.0,0.0,0.0,0.0,0.0,0.0,0.0,5.3675,5.4281,0.0,5.3005,5.2873,5.2709,5.228,5.2583,5.2876,5.3071,5.3146,5.3523,5.4149,5.4252,5.4304,5.4304,5.4304,5.4304,5.4304,5.4304,5.4252,5.4149,5.4149,5.4097,5.3993,5.3993,5.3919,5.3762,5.3762,5.3303,5.2574,5.2574,5.219,5.1701,5.2329,5.2718,5.2972,0.0,0.0,0.0,0.0,3.9919,4.0803,4.1763,4.1882,4.1882,4.1882,4.3011,4.4091,4.4844,4.6702,4.7908,4.7908,4.8586,4.8485,4.7179,4.6426,4.5372,4.3865,4.3263,4.4016,4.625,4.7004,4.7732,4.8485,4.8309,4.7857,4.7068,4.6892,4.6652,4.6301,4.6301,4.6301,4.6301,4.6301,4.61,4.5748,4.5573,4.5045,4.4317,0.0,0.0,0.0,0.0,0.0,0.0,0.0,0.0,0.0,0.0,0.0,0.0,0.0,0.0,0.0,0.0,0.0,0.0,0.0,0.0,0.0,0.0,0.0,0.0,0.0,0.0,0.0,0.0,0.0,0.0,0.0,0.0,0.0,0.0,5.3625,5.4952,5.3675,5.4836,5.5296,5.4071,5.4545,5.4738,5.4375,5.476,5.4775,5.4333,5.4406,5.4487,5.4487,5.459,5.459,5.459,5.459,5.459,5.459,5.459,5.459,5.4487,5.4487,5.4406,5.4304,5.42,5.4045,5.3919,5.3815,5.3658,5.35,5.35,5.35,5.35,5.35,5.35,5.35,0.0,0.0,0.0,3.8684,3.9157,3.965,4.1047,4.1275,4.13,4.13,4.2785,4.4242,4.5397,4.6954,4.7908,4.7908,4.7908,4.723,4.5648,4.5497,4.4468,4.2338,4.2816,4.4091,4.625,4.6351,4.6878,4.7908,4.7405,4.7093,4.7068,4.6602,4.6326,4.6301,4.6301,4.6301,4.6301,4.6301,4.6301,4.625,4.5723,4.5497,4.5321,0.0,0.0,0.0,0.0,0.0,0.0,0.0,0.0,0.0,0.0,0.0,0.0,0.0,0.0,0.0,0.0,0.0,0.0,0.0,0.0,0.0,0.0,0.0,0.0,0.0,0.0,0.0,0.0,0.0,0.0,0.0,0.0,0.0,5.3733,5.4662,5.4981,5.3762,5.5242,5.5991,5.5007,5.4914,5.5019,5.5253,5.4687,5.4355,5.4355,5.4619,5.4803,5.4803,5.5027,5.5179,5.5179,5.5179,5.5179,5.5179,5.5179,5.5027,5.4803,5.4803,5.4619,5.4304,5.4045,5.3971,5.3919,5.3658,5.35,5.35,5.35,5.35,5.35,5.35,5.35,5.35,0.0,0.0,3.589,3.755,3.8566,3.9337,3.9823,4.071,4.148,4.1882,4.3011,4.4392,4.5924,4.7179,4.7908,4.7908,4.7908,4.7556,4.6728,4.5547,4.4242,4.2811,4.4443,4.5673,4.6301,4.7079,4.7606,4.7908,4.7757,4.7506,4.7068,4.6979,4.6702,4.6301,4.6301,4.6301,4.6301,4.6301,4.6301,4.6301,4.615,4.5849,4.5447,0.0,0.0,0.0,0.0,0.0,0.0,0.0,0.0,0.0,0.0,0.0,0.0,0.0,0.0,0.0,0.0,0.0,0.0,0.0,0.0,0.0,0.0,0.0,0.0,0.0,0.0,0.0,0.0,0.0,0.0,0.0,5.4342,5.53,5.4952,5.562,5.5997,5.5649,5.5649,5.5562,5.5292,5.523,5.5201,5.5306,5.5078,5.4976,5.4976,5.5027,5.5108,5.5108,5.5128,5.5179,5.5179,5.5179,5.5179,5.5179,5.5179,5.5128,5.5108,5.5108,5.5027,5.4976,5.4875,5.4722,5.4568,5.4466,5.4311,5.4045,5.3658,5.35,5.35,5.35,5.35,5.35,0.0,3.5108,3.5582,3.6885,3.7828,3.8706,3.961,4.0208,4.1057,4.2655,4.3212,4.4192,4.61,4.6878,4.723,4.723,4.7029,4.6677,4.6125,4.4744,4.3966,4.4016,4.5045,4.5824,4.6301,4.6928,4.723,4.723,4.723,4.7079,4.6778,4.6778,4.6627,4.6301,4.6301,4.6301,4.6301,4.6301,4.6301,4.6301,4.6301,4.6125,4.5773,4.5296,4.5271,4.5599,4.6368,4.7318,4.8193,4.8488,0.0,0.0,0.0,0.0,0.0,0.0,0.0,0.0,0.0,0.0,0.0,0.0,0.0,0.0,0.0,0.0,0.0,0.0,0.0,0.0,0.0,0.0,0.0,0.0,5.501,5.5736,5.5445,5.5997,5.6316,5.6026,5.5525,5.5226,5.5333,5.5201,5.513,5.5234,5.5185,5.5179,5.5179,5.5179,5.5179,5.5179,5.5179,5.5179,5.5179,5.5179,5.5179,5.5179,5.5179,5.5179,5.5179,5.5179,5.5179,5.5179,5.5108,5.4955,5.4803,5.4671,5.4487,5.4252,0.0,0.0,0.0,0.0,5.3762,5.3658,0.0,3.461,3.5211,3.6338,3.6864,3.7792,3.9585,3.9547,4.0345,4.3223,4.3256,4.3815,4.6075,4.6301,4.6301,4.6301,4.5799,4.5221,4.4568,4.374,4.389,4.5321,4.502,4.5296,4.6276,4.6301,4.6301,4.6301,4.6301,4.6301,4.6301,4.6301,4.6301,4.6301,4.6301,4.6301,4.6301,4.6301,4.6301,4.6301,4.6301,4.6301,4.62,4.5196,4.5171,4.5725,4.5922,4.6988,4.8407,4.9089,0.0,0.0,0.0,0.0,0.0,0.0,0.0,0.0,0.0,0.0,0.0,0.0,0.0,0.0,0.0,0.0,0.0,0.0,0.0,0.0,0.0,0.0,0.0,0.0,5.5474,5.6055,5.5387,5.5823,5.5968,5.5442,5.5017,5.4902,5.5136,5.4975,5.4905,5.5158,5.5179,5.5179,5.5179,5.5179,0.0,0.0,0.0,5.5179,5.5179,5.5179,5.5179,5.5179,5.5179,5.5179,5.5179,5.5179,5.5179,5.5209,5.4955,5.4854,5.4854,5.4539,5.4406,5.4406,5.4355,5.4304,5.4252,5.4304,5.4149,5.3942,0.0,3.4423,3.461,3.4839,3.5786,3.657,3.6794,3.8056,3.9762,4.1968,4.2666,4.3815,4.6075,4.6301,4.6301,4.6301,4.5799,4.5045,4.4016,4.4618,4.4945,4.4794,4.5547,4.6075,4.6301,4.6301,4.6301,4.6301,4.6301,4.6301,4.6301,4.6301,4.6301,4.6301,4.6301,4.6301,4.6301,4.6301,4.6301,4.6301,4.6301,4.6301,4.6276,4.6075,4.6326,4.696,4.7995,4.8904,4.9743,5.0795,5.1506,5.1963,5.2311,5.2416,0.0,0.0,0.0,0.0,0.0,0.0,0.0,0.0,0.0,0.0,0.0,0.0,0.0,0.0,0.0,0.0,0.0,0.0,0.0,5.3675,5.4778,5.5387,5.4778,5.4807,5.489,5.5012,5.4451,5.4199,5.4458,5.4679,5.4803,5.4854,5.5108,5.5179,5.5179,5.5179,5.5179,5.5179,5.5179,5.5179,5.5179,5.5179,5.5179,5.5179,5.5179,0.0,5.5179,5.5179,5.5179,5.5179,5.5158,5.5128,5.5128,5.5027,5.5027,5.4976,5.4458,5.4149,5.3993,5.42,5.4149,5.3942,0.0,3.4047,3.4173,3.4173,3.4819,3.5539,3.6079,3.6876,3.8124,4.0153,4.1142,4.2159,4.357,4.4519,4.5045,4.5045,4.5045,4.4819,4.4242,4.502,4.5472,4.5472,4.5999,4.6301,4.6301,4.6301,4.6301,4.6301,4.6301,4.6301,4.6301,4.6301,4.6301,4.6301,4.6301,4.6301,4.6301,4.6301,4.6301,4.6301,4.6301,4.6301,4.6301,4.6301,4.6476,4.6884,4.8151,4.878,4.9199,5.0671,5.1655,5.229,5.2864,5.3054,5.2862,0.0,0.0,0.0,0.0,0.0,0.0,0.0,0.0,0.0,0.0,0.0,0.0,0.0,0.0,5.2281,5.292,0.0,5.3617,5.3965,5.4653,5.4934,5.4293,5.4311,5.4416,5.4416,5.4199,5.42,5.4487,5.4824,5.5006,5.5006,5.5128,5.5179,5.5179,5.5179,5.5179,5.5179,5.5179,5.5179,5.5179,5.5179,5.5179,5.5179,5.5179,5.5179,5.5179,5.5179,5.5179,5.5179,5.5179,5.5179,5.5179,5.5179,5.5179,5.5179,5.4845,5.4641,5.4539,5.4692,5.459,5.4414,0.0,3.3862,3.3974,3.3717,3.3988,3.459,3.5643,3.5834,3.6508,3.8395,3.9442,4.0407,4.1398,4.2749,4.3687,4.3815,4.4418,4.4744,4.4644,4.5271,4.5849,4.6301,4.6301,4.6301,4.6301,4.6301,4.6301,4.6301,4.6301,4.6301,4.6301,4.6301,4.6301,4.6301,4.6301,4.6301,4.6301,4.6301,4.6301,4.6301,4.6301,4.6301,4.6301,4.6301,4.6301,4.6421,4.7416,4.7919,4.8321,5.0013,5.1429,5.2629,5.3444,5.3677,5.3442,5.202,5.1614,0.0,0.0,0.0,0.0,0.0,0.0,0.0,0.0,5.0627,5.083,5.2107,5.2252,5.2484,5.353,5.3617,5.3704,5.4226,5.4473,5.4428,5.3873,5.3993,5.4097,5.3919,5.42,5.4539,5.4854,5.5078,5.5179,5.5179,5.5179,5.5179,5.5179,5.5179,5.5179,5.5179,5.5179,5.5179,5.5179,5.5179,5.5179,5.5179,5.5179,5.5179,5.5179,5.5179,5.5179,5.5128,5.5027,5.5027,5.5027,5.5027,5.5027,5.5027,5.5078,5.5078,5.5027,5.5128,5.5057,5.4854,0.0,3.4551,3.4264,3.3129,3.3227,3.367,3.409,3.4677,3.5773,3.7588,3.841,3.9847,4.2364,4.2829,4.3154,4.3726,4.4769,4.5171,4.4669,4.5623,4.625,4.6301,4.6301,4.6301,4.6301,4.6301,4.6301,4.6301,4.6301,4.6301,4.6301,4.6301,4.6301,4.6301,4.6301,4.6301,4.6301,4.6301,4.6301,4.6301,4.6301,4.6301,4.6301,4.6301,4.6301,4.6301,4.6481,4.7205,4.8268,4.9529,5.0795,5.2146,5.3834,5.4409,5.4023,5.2165,5.1614,5.1062,4.8478,4.8904,5.0249,5.1265,5.1527,5.2078,0.0,5.3907,5.3442,5.472,5.4575,5.4226,5.4371,5.3907,5.353,5.3617,5.3617,5.364,5.3582,5.3553,5.3658,5.3867,5.4414,5.4824,5.5158,5.5179,5.5179,5.5179,5.5179,5.5179,5.5179,5.5179,5.5179,5.5179,5.5179,5.5179,5.5179,5.5179,5.5179,5.5179,5.5179,5.5179,5.5179,5.5179,5.5078,5.4854,5.4539,5.4406,5.4406,5.4406,5.4406,5.4406,5.4722,5.4671,5.4458,5.5027,5.5057,5.4854,0.0,0.0,3.4766,3.373,3.3691,3.3775,3.3646,3.4055,3.4533,3.5067,3.6122,3.7154,3.8059,3.9861,4.1398,4.2185,4.3913,4.4895,4.4644,4.5698,4.6301,4.6301,4.6301,4.6301,4.6301,4.6301,4.6301,4.6301,4.6301,4.6301,4.6301,4.6301,4.6301,4.6301,4.6301,4.6301,4.6301,4.6301,4.6301,4.6301,4.6301,4.6301,4.6301,4.6301,4.6301,4.6225,4.5573,4.5649,0.0,4.8315,4.931,5.0211,5.3029,5.3413,5.2514,5.0975,5.0511,5.0511,5.0589,5.0423,5.0618,5.1846,5.2165,5.2339,5.3036,5.2804,5.2775,5.4052,5.411,5.3936,5.3936,5.3704,5.35,5.35,5.3605,5.371,5.371,5.4052,5.4311,5.4414,5.4773,5.5006,5.4955,5.5078,5.5179,5.5179,5.5179,5.5179,5.5179,5.5179,5.5179,5.5179,5.5179,5.5179,5.5179,5.5179,5.5179,5.5179,5.5179,5.5128,5.4955,5.4955,5.4824,5.4487,5.4355,5.4304,5.4304,5.4304,5.4304,5.4304,5.4436,5.4406,5.4355,5.4976,5.5057,5.4854,0.0,0.0,0.0,3.457,3.4434,3.4238,3.3691,3.3784,3.3816,3.3525,3.4411,3.5118,3.5181,3.7717,3.9763,4.088,4.2583,4.3921,4.456,4.5429,4.603,4.6301,4.6301,4.6301,4.6301,4.6301,4.6301,4.6301,4.6301,4.6301,4.6301,4.6301,4.6301,4.6301,4.6301,4.6301,4.6301,4.6301,4.6301,4.6301,4.6301,4.6301,4.6301,4.6301,4.6225,4.5974,4.5146,4.5077,4.5636,4.7402,4.8217,4.8996,5.1627,5.1817,5.0859,4.9553,4.8914,4.903,5.0822,5.083,5.0714,5.1991,5.2572,5.2717,5.2252,5.2136,5.2397,5.3326,5.35,5.35,5.35,5.35,5.35,5.35,5.3658,5.3815,5.3815,5.4156,5.4414,5.4414,5.4722,5.4875,5.4671,5.4976,5.5179,5.5179,5.5431,5.5451,5.5179,5.5481,5.5451,5.5179,5.5179,5.5179,5.5179,5.5158,5.5108,5.5108,5.4976,5.4875,5.4671,5.4568,5.4436,5.42,5.4097,5.4045,5.4045,5.4045,5.4045,5.4097,5.4149,5.4149,5.4149,5.4743,5.4824,5.4671,0.0,0.0,0.0,0.0,3.5351,3.5059,3.418,3.4127,3.4015,3.3898,3.3902,3.455,3.6091,3.7462,3.8912,4.0476,4.094,4.2075,4.4477,4.4877,4.545,4.6276,4.6301,4.6301,4.6301,4.6301,4.6301,4.6301,4.6301,4.6301,4.6301,4.6301,4.6301,4.6301,4.6301,4.6301,4.6301,4.6301,4.6301,4.6301,4.6301,4.6301,4.6301,4.6301,4.5974,4.5522,4.5472,4.6218,4.7219,4.7244,4.8011,4.907,4.9663,4.9785,4.9524,4.8217,4.6969,4.6272,4.7579,4.8827,5.0075,5.1323,5.2572,5.3471,5.3471,5.3442,5.3471,5.35,5.35,5.35,5.35,5.35,5.35,5.35,5.35,5.35,5.35,5.353,5.353,5.353,5.3993,5.4304,5.4304,5.4845,5.5179,5.5179,5.6066,5.6134,5.5229,5.6035,5.6134,5.5229,5.5179,5.5179,5.5179,5.4955,5.4803,5.4803,5.4487,5.4304,5.4304,5.4045,5.3919,5.3919,5.3658,5.35,5.35,5.35,5.35,5.3553,5.3815,5.3762,5.3605,5.4097,5.4304,5.4304,0.0,0.0,0.0,0.0,0.0,3.5605,3.5039,3.4453,3.4088,3.4059,3.3784,0.0,0.0,0.0,0.0,0.0,3.8912,4.002,4.0841,4.2803,4.4082,4.4336,4.6056,4.6911,4.6699,4.6911,4.6911,4.6724,4.6353,4.618,4.6155,4.5809,4.5757,4.5939,4.5757,4.5878,4.6301,4.6059,4.612,4.6301,4.6301,4.6301,4.6276,4.5899,4.5648,4.5397,0.0,4.4175,4.4053,4.4782,4.5074,4.5481,4.7897,4.8055,4.7241,4.6697,4.6824,4.7433,4.8682,4.9988,5.1294,5.2543,5.321,5.35,5.35,5.35,5.35,5.35,5.2833,5.2252,5.2252,5.2252,5.2252,5.2252,5.2978,5.35,5.35,5.3658,5.3762,5.3762,5.4097,5.4355,5.4619,5.4976,5.5179,5.5179,5.5501,5.5551,5.5229,5.5501,5.5501,5.5179,5.5501,5.5651,5.5651,5.5948,5.6096,5.6047,5.522,5.456,5.3993,5.3762,5.3605,5.3605,5.3553,5.35,5.35,5.35,5.35,5.35,5.3605,5.3553,5.3471,5.3244,5.3172,5.3282,0.0,0.0,0.0,0.0,0.0,0.0,0.0,0.0,0.0,0.0,0.0,0.0,0.0,0.0,0.0,0.0,0.0,3.8116,3.894,4.0662,4.18,4.2172,4.3826,4.4645,4.4395,4.4583,4.4645,4.4395,4.438,4.4341,4.4341,4.4828,4.5067,4.5145,4.5478,4.5686,4.5939,4.5696,4.5633,4.57,4.576,4.572,4.5495,4.5262,4.5045,0.0,4.384,4.2811,4.2074,4.3202,4.3232,4.3224,4.5885,4.6429,4.6177,4.6466,4.7143,4.8159,4.9901,5.0975,5.1933,5.321,5.35,5.35,5.35,5.35,5.35,5.35,5.2514,5.1614,5.1614,5.1614,5.1468,5.1004,5.1991,5.2833,5.2833,5.2988,5.3237,5.3704,5.3993,5.423,5.4466,5.4722,5.4926,5.5057,5.53,5.5401,5.53,5.5401,5.5471,5.57,5.575,5.5918,5.6164,5.6457,5.636,5.5986,5.5018,5.4282,5.3762,5.3553,5.35,5.35,5.35,5.35,5.35,5.35,5.35,5.35,5.35,5.35,5.3471,5.3065,5.2775,5.2652,0.0,0.0,0.0,0.0,0.0,0.0,0.0,0.0,0.0,0.0,0.0,0.0,0.0,0.0,0.0,0.0,0.0,0.0,3.8592,3.8598,3.8903,3.9719,3.991,3.9933,3.9933,3.9933,3.9933,3.9933,4.0751,4.1136,4.1158,4.3401,4.4167,4.3699,4.5098,4.5477,4.5049,4.4988,4.4731,4.4301,4.4709,4.4531,4.4119,4.4419,4.4242,4.3689,4.3137,4.2233,4.1386,4.2422,4.2527,4.2462,4.3938,4.5189,4.633,4.7521,4.7927,4.8508,5.0946,5.1672,5.202,5.321,5.35,5.35,5.35,5.35,5.35,5.3442,5.2397,5.1497,5.1439,5.1468,5.112,4.9872,5.083,5.173,5.173,5.173,5.2165,5.3384,5.371,5.3919,5.3919,5.4097,5.4385,5.4751,5.5341,5.5659,5.5471,5.561,5.6005,5.6554,5.5918,5.5918,5.6651,5.6457,5.5789,5.4735,5.3971,5.3553,5.35,5.35,5.35,5.35,5.35,5.35,5.35,5.35,5.35,5.35,5.35,5.35,5.35,5.3471,5.3094,5.2484,0.0,0.0,0.0,0.0,0.0,0.0,0.0,0.0,0.0,0.0,0.0,0.0,0.0,0.0,0.0,0.0,0.0,0.0,3.4794,3.6478,3.753,3.772,3.9638,4.0609,4.0334,4.0609,4.0609,4.0334,4.0201,4.0071,4.0071,4.0278,4.046,4.0575,4.066,4.0966,4.1261,4.1014,4.1007,4.1176,4.2171,4.2664,4.2842,4.3474,4.3519,4.3112,4.2615,4.1656,4.0727,4.1018,4.2423,4.4273,4.5434,4.7165,4.8769,4.9117,4.9901,5.0772,5.1439,5.231,5.3094,5.3442,5.35,5.35,5.35,5.35,5.3239,5.231,5.1091,4.9901,4.8943,4.9524,5.0075,4.9727,5.1556,5.3036,5.3036,5.3036,5.3152,5.3471,5.3553,5.3658,5.3919,5.3762,5.3815,5.4126,5.4458,5.4684,5.4611,5.4633,5.4735,5.4917,5.567,5.6213,5.6409,5.6748,5.6457,5.5571,5.4815,5.4097,5.35,5.35,5.35,5.35,5.35,5.35,5.35,5.35,5.35,5.35,5.35,5.35,5.3471,5.2978,5.2717,5.2449,0.0,0.0,0.0,0.0,0.0,0.0,0.0,0.0,0.0,0.0,0.0,0.0,0.0,0.0,0.0,0.0,0.0,0.0,0.0,3.4676,3.5445,3.5445,3.6853,3.7572,3.7422,3.7572,3.7572,3.7401,3.7484,3.7546,3.7546,3.8274,3.8552,3.8528,3.9034,3.9364,3.9454,3.9268,3.9135,0.0,0.0,4.1093,4.094,4.2168,4.2401,4.2018,4.1576,4.1204,4.0953,4.143,4.2912,4.4831,4.5946,4.7485,4.9115,5.0217,5.1062,5.173,5.231,5.2978,5.35,5.35,5.35,5.3355,5.2804,5.2688,5.231,5.1062,4.9756,4.8653,4.7898,4.8827,4.9524,4.8943,5.1004,5.2688,5.2688,5.2688,5.2891,5.3442,5.35,5.371,5.42,5.3815,5.371,5.42,5.4045,5.4097,5.4458,5.4149,5.4252,5.4968,5.5391,5.5769,5.6115,5.6085,5.5789,5.5341,5.456,5.3942,5.35,5.35,5.35,5.35,5.35,5.35,5.35,5.35,5.35,5.35,5.35,5.35,5.3471,5.3123,5.2804,5.2507,0.0,0.0,0.0,0.0,0.0,0.0,0.0,0.0,0.0,0.0,3.543,3.5234,0.0,0.0,0.0,0.0,0.0,0.0,0.0,0.0,3.3418,3.3418,3.3418,3.3418,3.3418,3.3418,3.3418,3.3418,3.416,3.4531,3.4551,3.6577,3.7332,3.6962,3.8274,3.861,3.8157,3.8157,3.7919,3.7613,3.9221,3.9413,3.8954,0.0,4.1126,4.0877,4.052,4.0749,4.1451,4.261,4.3815,4.5014,4.6329,4.7543,4.8878,5.1171,5.1875,5.2107,5.321,5.35,5.35,5.35,5.35,5.3181,5.1904,5.1614,5.1207,4.9756,4.8566,4.7724,4.755,4.8595,4.9146,4.8188,5.0046,5.1672,5.1846,5.1875,5.2281,5.3384,5.35,5.3762,5.4479,5.3919,5.3815,5.4479,5.3919,5.3815,5.4509,5.3867,5.423,5.5869,5.519,5.529,5.6213,5.529,5.4836,5.4836,5.3971,5.35,5.35,5.35,5.35,5.35,5.35,5.35,5.35,5.35,5.35,5.35,5.35,5.35,5.35,5.35,5.3181,5.2688,0.0,0.0,0.0,0.0,0.0,0.0,0.0,0.0,0.0,0.0,3.5605,3.5371,0.0,0.0,0.0,0.0,0.0,0.0,0.0,0.0,0.0,3.3418,3.3418,3.3418,3.3418,3.3418,3.3418,3.3418,3.3574,3.3652,3.3652,3.4044,3.4191,3.4132,3.4366,3.4452,3.4372,3.4372,3.4269,3.4315,3.5727,3.6946,3.8067,3.9024,0.0,0.0,4.0095,4.0475,4.1451,4.261,4.4382,4.6461,4.859,5.0106,5.1327,5.2728,5.3181,5.3239,5.3442,5.35,5.35,5.35,5.35,5.3181,5.1904,5.1614,5.0946,4.8595,4.7927,4.7462,4.6417,4.7259,4.8391,4.9204,5.0627,5.1991,5.3036,5.3181,5.3268,5.35,5.35,5.3553,5.371,5.3553,5.3553,5.371,5.3553,5.3553,5.371,5.3553,5.423,5.5869,5.5769,5.6409,5.7871,5.6457,5.572,5.567,5.42,5.35,5.35,5.35,5.35,5.35,5.35,5.35,5.35,5.35,5.35,5.35,5.35,5.35,5.35,5.35,5.3442,5.3268,0.0,0.0,0.0,0.0,0.0,0.0,0.0,3.6016,3.6016,3.6016,3.584,3.5723,3.5723,3.5332,3.498,0.0,0.0,0.0,0.0,0.0,0.0,0.0,3.3418,3.3418,3.3418,3.3418,3.3418,3.3418,0.0,3.3418,3.3418,3.3418,3.3418,3.3418,3.3418,3.3418,3.3418,3.3418,3.3418,3.3544,3.4881,3.6067,3.7251,0.0,0.0,0.0,3.9869,4.04,4.1351,4.1957,4.3604,4.5865,4.8246,4.9788,5.1017,5.2218,5.2996,5.35,5.35,5.35,5.35,5.35,5.35,5.3007,5.1062,5.0598,4.9872,4.7317,4.6795,4.6621,4.5982,4.6911,4.7985,4.8595,5.0336,5.1817,5.2455,5.3094,5.35,5.35,5.35,5.3658,5.4097,5.4097,5.4097,5.4097,5.4097,5.3942,5.35,5.35,5.3867,5.4611,5.5069,5.564,5.6427,5.564,5.527,5.524,5.4045,5.35,5.35,5.35,5.35,5.35,5.35,5.3762,5.4097,5.3658,5.3762,5.4097,5.3658,5.35,5.35,5.35,5.35,5.3471,0.0,0.0,0.0,0.0,0.0,0.0,3.5947,3.6016,3.6016,3.6016,3.6016,3.6016,3.6016,3.5723,3.5488,0.0,0.0,0.0,0.0,0.0,0.0,0.0,0.0,0.0,3.3418,0.0,0.0,3.3418,3.3418,0.0,0.0,0.0,0.0,0.0,3.3418,3.3418,3.3418,3.3418,3.3418,0.0,0.0,3.5638,3.6837,0.0,0.0,0.0,0.0,4.0145,4.0921,4.12,4.2429,4.4288,4.6334,4.7977,4.9409,5.0901,5.2035,5.289,5.339,5.35,5.35,5.35,5.35,5.2833,5.0278,4.9669,4.8991,4.6417,4.5895,4.5895,4.5895,4.6708,4.7462,4.7753,4.9465,5.1004,5.1527,5.2484,5.321,5.3471,5.35,5.3762,5.4406,5.4582,5.4684,5.4684,5.4684,5.4355,5.3553,5.35,5.3553,5.3762,5.4355,5.4887,5.519,5.4887,5.4786,5.4938,5.3971,5.35,5.35,5.35,5.35,5.35,5.35,5.3867,5.4406,5.3762,5.3867,5.4406,5.3762,5.35,5.35,5.35,5.35,5.35,0.0,0.0,0.0,0.0,0.0,0.0,3.5811,3.6016,3.6016,3.6016,3.6016,3.6016,3.6016,3.5996,3.5801,0.0,0.0,0.0,0.0,0.0,0.0,0.0,0.0,0.0,0.0,0.0,0.0,3.3418,3.3418,0.0,0.0,0.0,0.0,0.0,0.0,3.3418,3.3418,3.3418,0.0,0.0,0.0,0.0,0.0,0.0,0.0,0.0,0.0,3.9384,3.9661,4.0896,4.1426,4.1831,4.3078,4.496,4.7198,4.9568,5.0336,5.0853,5.2919,5.35,5.35,5.35,5.35,5.2833,5.0307,4.9698,4.8991,4.6417,4.5895,4.5895,4.5895,4.5982,4.6446,4.7579,4.7985,4.8943,5.1294,5.173,5.2223,5.3384,5.35,5.35,5.3605,5.4252,5.4684,5.4684,5.4684,5.4355,5.3553,5.35,5.3867,5.456,5.4633,5.5391,5.6892,5.5441,5.5039,5.5769,5.42,5.35,5.35,5.35,5.35,5.35,5.35,5.3553,5.3605,5.35,5.3553,5.3605,5.35,5.35,5.35,5.35,5.35,5.35,0.0,0.0,0.0,0.0,0.0,0.0,3.5743,3.6016,3.6016,3.6016,3.6016,3.6016,3.6016,3.6016,3.5957,3.5781,0.0,0.0,0.0,0.0,0.0,0.0,0.0,0.0,0.0,0.0,3.3418,3.3418,3.3418,0.0,0.0,0.0,0.0,0.0,0.0,3.3418,3.3418,3.3418,0.0,0.0,0.0,0.0,0.0,0.0,0.0,0.0,0.0,0.0,3.9384,4.0095,4.0802,4.125,4.1078,4.2055,4.4074,4.7892,4.9507,5.0606,5.289,5.35,5.35,5.35,5.2949,5.1904,5.0133,4.9117,4.8014,4.6243,4.5895,4.5895,4.5895,4.5895,4.604,4.6563,4.7288,4.813,4.9175,5.0627,5.1817,5.231,5.3036,5.35,5.35,5.4252,5.4684,5.4684,5.4252,5.3867,5.353,5.35,5.3658,5.3971,5.4458,5.4988,5.564,5.5039,5.4836,5.514,5.4075,5.35,5.35,5.35,5.35,5.35,5.35,5.3762,5.42,5.371,5.3815,5.4149,5.371,5.35,5.35,5.35,5.35,5.35,0.0,0.0,0.0,0.0,0.0,3.4333,3.5743,3.6016,3.6016,3.6016,3.6016,3.6016,3.6016,3.6016,3.6016,3.6016,3.5742,0.0,0.0,0.0,0.0,0.0,0.0,0.0,0.0,0.0,3.3418,3.3418,3.3418,3.3418,0.0,0.0,3.3418,3.3418,0.0,0.0,0.0,0.0,0.0,0.0,0.0,0.0,0.0,0.0,0.0,0.0,0.0,0.0,0.0,0.0,0.0,4.0752,4.0124,4.035,4.1631,4.5582,4.7883,4.9543,5.1895,5.3001,5.35,5.35,5.2543,5.1294,4.9988,4.8711,4.7433,4.6156,4.5895,4.5895,4.5895,4.5895,4.5895,4.5895,4.6621,4.7346,4.7724,4.9349,5.0627,5.1004,5.1846,5.2543,5.292,5.4016,5.4684,5.4684,5.4149,5.3762,5.35,5.35,5.35,5.35,5.4045,5.4458,5.4684,5.4458,5.4428,5.4684,5.3919,5.35,5.35,5.35,5.35,5.35,5.35,5.3815,5.4304,5.371,5.3867,5.4304,5.371,5.35,5.35,5.35,5.35,5.35,0.0,0.0,0.0,0.0,0.0,0.0,3.5743,3.6016,3.6016,3.6016,3.6016,3.6016,3.6016,3.6016,3.6016,3.6016,3.6016,0.0,0.0,0.0,0.0,0.0,0.0,0.0,0.0,0.0,3.3418,3.3418,3.3418,3.3418,3.3418,3.3418,3.3418,3.3418,0.0,0.0,0.0,0.0,0.0,0.0,0.0,0.0,3.7363,0.0,0.0,0.0,0.0,0.0,0.0,0.0,0.0,0.0,0.0,4.0149,4.0182,4.2476,4.4804,4.7142,4.9515,5.1785,5.35,5.35,5.2543,5.1265,4.9988,4.8682,4.7433,4.6156,4.5895,4.5895,4.5895,4.5895,4.5895,4.5895,4.5895,4.633,4.7608,4.7811,4.8323,4.9601,4.9727,5.02,5.1527,5.3516,5.4684,5.4684,5.4684,5.4355,5.3553,5.35,5.35,5.35,5.35,5.3919,5.4684,5.3919,5.389,5.4684,5.3919,5.35,5.35,5.35,5.35,5.35,5.35,5.35,5.35,5.35,5.35,5.35,5.35,5.35,5.35,5.35,5.35,5.35,0.0,0.0,0.0,0.0,0.0,0.0,3.4264,3.5382,3.6016,3.6016,3.6016,3.6016,3.6016,3.6016,3.6016,3.6016,3.6016,0.0,0.0,0.0,0.0,0.0,0.0,0.0,0.0,3.3418,3.3418,3.3418,3.3418,3.3418,3.3418,3.3418,3.3418,3.3418,3.3418,3.3418,0.0,0.0,0.0,0.0,0.0,3.6946,3.7528,0.0,0.0,0.0,0.0,0.0,0.0,0.0,0.0,0.0,0.0,0.0,0.0,4.1099,4.3203,4.5778,4.8173,4.9839,5.0888,5.0917,4.9959,4.8885,4.8478,4.7404,4.6388,4.5953,4.5895,4.5895,4.5895,4.5895,4.5895,4.5895,4.5895,4.604,4.6417,4.8014,4.9262,4.9669,5.1265,5.2484,5.2891,5.3477,5.3867,5.3867,5.3867,5.3762,5.35,5.35,5.35,5.35,5.35,5.3605,5.3867,5.3605,5.3605,5.3867,5.3605,5.35,5.35,5.35,5.35,5.35,5.35,5.35,5.35,5.35,5.35,5.35,5.35,5.35,5.35,5.35,5.35,5.35,0.0,0.0,0.0,0.0,0.0,0.0,3.4402,3.5382,3.6016,3.6016,3.6016,3.6016,3.6016,3.6016,3.6016,3.6016,3.6016,0.0,0.0,0.0,0.0,0.0,0.0,0.0,3.3672,3.3496,3.3418,3.3418,3.3418,3.3418,3.3418,3.3418,3.3418,3.3418,3.3418,3.3418,0.0,0.0,0.0,0.0,3.5725,3.6885,3.755,0.0,0.0,0.0,0.0,0.0,0.0,0.0,0.0,0.0,0.0,0.0,0.0,0.0,4.1853,4.3899,4.6206,4.8283,4.9669,4.9698,4.874,4.7782,4.7782,4.6795,4.5895,4.5895,4.5895,4.5895,4.5895,4.5895,4.5895,4.5895,4.5895,4.604,4.6534,4.7985,4.9175,4.964,5.1527,5.2804,5.2804,5.3239,5.35,5.35,5.35,5.35,5.35,5.35,5.35,5.35,5.35,5.35,5.35,5.35,5.35,5.35,5.35,5.35,5.35,5.35,5.35,5.35,5.35,5.35,0.0,5.35,5.35,5.35,5.35,5.35,5.35,5.35,5.35,5.35,0.0,0.0,0.0,0.0,0.0,0.0,0.0,3.5947,3.6016,3.6016,3.6016,3.6016,3.6016,3.6016,3.6016,3.6016,3.6016,0.0,0.0,0.0,0.0,0.0,0.0,0.0,3.4082,3.3672,3.3457,3.3418,3.3418,3.3418,3.3418,3.3418,3.3418,3.3418,3.3418,3.3418,3.3418,3.3418,3.3418,3.3544,3.4943,3.6215,0.0,0.0,0.0,0.0,0.0,0.0,0.0,0.0,0.0,0.0,0.0,0.0,0.0,0.0,0.0,0.0,0.0,4.6869,4.9359,4.9407,4.8508,4.7637,4.7637,4.6708,0.0,4.5866,4.5837,4.5837,4.5866,4.5895,4.5895,4.5895,4.5895,4.633,4.7608,4.7927,4.8478,4.9669,5.0975,5.173,5.1643,5.2775,5.35,5.35,5.35,5.35,5.35,5.35,5.35,5.35,5.35,5.35,5.35,5.35,5.35,5.35,5.35,5.35,5.35,5.35,5.35,5.35,5.35,5.35,5.35,5.35,5.35,5.35,5.35,5.35,5.35,5.35,5.35,5.35,0.0,0.0,0.0,0.0,0.0,0.0,0.0,0.0,0.0,0.0,3.6016,3.6016,3.6016,3.6016,3.6016,0.0,0.0,0.0,0.0,0.0,0.0,0.0,0.0,0.0,3.4082,3.3965,3.375,3.3418,3.3418,3.3418,3.3418,3.3418,3.3418,3.3418,3.3418,3.3418,3.3418,3.3418,3.3418,3.3607,3.5909,3.7067,0.0,0.0,0.0,0.0,3.981,3.9565,0.0,0.0,0.0,0.0,0.0,0.0,0.0,0.0,4.085,4.1471,4.2873,0.0,4.5779,4.6582,4.6563,4.633,0.0,4.5721,4.5256,4.5779,4.5488,4.5285,4.5779,4.5895,4.5895,4.5895,4.5895,4.633,4.7608,4.9465,5.083,5.112,5.2281,5.2688,5.1701,5.2775,5.35,5.35,5.35,5.35,5.35,5.35,5.35,5.35,5.35,5.35,5.35,5.35,5.35,5.35,5.35,5.35,5.35,5.35,5.35,5.35,5.35,5.35,5.35,5.35,5.35,5.35,5.35,5.35,5.35,5.35,5.35,5.35,0.0,0.0,0.0,0.0,0.0,0.0,0.0,0.0,0.0,0.0,3.6016,3.6016,3.6016,3.6016,3.6016,0.0,0.0,0.0,0.0,0.0,0.0,0.0,0.0,3.5176,3.4687,3.4277,3.3965,3.3711,3.3516,3.3418,3.3418,3.3418,3.3418,3.3418,3.3418,3.3418,3.3418,3.3418,3.3418,3.3607,3.6276,0.0,0.0,0.0,0.0,0.0,3.9741,3.9572,0.0,3.9921,4.0275,4.0526,0.0,0.0,0.0,0.0,4.0311,4.0792,4.2006,4.307,4.4121,4.5178,4.5227,4.5024,4.5024,4.4734,4.4589,4.4937,4.4937,4.4995,4.5372,4.6156,4.6563,4.5982,4.6882,4.7869,4.8566,4.9843,5.0946,5.1556,5.2223,5.2601,5.2484,5.3123,5.35,5.35,5.35,5.35,5.35,5.35,5.35,5.35,5.35,5.35,5.35,5.35,5.35,5.35,5.35,5.35,5.35,5.35,5.35,5.35,5.35,5.35,5.35,5.35,5.35,5.35,5.35,5.35,5.35,5.35,5.35,5.35,0.0,0.0,0.0,0.0,0.0,0.0,0.0,0.0,0.0,0.0,0.0,0.0,0.0,0.0,0.0,0.0,0.0,0.0,0.0,0.0,0.0,0.0,3.5644,3.543,3.5293,3.4629,3.418,3.3965,3.3672,3.3496,3.3418,3.3418,3.3418,3.3418,3.3418,3.3481,3.367,3.3481,3.3607,3.4215,3.6399,0.0,0.0,0.0,0.0,0.0,0.0,0.0,0.0,4.0224,4.04,4.04,4.04,0.0,0.0,0.0,0.0,0.0,4.1384,4.248,4.3431,4.4498,4.4356,4.3979,4.3979,4.3921,4.3863,4.3979,4.4385,4.485,4.514,4.6446,4.7201,4.633,4.8159,4.9785,4.9959,5.0133,5.0598,5.1497,5.1788,5.2252,5.3123,5.3413,5.35,5.35,5.35,5.35,5.35,5.35,5.35,5.35,5.35,5.35,5.35,5.35,5.35,5.35,5.35,5.35,5.35,5.35,5.35,5.35,5.35,5.35,5.35,5.35,5.35,5.35,5.35,5.35,5.35,5.35,5.35,5.35,0.0,0.0,0.0,0.0,0.0,0.0,0.0,0.0,0.0,0.0,0.0,0.0,0.0,0.0,0.0,0.0,0.0,0.0,0.0,0.0,0.0,3.5508,3.5762,3.5566,3.4824,3.5059,3.4648,3.3516,3.3828,3.3789,3.3418,3.3418,3.3418,3.3418,3.3418,3.4027,3.5005,3.3859,3.4694,3.6764,3.7127,0.0,0.0,0.0,0.0,0.0,0.0,0.0,0.0,3.9798,3.9823,3.9823,3.9823,0.0,0.0,0.0,0.0,0.0,4.1277,4.2011,4.2537,4.3803,4.4066,4.3979,4.3979,4.3544,4.3311,4.3863,4.4066,4.4618,4.6243,4.633,4.6475,4.7346,4.874,5.0104,5.1178,5.2252,5.2601,5.173,5.2572,5.2891,5.1991,5.2891,5.35,5.35,5.35,5.35,5.35,5.35,5.35,5.35,5.35,5.35,5.35,5.35,5.35,5.35,5.35,5.35,5.35,5.35,5.35,5.35,5.35,5.35,5.35,5.35,5.35,5.35,5.35,5.35,5.35,5.35,5.35,5.35,0.0,0.0,0.0,0.0,0.0,0.0,0.0,0.0,0.0,0.0,0.0,0.0,0.0,0.0,0.0,0.0,0.0,0.0,0.0,0.0,3.5703,3.5723,3.5449,3.5117,3.4707,3.5156,3.4961,3.4121,3.4082,3.3965,3.3769,3.4273,3.4465,3.4528,3.5191,3.5848,3.6399,3.5786,3.6006,3.6915,0.0,0.0,0.0,0.0,0.0,0.0,0.0,0.0,0.0,0.0,3.9697,3.9697,3.9697,0.0,0.0,0.0,0.0,0.0,4.0876,4.1117,4.1407,4.3472,4.4501,4.5024,4.5024,4.4763,4.4443,4.4066,4.424,4.485,4.6098,4.694,4.8188,5.0511,5.022,5.0113,5.1439,5.1527,5.1497,5.1614,5.2136,5.2543,5.263,5.3181,5.35,5.35,5.35,5.35,5.35,5.35,5.35,5.35,5.35,5.35,5.35,5.35,5.35,5.35,5.35,5.35,5.35,5.35,5.35,5.35,5.35,5.35,5.35,5.35,5.35,5.35,5.35,5.35,5.35,5.35,5.35,5.35,0.0,0.0,0.0,0.0,0.0,0.0,0.0,0.0,0.0,0.0,0.0,0.0,0.0,0.0,0.0,0.0,0.0,0.0,0.0,3.5566,3.5449,3.5566,3.5117,3.4863,3.4863,3.5215,3.5176,3.4707,3.4492,3.4277,3.4127,3.498,3.5376,3.5438,3.6764,3.7528,3.7828,3.7298,3.7332,3.7623,0.0,0.0,0.0,0.0,0.0,0.0,0.0,0.0,0.0,0.0,0.0,0.0,0.0,0.0,0.0,3.9697,3.9195,3.8966,4.0321,4.0475,4.0858,4.3357,4.4501,4.514,4.575,4.5663,4.5256,4.456,4.4908,4.5547,4.6214,4.7782,4.9756,5.2223,5.1236,5.0627,5.1875,5.1207,5.0946,5.1933,5.2049,5.2455,5.3413,5.35,5.35,5.35,5.35,5.35,5.35,5.35,5.35,5.35,5.35,5.35,5.35,5.35,5.35,5.35,5.35,5.35,5.35,5.35,5.35,5.35,5.35,5.35,5.35,5.35,5.35,5.35,5.35,5.35,5.35,5.35,5.35,5.35,0.0,0.0,0.0,0.0,0.0,0.0,0.0,0.0,0.0,0.0,0.0,0.0,0.0,0.0,0.0,0.0,0.0,0.0,0.0,3.541,3.5039,3.4238,3.4941,3.5351,3.5351,3.5371,3.5176,3.4707,3.5098,3.4883,3.4127,3.498,3.5376,3.5438,3.6764,3.8127,3.9405,3.7421,3.8273,4.0779,3.8624,0.0,0.0,0.0,0.0,0.0,0.0,0.0,0.0,0.0,0.0,0.0,0.0,0.0,3.9697,3.9697,3.8919,3.8356,3.968,4.0513,4.1471,4.3516,4.3166,4.2992,4.5343,4.4966,4.4443,4.5518,4.6243,4.6882,4.7521,4.874,4.9678,4.9959,5.083,5.1933,5.321,5.3297,5.3268,5.3355,5.3384,5.3413,5.35,5.35,5.35,5.35,5.35,5.35,5.35,5.35,5.35,5.35,5.35,5.35,5.35,5.35,5.35,5.35,5.35,5.35,5.35,5.35,5.35,5.35,5.35,5.35,5.35,5.35,5.35,5.35,5.35,5.35,5.35,5.35,5.35,5.35,0.0,0.0,0.0,0.0,0.0,0.0,0.0,0.0,0.0,0.0,0.0,0.0,0.0,0.0,0.0,0.0,0.0,0.0,0.0,3.4961,3.4941,3.4902,3.4941,3.5215,3.5762,3.5781,3.5566,3.5137,3.5856,3.5909,3.5301,3.7201,3.7947,3.785,3.951,4.03,4.0311,3.9722,3.9778,4.0133,3.9261,3.8905,0.0,0.0,0.0,0.0,0.0,0.0,0.0,0.0,4.0425,4.0752,4.0899,4.0651,4.0149,3.9798,3.8894,3.8305,3.9646,4.0513,4.1571,4.3516,4.3631,4.395,4.6475,4.6679,4.6359,4.6446,4.6969,4.7491,4.7724,5.0133,5.1817,5.1033,5.1962,5.2978,5.3442,5.35,5.35,5.35,5.35,5.35,5.35,5.35,5.35,5.35,5.35,5.35,5.35,5.35,5.35,5.35,5.35,5.35,5.35,5.35,5.35,5.35,5.35,5.35,5.35,5.35,5.35,5.35,5.35,5.35,5.35,5.35,5.35,5.35,5.35,5.35,5.35,5.35,5.35,5.35,0.0,0.0,0.0,0.0,0.0,0.0,0.0,0.0,0.0,0.0,0.0,0.0,0.0,0.0,0.0,0.0,0.0,0.0,3.4531,3.4629,3.4785,3.4961,3.4941,3.5195,3.5801,3.5957,3.5879,3.5586,3.6153,3.6401,3.6372,3.8452,3.9472,3.9569,4.1151,4.1563,4.1058,4.0851,4.0395,3.9841,3.9508,3.916,0.0,0.0,0.0,0.0,0.0,0.0,0.0,0.0,4.0824,4.13,4.153,4.1103,4.04,3.9848,3.9399,3.928,4.0133,4.095,4.2046,4.4093,4.4298,4.4647,4.7201,4.7462,4.7288,4.7666,4.8072,4.8449,4.8653,5.1004,5.263,5.1759,5.2688,5.35,5.35,5.35,5.35,5.35,5.35,5.35,5.35,5.35,5.35,5.35,5.35,5.35,5.35,5.35,5.35,5.35,5.35,5.35,5.35,5.35,5.35,5.35,5.35,5.35,5.35,5.35,5.35,5.35,5.35,5.35,5.35,5.35,5.35,5.35,5.35,5.35,5.35,5.35,5.35,5.35,0.0,0.0,0.0,0.0,0.0,0.0,0.0,0.0,0.0,0.0,0.0,0.0,0.0,0.0,0.0,0.0,0.0,0.0,3.4101,3.4473,3.4512,3.4101,3.4922,3.541,3.541,3.5801,3.6016,3.6016,3.5969,3.635,3.7148,3.835,3.9377,4.0187,4.0934,4.1441,4.1563,4.0202,3.9972,4.0398,3.9272,3.8998,3.9335,0.0,0.0,0.0,0.0,0.0,0.0,0.0,4.0902,4.1401,4.2037,4.1404,4.0425,3.9848,4.0491,4.1331,4.1159,4.1781,4.3093,4.5322,4.4966,4.4705,4.723,4.6824,4.6621,4.9223,4.9746,4.9901,5.0589,5.1207,5.1643,5.1614,5.2688,5.35,5.35,5.35,5.35,5.35,5.35,5.35,5.35,5.35,5.35,5.35,5.35,5.35,5.35,5.35,5.35,5.35,5.35,5.35,5.35,5.35,5.35,5.35,5.35,5.35,5.35,5.35,5.35,5.35,5.35,5.35,5.35,5.35,5.35,5.35,5.35,5.35,5.35,5.35,5.35,5.35,0.0,0.0,0.0,0.0,0.0,0.0,0.0,0.0,0.0,0.0,0.0,0.0,0.0,0.0,0.0,0.0,0.0,0.0,3.3633,3.4297,3.4648,3.4512,3.5371,3.584,3.584,3.6141,3.6336,3.6336,3.796,3.8937,3.9462,4.1208,4.1861,4.1525,4.1799,4.1459,4.055,4.0333,4.0142,3.9948,3.9965,4.0065,4.0195,0.0,0.0,0.0,0.0,0.0,0.0,0.0,0.0,0.0,4.2288,4.1986,4.1404,4.0074,3.9929,4.0336,4.0857,4.2555,4.4407,4.5619,4.694,4.8235,4.8943,4.813,4.7811,4.9979,5.0743,5.0975,5.0714,5.1933,5.2659,5.1759,5.2688,5.35,5.35,5.35,5.35,5.35,5.35,5.35,5.35,5.35,5.35,5.35,5.35,5.35,5.35,5.35,5.35,5.35,5.35,5.35,5.35,5.35,5.35,5.35,5.35,5.35,5.35,5.35,5.35,5.35,5.35,5.35,5.35,5.35,5.35,5.35,5.35,5.35,5.35,5.35,5.35,5.35,0.0,0.0,0.0,0.0,0.0,0.0,0.0,0.0,0.0,0.0,3.4883,3.4629,0.0,0.0,0.0,0.0,0.0,0.0,3.3437,3.4219,3.4707,3.4707,3.5547,3.6084,3.62,3.6904,3.7488,3.7755,3.9174,4.0326,4.142,4.2556,4.2856,4.2457,4.2018,4.1222,4.029,4.017,3.9998,3.9722,4.0049,4.0325,4.0551,0.0,0.0,0.0,0.0,0.0,0.0,0.0,0.0,0.0,4.264,4.2389,4.212,4.1562,4.1518,4.1974,4.3491,4.4927,4.632,4.7788,4.8914,4.9814,5.0336,4.9843,4.9698,5.117,5.173,5.1962,5.1846,5.2746,5.3268,5.2484,5.3007,5.35,5.35,5.35,5.35,5.35,5.35,5.35,5.35,5.35,5.35,5.35,5.35,5.35,5.35,5.35,5.35,5.35,5.35,5.35,5.35,5.35,5.35,5.35,5.35,5.35,5.35,5.35,5.35,5.35,5.35,5.35,5.35,5.35,5.35,5.35,5.35,5.35,5.35,5.35,5.35,5.35,0.0,0.0,3.4023,3.4023,0.0,0.0,0.0,0.0,0.0,0.0,3.4609,3.4434,0.0,0.0,0.0,0.0,0.0,0.0,0.0,3.4219,3.4707,3.4707,3.5547,3.6248,3.6662,3.8001,3.9125,4.004,4.004,4.1084,4.2994,4.2892,4.2837,4.2936,4.1831,4.0949,4.04,3.9898,3.9722,3.9772,3.9823,4.0174,4.0676,4.0727,0.0,0.0,0.0,0.0,0.0,0.0,0.0,0.0,4.2911,4.264,4.2456,4.341,4.412,4.5088,4.7371,4.8024,4.8586,5.0983,5.083,5.0336,5.1527,5.1788,5.1933,5.2507,5.2652,5.2833,5.3413,5.35,5.35,5.35,5.35,5.35,5.35,5.35,5.35,5.35,5.35,5.35,5.35,5.35,5.35,5.35,5.35,5.35,5.35,5.35,5.35,5.35,5.35,5.35,5.35,5.35,5.35,5.35,5.35,5.35,5.35,5.35,5.35,5.35,5.35,5.35,5.35,5.35,5.35,5.35,5.35,5.35,5.35,5.35,5.35,5.35,0.0,0.0,3.3555,3.3555,0.0,0.0,0.0,0.0,0.0,0.0,0.0,0.0,0.0,0.0,0.0,0.0,0.0,0.0,0.0,3.4219,3.4707,3.4707,3.5795,3.6743,3.755,3.8823,4.0537,4.2832,4.2832,4.3224,4.3997,4.4101,4.3729,4.2936,4.1831,4.0802,3.9873,3.9747,3.9948,4.0375,4.0802,4.1304,4.1911,4.2283,4.2585,0.0,0.0,0.0,0.0,0.0,0.0,0.0,4.2514,4.2615,4.259,4.1549,4.2941,4.489,4.5329,4.7494,4.9927,5.1266,5.2165,5.2775,5.3036,5.3094,5.3007,5.2681,5.2978,5.3355,5.35,5.35,5.35,5.35,5.35,5.35,5.35,5.35,5.35,5.35,5.35,5.35,5.35,5.35,5.35,5.35,5.35,5.35,5.35,5.35,5.35,5.35,5.35,5.35,5.35,5.35,5.35,5.35,5.35,5.35,5.35,5.35,5.35,5.35,5.35,5.35,5.35,5.35,5.35,5.35,5.35,5.35,5.35,5.35,5.35,5.35,0.0,0.0,0.0,0.0,0.0,0.0,0.0,0.0,0.0,0.0,0.0,0.0,0.0,0.0,0.0,0.0,0.0,0.0,0.0,3.416,3.4655,3.5264,3.6475,3.767,3.8763,4.0662,4.2391,4.3979,4.462,4.5013,4.5257,4.4793,4.4041,4.2936,4.1831,4.0674,3.9722,3.9973,4.0249,4.0576,4.1075,4.1656,4.2238,4.2539,4.2816,4.2986,4.2986,0.0,0.0,0.0,0.0,0.0,0.0,0.0,4.2972,4.2943,4.3381,4.4441,4.6953,4.8411,4.9728,5.1937,5.3036,5.35,5.35,5.35,5.3413,5.3094,5.3297,5.35,5.35,5.35,5.35,5.35,5.35,5.35,5.35,5.35,5.35,5.35,5.35,5.35,5.35,5.35,5.35,5.35,5.35,5.35,5.35,5.35,5.35,5.35,5.35,5.35,5.35,5.35,5.35,5.35,5.35,5.35,5.35,5.35,5.35,5.35,5.35,5.35,5.35,5.35,5.35,5.35,5.35,5.35,5.35,5.35,5.35,5.35,0.0,0.0,0.0,0.0,0.0,0.0,0.0,0.0,0.0,0.0,0.0,0.0,0.0,0.0,0.0,0.0,0.0,0.0,0.0,0.0,0.0,3.5878,3.7119,3.8504,3.9909,4.2218,4.3855,4.4645,4.5732,4.6301,4.6276,4.5146,4.4041,4.2936,4.1831,4.0674,3.9722,4.0275,4.0576,4.0701,4.1254,4.1806,4.2363,4.2363,4.264,4.2986,4.2986,4.2986,4.2986,4.2986,0.0,0.0,0.0,0.0,4.326,4.4646,4.4221,4.4309,4.8562,4.913,4.9303,5.2659,5.35,5.35,5.35,5.35,5.35,5.35,5.35,5.35,5.35,5.35,5.35,5.35,5.35,5.35,5.35,5.35,5.35,5.35,5.35,5.35,5.35,5.35,5.35,5.35,5.35,5.35,5.35,5.35,5.35,5.35,5.35,5.35,5.35,5.35,5.35,5.35,5.35,5.35,5.35,5.35,5.35,5.35,5.35,5.35,5.35,5.35,5.35,5.35,5.35,5.35,5.35,5.35,5.35,5.35,0.0,0.0,0.0,0.0,0.0,0.0,0.0,0.0,0.0,0.0,3.3418,3.3418,0.0,0.0,0.0,0.0,0.0,0.0,3.3496,0.0,0.0,3.5786,3.6973,3.8629,4.0783,4.1845,4.3606,4.6059,4.618,4.6301,4.6276,4.5146,4.4041,4.2936,4.1831,4.0674,3.9722,4.0275,4.0802,4.1225,4.1831,4.2439,4.2861,4.2861,4.2911,4.2986,4.2986,4.2986,4.2986,4.2986,4.2986,0.0,0.0,0.0,4.2942,4.2705,4.391,4.5225,4.497,4.7339,5.0408,5.289,5.35,5.35,5.35,5.35,5.35,5.35,5.35,5.35,5.35,5.35,5.35,5.35,5.35,5.35,5.35,5.35,5.35,5.35,5.35,5.35,5.35,5.35,5.35,5.35,5.35,5.35,5.35,5.35,5.35,5.35,5.35,5.35,5.35,5.35,5.35,5.35,5.35,5.35,5.35,5.35,5.35,5.35,5.35,5.35,5.35,5.35,5.35,5.35,5.35,5.35,5.35,5.35,5.35,5.35,0.0,0.0,0.0,0.0,0.0,0.0,0.0,0.0,0.0,0.0,0.0,3.3418,0.0,0.0,0.0,3.3418,3.3418,3.3579,3.4024,3.5022,3.5872,3.6461,3.8399,4.0226,4.1668,4.355,4.5098,4.6301,4.6301,4.615,4.5824,4.4995,4.4192,4.3388,4.1902,4.1025,4.0626,4.0824,4.1304,4.1831,4.2112,4.2715,4.3338,4.2409,4.2635,4.3363,4.2791,4.271,4.2986,4.2986,4.2986,4.2986,4.2986,0.0,0.0,0.0,4.3178,4.402,4.5502,4.8181,5.1007,5.3006,5.35,5.35,5.35,5.35,5.35,5.35,5.35,5.35,5.35,5.35,5.35,5.35,5.35,5.35,5.35,5.35,5.35,5.35,5.35,5.35,5.35,5.35,5.35,5.35,5.35,5.35,5.35,5.35,5.35,5.35,5.35,5.35,5.35,5.35,5.35,5.35,5.35,5.35,5.35,5.35,5.35,5.35,5.35,5.35,5.35,5.35,5.35,5.35,5.35,5.35,5.35,5.35,5.35,5.35,0.0,0.0,0.0,0.0,0.0,0.0,0.0,0.0,0.0,0.0,0.0,0.0,0.0,0.0,0.0,0.0,3.3544,3.3911,3.4812,3.563,3.642,3.7074,3.9494,4.1244,4.2201,4.4583,4.5999,4.6301,4.6301,4.6024,4.5472,4.4895,4.4242,4.3539,4.2007,4.12,4.11,4.1225,4.1505,4.1835,4.2414,4.2986,4.3489,4.2534,4.2936,4.3865,4.276,4.269,4.2936,4.266,4.2559,4.2559,4.2559,4.2559,0.0,0.0,0.0,4.25,4.5662,4.7696,4.9507,5.2038,5.2641,5.278,5.339,5.35,5.35,5.35,5.35,5.35,5.35,5.35,5.35,5.35,5.35,5.35,5.35,5.35,5.35,5.35,5.35,5.35,5.35,5.35,5.35,5.35,5.35,5.35,5.35,5.35,5.35,5.35,5.35,5.35,5.35,5.35,5.35,5.35,5.35,5.35,5.35,5.35,5.35,5.35,5.35,5.35,5.35,5.35,5.35,5.35,5.35,5.35,5.35,5.35,5.35,5.35,0.0,0.0,0.0,0.0,0.0,0.0,0.0,0.0,0.0,0.0,0.0,3.3418,3.3418,3.3418,3.3544,3.3859,3.3859,3.4352,3.5448,3.6432,3.7074,3.7488,3.9217,0.0,4.2138,4.3669,4.5013,4.6301,4.6301,4.6024,4.5472,4.4895,4.4041,4.2961,4.1831,4.1,4.0601,4.1075,4.1,4.0777,4.2886,4.3438,4.3112,4.4091,4.4493,4.4443,4.3338,4.2961,4.2811,4.1781,4.1376,4.1376,4.1376,4.1376,4.1376,0.0,0.0,0.0,4.3545,4.3835,4.462,4.9109,5.0279,5.0853,5.303,5.35,5.35,5.35,5.35,5.35,5.35,5.35,5.35,5.35,5.35,5.35,5.35,5.35,5.35,5.35,5.35,5.35,5.35,5.35,5.35,5.35,5.35,5.35,5.35,5.35,5.35,5.35,5.35,5.35,5.35,5.35,5.35,5.35,5.35,5.35,5.35,5.35,5.35,5.35,5.35,5.35,5.35,5.35,5.35,5.35,5.35,5.35,5.35,5.35,5.35,5.35,0.0,0.0,0.0,0.0,0.0,0.0,0.0,0.0,0.0,0.0,0.0,0.0,0.0,3.4047,3.411,3.4235,3.4685,3.566,3.7213,3.7309,3.831,4.0423,4.1114,4.2161,4.3544,4.489,4.5793,4.6301,4.6301,4.5849,4.492,4.4719,4.384,4.2464,4.1681,4.1175,4.1,4.12,4.1175,4.1125,4.266,4.3363,4.3438,4.276,4.3614,4.4945,4.3112,4.274,4.2911,4.2534,4.1932,4.1275,4.1275,4.1275,4.1275,4.1275,4.115,4.1471,4.3465,4.3809,4.4361,4.7144,4.8973,5.0279,5.11,5.245,5.35,5.35,5.35,5.35,5.35,5.35,5.35,5.35,5.35,5.35,5.35,5.35,5.35,5.35,5.35,5.35,5.35,5.35,5.35,5.35,5.35,5.35,5.35,5.35,5.35,5.35,5.35,5.35,5.35,5.35,5.35,5.35,5.35,5.35,5.35,5.35,5.35,5.35,5.35,5.35,5.35,5.35,5.35,5.35,5.35,5.35,5.35,5.35,5.35,5.35,0.0,0.0,0.0,3.3544,0.0,3.3733,3.3733,3.3733,3.3796,3.4047,0.0,0.0,0.0,0.0,3.4733,3.5417,3.6792,3.8077,3.9324,3.9194,3.9993,4.2138,4.2643,4.3357,4.4312,4.5611,4.6301,4.6301,4.6125,4.5547,4.4618,4.4443,4.3463,4.1882,4.1681,4.1404,4.1,4.1,4.0953,4.0927,4.2585,4.3137,4.2936,4.2529,4.3363,4.4443,4.3017,4.2715,4.2986,4.2986,4.2484,4.1831,4.1401,4.1025,4.0724,4.0724,4.0724,4.1011,4.2239,4.2553,4.3023,4.4964,4.6608,4.8163,4.976,5.129,5.256,5.3308,5.35,5.35,5.35,5.35,5.35,5.35,5.35,5.35,5.35,5.35,5.35,5.35,5.35,5.35,5.35,5.35,5.35,5.35,5.35,5.35,5.35,5.35,5.35,5.35,5.35,5.35,5.35,5.35,5.35,5.35,5.35,5.35,5.35,5.35,5.35,5.35,5.35,5.35,5.35,5.35,5.35,5.35,5.35,5.35,5.35,5.35,5.35,5.35,3.4127,3.4029,3.3922,3.3922,3.4173,3.4423,3.4423,3.4423,3.4423,3.4423,0.0,0.0,0.0,0.0,0.0,3.7638,4.0068,4.1506,4.1568,4.1988,4.2264,4.2328,4.3606,4.4312,4.4374,4.5611,4.6301,4.6301,4.5748,4.5196,4.4618,4.4041,4.2911,4.13,4.1882,4.1505,4.0501,4.0526,4.0199,3.9948,4.2685,4.2836,4.1576,4.379,4.3991,4.3062,4.3037,4.3011,4.2986,4.3011,4.2961,4.2685,4.163,4.0551,3.9697,3.9697,3.9697,3.9697,0.0,0.0,0.0,4.245,4.3048,4.4278,4.8865,4.9953,5.0663,5.2919,5.3419,5.3448,5.35,5.35,5.35,5.35,5.35,5.35,5.35,5.35,5.35,5.35,5.35,5.35,5.35,5.35,5.35,5.35,5.35,5.35,5.35,5.35,5.35,5.35,5.35,5.35,5.35,5.35,5.35,5.35,5.35,5.35,5.35,5.35,5.35,5.35,5.35,5.35,5.35,5.35,5.35,5.35,5.35,5.35,5.35,5.35,5.35,5.35,3.4768,3.4535,3.4235,3.4235,3.436,3.4423,3.4423,3.4423,3.4485,0.0,0.0,0.0,3.646,3.7675,3.8864,3.9907,4.0953,4.1963,4.297,4.2513,4.3107,4.5098,4.4645,4.4767,4.5732,4.612,4.6301,4.6301,4.5748,4.5196,4.4593,4.3639,4.2534,4.1275,4.1078,4.0576,3.9973,4.0777,4.0576,3.9948,4.2685,4.3288,4.2685,4.4091,4.4945,4.5271,4.4468,4.3664,4.3112,4.389,4.2585,4.0551,4.0249,3.9948,3.9697,3.9697,3.9697,3.9697,3.9697,0.0,0.0,0.0,0.0,0.0,4.4726,4.6995,4.9218,5.0723,5.1648,5.2487,5.3343,5.35,5.35,5.35,5.35,5.35,5.35,5.35,5.35,5.35,5.35,5.35,5.35,5.35,5.35,5.35,5.35,5.35,5.35,5.35,5.35,5.35,5.35,5.35,5.35,5.35,5.35,5.35,5.35,5.35,5.35,5.35,5.35,5.35,5.35,5.35,5.35,5.35,5.35,5.35,5.35,5.35,5.35,5.35,5.35,5.35,3.5023,3.4851,3.461,3.461,3.4735,3.4797,3.4797,3.4797,3.5108,0.0,0.0,0.0,3.8297,4.0034,4.1409,4.1986,4.2933,4.3855,4.4694,4.4229,4.4645,4.624,4.5525,4.5464,4.6301,4.6301,4.62,4.5974,4.5397,4.4719,4.3915,4.3037,4.2057,4.0949,4.0849,4.0425,3.9747,4.0626,4.0501,3.9923,4.2434,4.2986,4.2459,4.4041,4.4744,4.4895,4.4694,4.4217,4.384,4.4945,4.3438,4.1078,4.1078,4.0425,3.9697,3.9697,3.9697,3.9697,3.9697,3.9697,3.9697,3.9697,0.0,0.0,4.4146,4.6111,4.8318,5.0995,5.2003,5.2648,5.3343,5.35,5.35,5.35,5.35,5.35,5.35,5.35,5.35,5.35,5.35,5.35,5.35,5.35,5.35,5.35,5.35,5.35,5.35,5.35,5.35,5.35,5.35,5.35,5.35,5.35,5.35,5.35,5.35,5.35,5.35,5.35,5.35,5.35,5.35,5.35,5.35,5.35,5.35,5.35,5.35,5.35,5.35,5.35,5.35,5.35,0.0,3.5019,3.4984,3.4984,3.517,3.5479,3.5603,3.5603,3.6074,0.0,3.7714,3.8537,4.0389,4.2078,4.3324,4.3857,4.5399,4.6301,4.6301,4.6301,4.6301,4.6301,4.6301,4.6276,4.6225,4.6225,4.5949,4.5397,4.4819,4.3991,4.2961,4.2414,4.1505,4.0526,4.0924,4.0601,3.9722,4.0224,4.0199,4.0049,4.2007,4.2283,4.1702,4.384,4.4091,4.3463,4.4468,4.4744,4.4769,4.5648,4.4694,4.3112,4.2861,4.153,4.0023,3.9772,3.9772,3.9848,3.9722,3.9697,3.9697,3.9697,3.9697,0.0,4.4883,4.5917,4.7199,5.1456,5.2426,5.2593,5.2785,5.2814,5.2814,5.29,5.3093,5.3256,5.3448,5.35,5.35,5.35,5.35,5.35,5.35,5.35,5.35,5.35,5.35,5.35,5.35,5.35,5.35,5.35,5.35,5.35,5.35,5.35,5.35,5.35,5.35,5.35,5.35,5.35,5.35,5.35,5.35,5.35,5.35,5.35,5.35,5.35,5.35,5.35,5.35,5.35,5.35,5.35,3.5314,3.5294,3.5294,3.5294,3.5356,3.5788,3.6764,3.6946,3.7369,3.8684,4.0093,4.1851,4.4196,4.4774,4.5166,4.5714,4.613,4.6301,4.6301,4.6301,4.6301,4.6301,4.6301,4.61,4.5673,4.5648,4.5372,4.4794,4.4242,4.3639,4.2961,4.1957,4.1153,4.0501,4.0174,3.9898,3.9697,3.9798,4.03,4.1053,4.1426,4.2057,4.2811,4.4116,4.5045,4.5673,4.5899,4.5397,4.4518,4.3865,4.394,4.3991,4.2208,4.1982,4.1982,4.0224,4.0325,4.0827,3.9923,3.9697,3.9697,3.9697,3.9697,0.0,4.0823,4.1719,4.2859,4.4754,4.5847,4.6921,4.8344,4.8586,4.8752,4.9223,5.0502,5.1893,5.3285,5.35,5.35,5.35,5.35,5.35,5.35,5.35,5.35,5.35,5.35,5.35,5.35,5.35,5.35,5.35,5.35,5.35,5.35,5.35,5.35,5.35,5.35,5.35,5.35,5.35,5.35,5.35,5.35,5.35,5.35,5.35,5.35,5.35,5.35,5.35,5.35,5.35,5.35,5.35,3.5356,3.5418,3.5603,3.6237,3.6359,3.6785,3.8029,3.8268,3.8684,3.9978,4.1731,4.3498,4.5313,4.5497,4.5723,4.625,4.6301,4.6301,4.6301,4.6301,4.6175,4.5924,4.5899,4.5623,4.507,4.5045,4.4769,4.4217,4.3664,4.2961,4.2133,4.1304,4.0874,4.0824,4.0074,3.9998,4.0475,3.9923,4.0023,4.0626,4.1706,4.2811,4.3915,4.5045,4.5824,4.6301,4.6301,4.5949,4.5372,4.4819,4.4267,4.3714,4.3162,4.261,4.1932,4.0827,4.0902,4.105,3.9998,3.9898,4.0099,4.0099,4.03,0.0,0.0,4.2851,4.3844,4.5395,4.6356,4.7135,4.773,4.7838,4.7946,4.8246,5.0044,5.1248,5.0938,5.2382,5.35,5.35,5.35,5.35,5.35,5.35,5.35,5.35,5.35,5.35,5.35,5.35,5.35,5.35,5.3849,5.4023,5.4023,5.4313,5.4458,5.4458,5.4458,5.4313,5.4023,5.4023,5.382,5.35,5.35,5.35,5.35,5.35,5.35,5.35,5.35,5.35,5.35,5.35,5.35,5.35,3.5705,3.5767,3.6197,3.7429,3.767,3.8111,3.9531,3.9708,4.027,4.1765,4.3342,4.4669,4.5698,4.5899,4.6125,4.6577,4.6627,4.6527,4.6326,4.6301,4.6075,4.5522,4.5372,4.5095,4.4644,4.4518,4.4141,4.3489,4.3037,4.2258,4.1125,4.0727,4.0701,4.0949,4.03,4.0375,4.0924,4.03,4.0124,4.0475,4.2258,4.3388,4.4116,4.5246,4.5799,4.6024,4.6225,4.6301,4.6276,4.605,4.4794,4.3388,4.384,4.3006,4.1802,4.115,4.1351,4.153,4.0199,4.0249,4.0676,4.0676,4.0949,4.1771,0.0,0.0,0.0,4.6651,4.7296,4.751,4.7189,4.7136,4.7216,4.7376,4.92,4.9967,4.8192,5.0558,5.2492,5.2492,5.3295,5.3656,5.3184,5.3343,5.3559,5.3704,5.3588,5.3559,5.3704,5.382,5.3878,5.3878,5.44,5.4691,5.4691,5.5155,5.5416,5.5416,5.5416,5.5155,5.4691,5.4575,5.4226,5.3704,5.3559,5.35,5.35,5.35,5.35,5.35,5.35,5.35,5.35,5.35,5.35,5.35,3.7067,3.7067,3.7489,3.8744,3.898,3.9531,4.1316,4.1622,4.2393,4.4693,4.5614,4.625,4.6878,4.7355,4.7657,4.7732,4.7732,4.733,4.6376,4.6301,4.6075,4.5522,4.4995,4.4694,4.4618,4.4141,4.3388,4.2389,4.2338,4.1681,4.0601,4.0551,4.03,3.9923,4.0777,4.0676,3.9948,4.0802,4.1706,4.2635,4.2886,4.2459,4.1777,4.2936,4.3966,4.4945,4.5949,4.6301,4.615,4.5146,4.4644,4.4116,4.2228,4.283,4.3664,4.0752,4.1605,4.3062,4.0978,4.0774,4.12,4.12,4.1225,4.1379,4.1641,0.0,4.1847,4.2059,0.0,4.2341,4.2827,0.0,0.0,4.4167,4.5408,4.6394,4.6596,4.7918,4.8898,4.8898,5.2639,5.4342,5.2195,5.289,5.3762,5.4342,5.3849,5.3762,5.4371,5.4894,5.5184,5.5184,5.5271,5.53,5.53,5.5387,5.5416,5.5416,5.5416,5.5358,5.53,5.4749,5.4458,5.4371,5.3762,5.35,5.35,5.35,5.35,5.35,5.35,5.35,5.35,5.35,5.35,5.35,3.8033,3.8392,3.9385,4.1022,4.1306,4.1792,4.3207,4.349,4.3961,4.5313,4.5698,4.605,4.6602,4.6577,4.6753,4.7405,4.6878,4.6451,4.6326,4.6024,4.5447,4.4543,4.4267,4.3991,4.3689,4.3137,4.2665,4.2213,4.153,4.0978,4.0501,4.0199,4.0249,4.0676,4.1075,4.143,4.163,4.2082,4.2183,4.2082,4.271,4.2333,4.1551,4.3991,4.5196,4.5673,4.615,4.6301,4.6225,4.5773,4.4744,4.374,4.4116,4.3482,4.2635,4.2208,4.2434,4.2559,4.1329,4.163,4.2208,4.1882,4.2283,4.2685,4.2359,4.2534,4.2685,4.2359,0.0,0.0,0.0,0.0,0.0,0.0,4.4944,4.5761,4.4591,4.7309,4.9145,4.8382,5.0075,5.1423,5.1783,5.2816,5.3932,5.4956,5.4099,5.3932,5.4956,5.5271,5.5416,5.5416,5.5794,5.5997,5.5997,5.6345,5.652,5.652,5.652,5.6316,5.5968,5.5736,5.5416,5.501,5.4371,5.4081,5.4052,5.3675,5.35,5.35,5.35,5.35,5.35,5.35,5.35,5.35,3.9885,4.0272,4.1281,4.2996,4.3305,4.3649,4.4728,4.4995,4.5246,4.5648,4.5849,4.6024,4.6276,4.6351,4.6577,4.7043,4.6677,4.6376,4.6301,4.5799,4.5121,4.4292,4.3815,4.3463,4.3212,4.2564,4.2062,4.1706,4.0902,4.045,4.0275,3.9873,4.0124,4.0849,4.115,4.1781,4.2534,4.2861,4.2685,4.2253,4.3112,4.3137,4.288,4.5045,4.605,4.6301,4.6301,4.6301,4.625,4.5949,4.4769,4.3664,4.497,4.394,4.2409,4.3313,4.3338,4.2997,4.2388,4.2954,4.3538,4.3034,4.3462,4.3858,4.3174,4.3288,4.3463,4.3062,4.3288,0.0,0.0,0.0,4.3037,4.3187,0.0,4.5021,4.3456,4.61,4.7907,4.6942,4.7458,4.8763,5.1125,5.2073,5.3135,5.4553,5.3921,5.4176,5.5623,5.5852,5.5939,5.5939,5.6403,5.6665,5.6665,5.71,5.7303,5.7303,5.7303,5.7071,5.6636,5.649,5.6142,5.5649,5.5039,5.4662,5.4487,5.3994,5.3675,5.35,5.35,5.35,5.35,5.35,5.35,5.35,4.3337,4.3024,4.3103,4.4328,4.456,4.4761,4.5372,4.5924,4.625,4.6276,4.6753,4.6878,4.6376,4.7707,4.8259,4.723,4.8083,4.8008,4.6426,4.5799,4.5472,4.5447,4.3865,4.3237,4.3765,4.271,4.163,4.0576,4.0526,4.0249,3.9722,3.9697,3.9722,3.9798,4.0852,4.13,4.1401,4.2534,4.3589,4.4518,4.4543,4.5196,4.605,4.5045,4.5347,4.6301,4.6301,4.6301,4.615,4.5045,4.4644,4.4392,4.3388,4.374,4.4317,4.3288,4.4141,4.5312,4.4704,4.5007,4.532,4.4746,4.4615,4.4396,4.324,4.2986,4.3011,4.2986,4.2986,4.3011,4.2986,4.2986,4.3162,4.3689,4.3419,0.0,0.0,4.3476,4.3229,4.3204,4.5214,4.7601,5.0017,5.0125,5.0847,5.274,5.3276,5.4374,5.629,5.6926,5.7245,5.7245,5.7274,5.7274,5.7274,5.7303,5.7303,5.7303,5.7303,5.7303,5.7245,5.6665,5.6403,5.6345,5.5678,5.5039,5.4517,5.4487,5.411,5.35,5.35,5.35,5.35,5.35,5.35,5.35,4.5374,4.525,4.5246,4.5689,4.5748,4.5799,4.5999,4.6175,4.6451,4.6803,4.7029,4.7205,4.7355,4.723,4.728,4.7606,4.7004,4.6527,4.6326,4.5447,4.492,4.492,4.3313,4.274,4.3237,4.1831,4.0877,4.0526,4.0149,3.9873,3.9697,3.9697,3.9697,3.9747,4.0852,4.1756,4.2484,4.3589,4.4292,4.4618,4.4618,4.5251,4.6187,4.5868,4.5974,4.6301,4.6301,4.6301,4.625,4.5874,4.5246,4.4694,4.507,4.4418,4.3689,4.4418,4.5126,4.5576,4.5761,4.7116,4.7961,4.5834,4.5931,4.5857,4.3548,4.2986,4.2986,4.2986,4.2986,4.2986,4.2986,4.2986,4.3037,4.3212,4.3112,4.3037,0.0,4.3087,4.2986,4.2986,4.5133,4.6919,4.7764,4.9805,5.1809,5.336,5.426,5.5395,5.6928,5.7187,5.7303,5.7303,5.7303,5.7303,5.7303,5.7303,5.7303,5.7303,5.7303,5.7303,5.7303,5.71,5.7013,5.6955,5.6345,5.5968,5.5707,5.4865,5.4371,5.4139,5.3675,5.35,5.35,5.35,5.35,5.35,4.6301,4.6301,4.6301,4.6301,4.6301,4.6301,4.6301,4.615,4.6276,4.6968,4.6803,4.6753,4.728,4.6903,4.6728,4.7029,4.6451,4.605,4.6024,4.5347,4.4945,4.4945,4.3714,4.3212,4.3564,4.1932,4.1003,4.0749,4.0074,3.9697,3.9697,3.9697,3.9697,3.9722,4.0425,4.158,4.3037,4.374,4.4493,4.5221,4.5221,4.5606,4.6264,4.6263,4.6289,4.6281,4.627,4.6301,4.6301,4.6301,4.6096,4.5908,4.6194,4.559,4.4973,4.5565,4.6097,4.6586,4.7192,4.861,4.9407,4.734,4.7235,4.6866,4.4175,4.3564,4.3564,4.3564,4.3263,4.3212,4.4016,4.3514,4.3112,0.0,0.0,4.2986,0.0,4.2986,4.2986,4.2986,4.4352,4.5671,4.6511,4.8219,5.054,5.3557,5.4001,5.5049,5.7162,5.7303,5.7303,5.7303,5.7303,5.7303,5.7303,5.7303,5.7303,5.7303,5.7303,5.7303,5.7303,5.7303,5.7303,5.7274,5.6897,5.6607,5.6345,5.5533,5.4923,5.4458,5.4023,5.3733,5.35,5.35,5.35,5.35,4.6301,4.6301,4.6301,4.6301,4.6301,4.6301,4.6301,4.5899,4.5949,4.7004,4.625,4.5799,4.6326,4.6828,4.6702,4.5673,4.6502,4.6652,4.5598,4.5497,4.5497,4.5522,4.492,4.4593,4.4618,4.2961,4.1856,4.1275,4.0249,3.9697,3.9697,3.9697,3.9697,3.9697,3.9697,4.0927,4.2986,4.2986,4.4267,4.6301,4.6301,4.6276,4.6285,4.6301,4.628,4.6212,4.6315,4.6301,4.6301,4.6301,4.7087,4.786,4.6695,4.7146,4.786,4.6755,4.7265,4.8311,4.8944,4.9521,4.9847,4.9223,4.8558,4.7529,4.5178,4.4694,4.4694,4.4694,4.3865,4.3765,4.5849,4.4493,4.3388,0.0,0.0,0.0,4.2986,4.2986,4.2986,4.2986,4.3037,4.4,4.6186,4.5457,4.7304,5.3192,5.2534,5.349,5.7104,5.7189,5.7189,5.7303,5.7303,5.7303,5.7303,5.7303,5.7303,5.7303,5.7303,5.7303,5.7303,5.7303,5.7303,5.7303,5.7303,5.6984,5.6461,5.6432,5.5707,5.4604,5.4575,5.4139,5.3559,5.353,5.35,5.35,4.6301,4.6301,4.6301,4.6301,4.6301,4.6301,4.6301,4.6552,4.6803,4.7043,4.723,4.733,4.7481,4.728,4.7029,4.6728,4.6602,4.6401,4.6125,4.5723,4.5673,4.6075,4.4769,4.4192,4.4618,4.261,4.148,4.1275,4.0249,3.9697,3.9697,3.9697,3.9697,3.9697,3.9697,4.0927,4.2986,4.2986,4.4267,4.6301,4.6301,4.6273,4.62,4.6272,4.628,4.6212,4.6315,4.6301,4.6301,4.6301,4.7087,4.786,4.6695,4.7146,4.8035,4.7769,4.85,4.9648,5.0712,5.1739,5.2098,5.0181,4.9578,4.8815,4.6424,4.5874,4.5874,4.5874,4.5648,4.5372,4.5095,4.4593,4.4016,4.3489,4.3162,4.2986,4.2986,4.2986,4.2986,4.2986,4.3689,4.4105,4.3944,4.6882,4.943,5.1013,5.2461,5.4432,5.7189,5.5649,5.5507,5.7218,5.7303,5.7303,5.7303,5.7303,5.7303,5.7303,5.7303,5.7303,5.7303,5.7303,5.7303,5.7303,5.7303,5.7216,5.7042,5.6578,5.6229,5.5881,5.5358,5.4807,5.4197,5.3704,5.35,5.3343,4.625,4.6301,4.6301,4.6301,4.6502,4.6677,4.6677,4.6301,4.6301,4.6968,4.6753,4.6652,4.7154,4.6954,4.6778,4.6778,4.6502,4.62,4.5974,4.5874,4.5874,4.5949,4.5271,4.5045,4.5347,4.3607,4.2479,4.2057,4.0953,4.0174,3.9697,3.9697,3.9697,3.9697,3.9697,4.0651,4.2333,4.3288,4.4418,4.5623,4.61,4.6281,0.0,4.6289,4.6256,4.6218,4.6314,4.6301,4.6301,4.6301,4.7087,4.786,4.6695,4.7146,4.8094,4.8094,4.8935,5.0014,5.074,5.1763,5.2193,5.0358,4.9774,4.9271,4.7439,4.7004,4.7004,4.7004,4.6627,4.6401,4.6728,4.5598,4.4267,4.3162,4.2986,4.2986,4.2986,4.2986,4.2986,4.2986,4.3539,4.3664,4.3037,4.6306,4.8961,5.0126,5.0923,5.2405,5.4791,5.4232,5.4627,5.6406,5.6478,5.6765,5.7303,5.6765,5.6765,5.7303,5.7303,5.7303,5.7303,5.7303,5.7303,5.7303,5.7303,5.7303,5.7274,5.6926,5.6636,5.6345,5.5678,5.4529,5.3302,5.374,5.3415,5.2594,4.5999,4.61,4.61,4.61,4.6552,4.6892,4.6943,4.5899,4.5522,4.6792,4.5824,4.5296,4.62,4.6301,4.6301,4.6301,4.6301,4.61,4.5623,4.605,4.61,4.5623,4.605,4.6301,4.6301,4.5196,4.4091,4.2986,4.1882,4.0777,3.9697,3.9697,3.9697,3.9697,3.9697,4.04,4.1626,4.374,4.4719,4.492,4.5924,4.6301,4.6301,4.6301,4.6301,4.6301,4.6301,4.6301,4.6301,4.6301,4.7087,4.786,4.6695,4.7265,4.8326,4.8326,4.9164,5.0154,5.0235,5.0936,5.1395,5.0405,4.9981,4.9634,4.8835,4.8483,4.8358,4.8358,4.7503,4.728,4.9038,4.6878,4.4493,4.3363,4.3313,4.3413,4.3413,4.3413,4.3363,4.3212,4.3313,0.0,4.3011,4.5044,4.7269,4.9572,4.8665,4.9171,5.1927,5.2882,5.4033,5.5594,5.5681,5.6165,5.7303,5.6165,5.6165,5.7303,5.7303,5.7303,5.7303,5.7303,5.7303,5.7303,5.7303,5.7303,5.7303,5.7303,5.6872,5.6183,5.5324,5.3697,5.189,5.3552,5.3011,5.146,4.4895,4.492,4.492,4.492,4.5397,4.5924,4.6376,4.6954,4.7129,4.6527,4.6602,4.6602,4.6326,4.6301,4.6301,4.6301,4.6301,4.6276,4.6175,4.625,4.6276,4.6175,4.625,4.6301,4.6301,4.5196,4.4091,4.2986,4.1882,4.0777,3.9697,3.9697,3.9697,3.9697,3.9697,4.0802,4.2785,4.4066,4.5171,4.6024,4.6225,4.6301,4.6301,4.6301,4.6301,4.6301,4.6301,4.6301,4.6301,4.6301,4.7087,4.786,4.6695,4.7828,4.9562,4.9562,5.0462,5.1458,5.1905,5.1866,5.1679,5.1961,5.161,5.1403,5.2303,5.1637,5.0893,5.0893,4.9849,4.8862,4.8309,4.7004,4.5648,4.4518,4.5121,4.5723,4.5723,4.5723,4.5372,4.4443,4.5171,4.4995,4.3162,4.514,4.6739,4.7189,4.6994,4.8801,5.3191,5.1793,5.2743,5.6841,5.6962,5.7078,5.7303,5.7078,5.7078,5.7303,5.7303,5.7303,5.7303,5.7303,5.7303,5.7303,5.7303,5.7303,5.7303,5.7303,5.6651,5.5419,5.3671,5.272,5.2284,5.2209,5.1269,5.0147,4.4618,4.4618,4.4719,4.502,4.5547,4.5999,4.6276,4.7004,4.723,4.6426,4.6301,4.6175,4.5924,4.6125,4.6301,4.6301,4.6301,4.6301,4.6301,4.6301,4.6301,4.6301,4.6301,4.6301,4.6301,4.5773,4.4669,4.2986,4.2459,4.1329,3.9697,3.9697,3.9697,3.9722,4.03,4.1128,4.2233,4.3915,4.4945,4.5497,4.6075,4.6301,4.6301,4.6301,4.6301,4.6301,4.6301,4.6301,4.6301,4.6301,4.6695,4.7027,4.6481,4.756,4.8935,4.8935,4.9845,5.0767,5.0664,5.0649,5.0817,5.1436,5.1505,5.1678,5.2324,5.1927,5.133,5.0664,5.0014,4.9238,4.8109,4.7029,4.6125,4.5598,4.5472,4.5648,4.6225,4.6301,4.61,4.5573,4.5447,4.502,4.394,4.4387,4.4986,4.552,4.5545,4.7411,5.154,5.0791,5.2073,5.6203,5.5651,5.5644,5.628,5.5644,5.5644,5.628,5.6992,5.7303,5.7303,5.7303,5.7303,5.7247,5.6594,5.628,5.6222,5.5586,5.456,5.3368,5.3097,5.2204,5.1109,5.1776,5.0869,4.9276,4.4568,4.4543,4.4669,4.5372,4.5849,4.6125,4.6125,4.6602,4.6803,4.6376,4.5924,4.5673,4.5673,4.605,4.6301,4.6301,4.6301,4.6301,4.6301,4.6301,4.6301,4.6301,4.6301,4.6301,4.6301,4.6301,4.5321,4.3338,4.3087,4.1982,4.0049,3.9798,3.9823,4.0074,4.0899,4.1551,4.2103,4.3833,4.4769,4.507,4.5949,4.6301,4.6301,4.6301,4.6301,4.6301,4.6301,4.6301,4.6301,4.6301,4.6301,4.6301,4.6301,4.7146,4.8094,4.8094,4.8935,4.9781,4.9226,4.9419,5.0062,5.1075,5.1364,5.1616,5.2236,5.1927,5.1205,5.0181,4.9783,4.9238,4.8109,4.7405,4.6928,4.6677,4.61,4.5999,4.6878,4.7004,4.6928,4.6677,4.5874,4.5221,4.4995,4.4192,4.4041,4.492,4.4976,4.6492,4.9791,5.0126,5.1711,5.4976,5.3791,5.3641,5.4641,5.3915,5.4144,5.5412,5.6423,5.7078,5.7303,5.7303,5.7303,5.7247,5.6222,5.5644,5.5295,5.3724,5.2447,5.1554,5.2385,5.1419,4.9797,5.1329,5.0679,4.8976,4.4418,4.4217,4.4217,4.5296,4.5522,4.5573,4.5573,4.6024,4.6376,4.6326,4.6276,4.6225,4.6225,4.6276,4.6301,4.6301,4.6301,4.6301,4.6301,4.6301,4.6301,4.6301,4.6301,4.6301,4.6301,4.6301,4.5698,4.4468,4.3463,4.2359,4.1125,4.0174,4.0224,4.1125,4.125,4.2404,4.4317,4.4543,4.5221,4.615,4.6276,4.6301,4.6301,4.6301,4.6301,4.6301,4.6301,4.6301,4.6301,4.6301,4.6301,4.6301,4.6301,4.7146,4.8094,4.8094,4.8935,4.9889,4.9752,4.9732,5.0349,5.2648,5.2332,5.2112,5.4473,5.3214,5.1429,5.133,5.0372,4.9238,4.8109,4.8661,4.8962,4.7933,4.8535,4.9163,4.9264,4.9289,4.8912,4.7883,4.7657,4.723,4.625,4.605,4.605,4.615,4.6309,4.7486,5.0016,5.0182,5.1376,5.3866,5.2672,5.203,5.2147,5.306,5.4144,5.5412,5.5528,5.6165,5.7303,5.7303,5.7303,5.7303,5.7191,5.648,5.5208,5.2727,5.1616,5.1393,5.0372,4.9847,4.959,4.9772,4.9682,4.9439,4.5121,4.497,4.4945,4.5422,4.5497,4.5598,4.5924,4.6175,4.6301,4.6301,4.6301,4.6301,4.6301,4.6301,4.6301,4.6301,4.6301,4.6301,4.6301,4.6301,4.6301,4.6301,4.6301,4.6301,4.6301,4.6301,4.5748,4.4618,4.3514,4.2409,4.1275,4.0824,4.1254,4.2359,4.3011,4.379,4.4669,4.5347,4.5899,4.6301,4.6301,4.6301,4.6301,4.6301,4.6301,4.6301,4.6301,4.6301,4.6301,4.6301,4.6301,4.6301,4.6301,4.7146,4.7977,4.7265,4.812,4.9185,4.8788,4.8942,4.9713,5.1742,5.1865,5.1741,5.2849,5.2236,5.1268,5.0563,4.995,4.9464,4.9012,4.8736,4.8661,4.8887,4.8736,4.8812,4.949,4.959,4.9414,4.8962,4.8335,4.7732,4.7305,4.6677,4.6301,4.6301,4.6408,4.716,4.8908,4.9685,5.0797,5.2534,5.1955,5.1607,5.1607,5.2085,5.2998,5.4263,5.5032,5.605,5.7303,5.7303,5.648,5.5032,5.5032,5.3844,5.1829,5.079,5.0372,5.0308,4.9783,4.959,4.959,4.959,4.959,4.9565,4.5974,4.5723,4.5598,4.5924,4.5849,4.5849,4.625,4.6301,4.6301,4.6301,4.6301,4.6301,4.6301,4.6301,4.6301,4.6301,4.6301,4.6301,4.6301,4.6301,4.6301,4.6301,4.6301,4.6301,4.6301,4.6301,4.5924,4.5121,4.4016,4.3062,4.2253,4.1982,4.2409,4.3489,4.4267,4.4819,4.5171,4.5974,4.6301,4.6301,4.6301,4.6301,4.6301,4.6301,4.6301,4.6301,4.6301,4.6301,4.6301,4.6301,4.6301,4.6301,4.6301,4.6874,4.7416,4.6541,4.7256,4.8335,4.8005,4.8335,4.9267,5.1075,5.1205,5.1016,5.1393,5.1205,5.0664,4.9783,4.959,4.959,4.959,4.8937,4.8661,4.9464,4.8912,4.8686,4.949,4.959,4.9464,4.9138,4.8385,4.7908,4.7908,4.723,4.6778,4.6778,4.7079,4.7714,4.8616,4.946,5.03,5.1223,5.0699,5.0462,5.0462,5.0798,5.1829,5.351,5.4382,5.5528,5.6708,5.6366,5.5208,5.351,5.3059,5.1829,5.0142,4.9783,4.959,4.959,4.959,4.959,4.959,4.959,4.959,4.959,4.6842,4.6225,4.5824,4.6928,4.6652,4.6301,4.6301,4.6301,4.6301,4.6301,4.6301,4.6301,4.6301,4.6301,4.6301,4.6301,4.6301,4.6301,4.6301,4.6301,4.6301,4.6301,4.6301,4.6301,4.6301,4.6301,4.6301,4.6301,4.5146,4.4593,4.4568,4.3463,4.3539,4.4593,4.4618,4.5246,4.6301,4.6301,4.6301,4.6301,4.6301,4.6301,4.6301,4.6301,4.6301,4.6301,4.6301,4.6301,4.6301,4.6301,4.6301,4.6301,4.6301,4.6301,4.6301,4.6301,4.6702,4.7255,4.7757,4.8335,4.9267,5.1075,5.0537,4.995,5.1205,5.0563,4.959,4.959,4.959,4.959,4.959,4.959,4.9565,4.959,4.959,4.9565,4.959,4.959,4.9188,4.8058,4.7908,4.7908,4.7908,4.7908,4.7883,4.7883,4.8912,4.9634,4.9871,4.9879,4.9905,4.9905,4.8651,4.7933,4.7933,4.9038,5.0942,5.351,5.351,5.4204,5.5412,5.4084,5.3571,5.345,5.2112,5.1518,5.1393,5.0142,4.959,4.959,4.959,4.959,4.959,4.959,4.959,4.959,4.7205,4.6853,4.6602,4.6577,4.6426,4.6301,4.6301,4.6301,4.6301,4.6301,4.6301,4.6301,4.6301,4.6301,4.6301,4.6301,4.6301,4.6301,4.6301,4.6301,4.6301,4.6301,4.6301,4.6301,4.6301,4.6301,4.6301,4.6301,4.5171,4.4618,4.4618,4.4267,4.4694,4.5773,4.5773,4.5974,4.6301,4.6301,4.6301,4.6301,4.6301,4.6301,4.6301,4.6301,4.6301,4.6301,4.6301,4.6301,4.6301,4.6301,4.6301,4.6301,4.6301,4.6301,4.6301,4.6301,4.6954,4.7707,4.7857,4.8611,4.9492,5.0092,4.9886,4.9719,5.0142,4.9886,4.959,4.959,4.959,4.959,4.959,4.959,4.959,4.959,4.959,4.959,4.959,4.959,4.9464,4.9088,4.9063,4.9063,4.9063,4.9063,4.8736,4.7958,4.8234,4.8145,4.7459,4.8858,4.9316,4.8528,4.8913,4.9063,4.9063,4.9414,5.0436,5.2139,5.2139,5.2788,5.4084,5.3664,5.2998,5.2112,5.1678,5.1016,5.0181,4.9783,4.959,4.959,4.959,4.959,4.959,4.959,4.959,4.959,4.728,4.6979,4.6702,4.6376,4.6301,4.6301,4.6301,4.6301,4.6301,4.6301,4.6301,4.6301,4.6301,4.6301,4.6301,4.6301,4.6301,4.6301,4.6301,4.6301,4.6301,4.6301,4.6301,4.6301,4.6301,4.6301,4.6301,4.6301,4.5598,4.5246,4.5246,4.5246,4.5648,4.6301,4.6301,4.6301,4.6301,4.6301,4.6301,4.6301,4.6301,4.6301,4.6301,4.6301,4.6301,4.6301,4.6301,4.6301,4.6301,4.6301,4.6301,4.6301,4.6301,4.6451,4.6627,4.6627,4.723,4.7958,4.8184,4.8887,4.959,4.959,4.959,4.959,4.959,4.959,4.959,4.959,4.959,4.959,4.959,4.959,4.959,4.959,4.959,4.959,4.959,4.959,4.9439,4.9012,4.8962,4.8962,4.8962,4.8962,4.8837,4.856,4.8535,4.8259,4.7581,4.8435,4.8837,4.856,4.9213,4.959,4.959,4.959,5.0245,5.1492,5.1492,5.1953,5.2754,5.2262,5.1606,5.079,5.079,5.0308,4.959,4.959,4.959,4.959,4.959,4.959,4.959,4.959,4.959,4.959,4.7018,4.6652,4.6301,4.6301,4.6301,4.6301,4.6301,4.6301,4.6301,4.6301,4.6301,4.6301,4.6301,4.6301,4.6301,4.6301,4.6301,4.6301,4.6301,4.6301,4.6301,4.6301,4.6301,4.6301,4.6301,4.6301,4.6301,4.6301,4.6301,4.6301,4.6301,4.6301,4.6301,4.6301,4.6301,4.6301,4.6301,4.6301,4.6301,4.6301,4.6301,4.6301,4.6301,4.6301,4.6301,4.6301,4.6301,4.6326,4.6376,4.6376,4.6401,4.6426,4.6426,4.6778,4.7179,4.7093,4.7531,4.8083,4.8636,4.9163,4.959,4.959,4.959,4.959,4.959,4.959,4.959,4.959,4.959,4.959,4.959,4.959,4.959,4.959,4.959,4.959,4.959,4.959,4.9213,4.8159,4.8033,4.8033,4.8033,4.8033,4.8435,4.9414,4.9464,4.9464,4.9464,4.8485,4.8435,4.9565,4.959,4.959,4.959,4.959,5.0181,5.1393,5.1393,5.1393,5.133,5.0142,4.959,4.959,4.959,4.959,4.959,4.959,4.959,4.959,4.959,4.959,4.959,4.959,4.959,4.959,4.6602,4.6401,4.6301,4.6301,4.6301,4.6301,4.6301,4.6301,4.6301,4.6301,4.6301,4.6301,4.6301,4.6301,4.6301,4.6301,4.6301,4.6301,4.6301,4.6301,4.6301,4.6301,4.6301,4.6301,4.6301,4.6301,4.6301,4.6301,4.6301,4.6301,4.6301,4.6301,4.6301,4.6301,4.6301,4.6301,4.6301,4.6301,4.6301,4.6301,4.6301,4.6301,4.6301,4.6301,4.6301,4.6301,4.6301,4.6577,4.6928,4.6928,4.7205,4.7531,4.7531,4.7631,4.7657,4.7193,4.7807,4.8611,4.8736,4.9163,4.959,4.959,4.959,4.959,4.959,4.959,4.959,4.959,4.959,4.959,4.959,4.959,4.959,4.959,4.959,4.959,4.959,4.959,4.949,4.9213,4.9188,4.9188,4.9188,4.9188,4.8937,4.836,4.8309,4.8309,4.8309,4.8058,4.8435,4.9565,4.959,4.959,4.959,4.959,4.9783,5.0078,5.0078,5.0078,5.0014,4.9719,4.959,4.959,4.959,4.959,4.959,4.959,4.959,4.959,4.959,4.959,4.959,4.959,4.959,4.959,4.6316,4.6301,4.6301,4.6301,4.6301,4.6301,4.6301,4.6301,4.6301,4.6301,4.6301,4.6301,4.6301,4.6301,4.6301,4.6301,4.6301,4.6301,4.6301,4.6301,4.6301,4.6301,4.6301,4.6301,4.6301,4.6301,4.6301,4.6301,4.6301,4.6301,4.6301,4.6301,4.6301,4.6301,4.6301,4.6301,4.6301,4.6301,4.6301,4.6301,4.6301,4.6301,4.6301,4.6301,4.6476,4.6702,4.6702,4.7029,4.7481,4.7481,4.7682,4.7908,4.7908,4.8083,4.8234,4.7958,4.8309,4.8837,4.9088,4.9364,4.959,4.959,4.959,4.959,4.959,4.959,4.959,4.959,4.959,4.959,4.959,4.959,4.959,4.959,4.9163,4.9012,4.9515,4.9138,4.9012,4.954,4.959,4.959,4.959,4.959,4.9339,4.8736,4.8686,4.8686,4.8686,4.8686,4.8962,4.9565,4.959,4.959,4.959,4.959,4.959,4.959,4.959,4.959,4.959,4.959,4.959,4.959,4.959,4.959,4.959,4.959,4.959,4.959,4.959,4.959,4.959,4.959,4.959,4.959,4.618,4.624,4.624,4.6301,4.6301,4.6301,4.6301,4.6301,4.6301,4.6301,4.6301,4.6301,4.6301,4.6301,4.6301,4.6301,4.6301,4.6301,4.6301,4.6301,4.6301,4.6301,4.6301,4.6301,4.6301,4.6301,4.6301,4.6301,4.6301,4.6301,4.6301,4.6301,4.6301,4.6301,4.6301,4.6301,4.6301,4.6301,4.6301,4.6301,4.6301,4.6301,4.6326,4.6401,4.6728,4.7093,4.723,4.7581,4.8033,4.8033,4.8083,4.8159,4.8159,4.851,4.8887,4.8887,4.8887,4.9012,4.9464,4.959,4.959,4.959,4.959,4.959,4.959,4.959,4.959,4.959,4.959,4.959,4.959,4.959,4.954,4.9364,4.8686,4.8435,4.9238,4.8661,4.851,4.9464,4.959,4.959,4.959,4.959,4.959,4.959,4.959,4.959,4.959,4.959,4.959,4.959,4.959,4.959,4.959,4.959,4.959,4.959,4.959,4.959,4.959,4.959,4.959,4.959,4.959,4.959,4.959,4.959,4.959,4.959,4.959,4.959,4.959,4.959,4.959,4.959,4.5817,4.5878,4.5939,4.624,4.6301,4.6301,4.6301,4.6301,4.6301,4.6301,4.6301,4.6301,4.6301,4.6301,4.6301,4.6301,4.6301,4.6301,4.6301,4.6301,4.6301,4.6301,4.6301,4.6301,4.6301,4.6301,4.6301,4.6301,4.6301,4.6301,4.6301,4.6301,4.6301,4.6301,4.6301,4.6301,4.6301,4.6301,4.6301,4.6301,4.6301,4.6301,4.6351,4.6828,4.7054,4.7143,4.7631,4.8159,4.8636,4.8636,4.8937,4.9339,4.9339,4.9389,4.9464,4.9464,4.9464,4.949,4.9565,4.959,4.959,4.959,4.959,4.959,4.959,4.959,4.959,4.959,4.959,4.959,4.959,4.959,4.9289,4.8335,4.8812,4.9063,4.8284,4.8837,4.9389,4.9565,4.959,4.959,4.959,4.959,4.959,4.959,4.959,4.959,4.959,4.959,4.959,4.959,4.959,4.959,4.959,4.959,4.959,4.959,4.959,4.959,4.959,4.959,4.959,4.959,4.959,4.959,4.959,4.959,4.959,4.959,4.959,4.959,4.959,4.959,4.959,4.959,4.5453,4.5514,4.5574,4.5757,4.5757,4.5817,4.5999,4.5999,4.612,4.624,4.6301,4.6301,4.6301,4.6301,4.6301,4.6301,4.6301,4.6301,4.6301,4.6301,4.6301,4.6301,4.6301,4.6301,4.6301,4.6301,4.6301,4.6301,4.6301,4.6301,4.6301,4.6301,4.6301,4.6301,4.6301,4.6301,4.6301,4.6301,4.6301,4.6301,4.6301,4.6502,4.6778,4.7029,4.7506,4.8058,4.8284,4.8736,4.9213,4.9213,4.9389,4.959,4.959,4.959,4.959,4.959,4.959,4.959,4.959,4.959,4.959,4.959,4.959,4.959,4.959,4.959,4.959,4.959,4.959,4.959,4.959,4.959,4.9414,4.8912,4.8736,4.8711,4.8812,4.8736,4.8912,4.9515,4.959,4.959,4.959,4.959,4.959,4.959,4.959,4.959,4.959,4.959,4.959,4.959,4.959,4.959,4.959,4.959,4.959,4.959,4.959,4.959,4.959,4.959,4.959,4.959,4.959,4.959,4.959,4.959,4.959,4.959,4.959,4.959,4.959,4.959,4.959,4.959,4.5172,4.5208,4.5208,4.527,4.5331,4.5392,4.5635,4.5696,4.5757,4.5999,4.6059,4.6059,4.6059,4.6059,4.6059,4.6059,4.612,4.618,4.618,4.624,4.6301,4.6301,4.6301,4.6301,4.6301,4.6301,4.6301,4.6301,4.6301,4.6301,4.6301,4.6301,4.6301,4.6301,4.6301,4.6301,4.6301,4.6301,4.6301,4.6326,4.6451,4.6753,4.7093,4.7405,4.8033,4.8786,4.8912,4.9238,4.959,4.959,4.959,4.959,4.959,4.959,4.959,4.959,4.959,4.959,4.959,4.959,4.959,4.959,4.959,4.959,4.959,4.959,4.959,4.959,4.959,4.959,4.959,4.959,4.9515,4.9238,4.8686,4.851,4.9113,4.8686,4.8636,4.949,4.959,4.959,4.959,4.959,4.959,4.959,4.959,4.959,4.959,4.959,4.959,4.959,4.959,4.959,4.959,4.959,4.959,4.959,4.959,4.959,4.959,4.959,4.959,4.959,4.959,4.959,4.959,4.959,4.959,4.959,4.959,4.959,4.959,4.959,4.959,4.959,4.4876,4.484,4.4963,4.527,4.5331,4.5331,4.5331,4.5331,4.5331,4.5392,4.5392,4.5392,4.5392,4.5392,4.5392,4.5392,4.5635,4.5817,4.5817,4.612,4.6301,4.6301,4.6301,4.6301,4.6301,4.6301,4.6301,4.6301,4.6301,4.6301,4.6301,4.6301,4.6301,4.6301,4.6301,4.6301,4.6301,4.6301,4.6301,4.6351,4.6878,4.7043,4.7255,4.8259,4.8711,4.8837,4.9339,4.9565,4.959,4.959,4.959,4.959,4.959,4.959,4.959,4.959,4.959,4.959,4.959,4.959,4.959,4.959,4.959,4.959,4.959,4.959,4.959,4.959,4.959,4.959,4.959,4.959,4.9238,4.8209,4.8837,4.9138,4.8159,4.8862,4.9515,4.959,4.959,4.959,4.959,4.959,4.959,4.959,4.959,4.959,4.959,4.959,4.959,4.959,4.959,4.959,4.959,4.959,4.959,4.959,4.959,4.959,4.959,4.959,4.959,4.959,4.959,4.959,4.959,4.959,4.959,4.959,4.959,4.959,4.959,4.959,4.959,4.959,4.5001,4.4688,4.4532,4.4656,4.4656,4.4779,4.4963,4.4963,4.5086,4.527,4.5331,4.5331,4.5331,4.5331,4.5331,4.5331,4.5392,4.5514,4.5514,4.5635,4.5878,4.6301,4.6301,4.6301,4.6301,4.6301,4.6301,4.6301,4.6301,4.6301,4.6301,4.6301,4.6301,4.6301,4.6301,4.6301,4.6301,4.6301,4.6502,4.6828,4.6993,4.7531,4.8184,4.8611,4.8987,4.9314,4.9515,4.959,4.959,4.959,4.959,4.959,4.959,4.959,4.959,4.959,4.959,4.959,4.959,4.959,4.959,4.959,4.959,4.959,4.959,4.959,4.959,4.959,4.959,4.959,4.959,4.959,4.9464,4.9012,4.9314,4.9439,4.9012,4.9314,4.959,4.959,4.959,4.959,4.959,4.959,4.959,4.959,4.959,4.959,4.959,4.959,4.959,4.959,4.959,4.959,4.959,4.959,4.959,4.959,4.959,4.959,4.959,4.959,4.959,4.959,4.959,4.959,4.959,4.959,4.959,4.959,4.959,4.959,4.959,4.959,4.959,4.959,4.5101,4.4645,4.4285,4.4285,4.4285,4.4347,4.4594,4.4656,4.4717,4.4963,4.4963,4.4963,4.4963,4.4963,4.4963,4.4963,4.5086,4.5147,4.5147,4.527,4.5514,4.5939,4.5999,4.6059,4.612,4.612,4.618,4.6301,4.6301,4.6301,4.6301,4.6301,4.6301,4.6301,4.6301,4.6301,4.6326,4.6502,4.6778,4.7093,4.7506,4.8109,4.8786,4.8962,4.9264,4.959,4.959,4.959,4.959,4.959,4.959,4.959,4.959,4.959,4.959,4.959,4.959,4.959,4.959,4.959,4.959,4.959,4.959,4.959,4.959,4.959,4.959,4.959,4.959,4.959,4.959,4.959,4.959,4.959,4.959,4.959,4.959,4.959,4.959,4.959,4.959,4.959,4.959,4.959,4.959,4.959,4.959,4.959,4.959,4.959,4.959,4.959,4.959,4.959,4.959,4.959,4.959,4.959,4.959,4.959,4.959,4.959,4.959,4.959,4.959,4.959,4.959,4.959,4.959,4.959,4.959,4.959,4.959,4.959,4.959,4.959,4.5173,4.4645,4.4285,4.4285,4.4285,4.4285,4.4285,4.4285,4.4285,4.4285,4.4285,4.4285,4.4285,4.4285,4.4285,4.4285,4.4594,4.4779,4.4779,4.5086,4.527,4.527,4.5331,4.5453,4.5757,4.5817,4.5939,4.6301,4.6301,4.6301,4.6301,4.6301,4.6301,4.6301,4.6301,4.6301,4.6351,4.6842,4.7093,4.7193,4.8335,4.8761,4.8837,4.9389,4.959,4.959,4.959,4.959,4.959,4.959,4.959,4.959,4.959,4.959,4.959,4.959,4.959,4.959,4.959,4.959,4.959,4.959,4.959,4.959,4.959,4.959,4.959,4.959,4.959,4.959,4.959,4.959,4.959,4.959,4.959,4.959,4.959,4.959,4.959,4.959,4.959,4.959,4.959,4.959,4.959,4.959,4.959,4.959,4.959,4.959,4.959,4.959,4.959,4.959,4.959,4.959,4.959,4.959,4.959,4.959,4.959,4.959,4.959,4.959,4.959,4.959,4.959,4.959,4.959,4.959,4.959,4.959,4.959,4.959,4.959,4.959,4.579,4.5197,4.4717,4.4357,4.4285,4.4285,4.4285,4.4285,4.4285,4.4285,4.4285,4.4285,4.4285,4.4285,4.4285,4.4285,4.4409,4.447,4.447,4.4532,4.4594,4.4594,4.5025,4.5331,4.5453,4.5453,4.5514,4.5574,4.5574,4.5696,4.5939,4.5939,4.6059,4.6301,4.6301,4.6527,4.6903,4.6993,4.7581,4.8309,4.8636,4.9012,4.9364,4.954,4.959,4.959,4.959,4.959,4.959,4.959,4.959,4.959,4.959,4.959,4.959,4.959,4.959,4.959,4.959,4.959,4.959,4.959,4.959,4.959,4.959,4.959,4.959,4.959,4.959,4.959,4.959,4.959,4.959,4.959,4.959,4.959,4.959,4.959,4.959,4.959,4.959,4.959,4.959,4.959,4.959,4.959,4.959,4.959,4.959,4.959,4.959,4.959,4.959,4.959,4.959,4.959,4.959,4.959,4.959,4.959,4.959,4.959,4.959,4.959,4.959,4.959,4.959,4.959,4.959,4.959,4.959,4.959,4.959,4.959,4.959,4.959,4.6295,4.5645,4.4981,4.4645,4.4429,4.4285,4.4285,4.4285,4.4285,4.4285,4.4285,4.4285,4.4285,4.4285,4.4285,4.4285,4.4285,4.4285,4.4285,4.4285,4.4285,4.4285,4.4717,4.4963,4.5086,4.5086,4.5147,4.5331,4.5331,4.5392,4.5574,4.5574,4.582,4.6201,4.6201,4.65,4.7047,4.7396,4.7996,4.8621,4.8949,4.9289,4.959,4.959,4.959,4.959,4.959,4.959,4.959,4.959,4.959,4.959,4.959,4.959,4.959,4.959,4.959,4.959,4.959,4.959,4.959,4.959,4.959,4.959,4.959,4.959,4.959,4.959,4.959,4.959,4.959,4.959,4.959,4.959,4.959,4.959,4.959,4.959,4.959,4.959,4.959,4.959,4.959,4.959,4.959,4.959,4.959,4.959,4.959,4.959,4.959,4.959,4.959,4.959,4.959,4.959,4.959,4.959,4.959,4.959,4.959,4.959,4.959,4.959,4.959,4.959,4.959,4.959,4.959,4.959,4.959,4.959,4.959,4.959,4.959,4.959,4.6728,4.5934,4.5173,4.5101,4.4669,4.4333,4.4285,4.4285,4.4285,4.4285,4.4285,4.4285,4.4285,4.4285,4.4285,4.4285,4.4285,4.4285,4.4285,4.4285,4.4285,4.4285,4.4285,4.4409,4.4779,4.4779,4.4902,4.5208,4.5208,4.5208,4.527,4.5319,4.5613,4.608,4.6129,4.6448,4.7051,4.7887,4.8263,4.8426,4.9196,4.959,4.959,4.959,4.959,4.959,4.959,4.959,4.959,4.959,4.959,4.959,4.959,4.959,4.959,4.959,4.959,4.959,4.959,4.959,4.959,4.959,4.959,4.959,4.959,4.959,4.959,4.959,4.959,4.959,4.959,4.959,4.959,4.959,4.959,4.959,4.959,4.959,4.959,4.959,4.959,4.959,4.959,4.959,4.959,4.959,4.959,4.959,4.959,4.959,4.959,4.959,4.959,4.959,4.959,4.959,4.959,4.959,4.959,4.959,4.959,4.959,4.959,4.959,4.959,4.959,4.959,4.959,4.959,4.959,4.959,4.959,4.959,4.959,4.959,4.959,4.68,4.6535,4.6102,4.5285,4.4981,4.4765,4.4357,4.4285,4.4285,4.4285,4.4285,4.4285,4.4285,4.4285,4.4285,4.4285,4.4285,4.4285,4.4285,4.4285,4.4285,4.4285,4.4285,4.4347,4.4409,4.4409,4.447,4.4532,4.4532,4.4656,4.4902,4.534,4.5708,4.608,4.6522,4.7013,4.7528,4.7779,4.8244,4.8923,4.9152,4.9396,4.959,4.959,4.959,4.959,4.959,4.959,4.959,4.959,4.959,4.959,4.959,4.959,4.959,4.959,4.959,4.959,4.959,4.959,4.959,4.959,4.959,4.959,4.959,4.959,4.959,4.959,4.959,4.959,4.959,4.959,4.959,4.959,4.959,4.959,4.959,4.959,4.959,4.959,4.959,4.959,4.959,4.959,4.959,4.959,4.959,4.959,4.959,4.959,4.959,4.959,4.959,4.959,4.959,4.959,4.959,4.959,4.959,4.959,4.959,4.959,4.959,4.959,4.959,4.959,4.959,4.959,4.959,4.959,4.959,4.959,4.959,4.959,4.959,4.959,4.7136,4.6896,4.6535,4.5982,4.5414,4.4981,4.4693,4.4453,4.4285,4.4285,4.4285,4.4285,4.4285,4.4285,4.4285,4.4285,4.4285,4.4285,4.4285,4.4285,4.4285,4.4285,4.4285,4.4285,4.4285,4.4525,4.4549,4.4285,4.4549,4.4794,4.4981,4.5513,4.5963,4.6397,4.6688,4.7102,4.7613,4.7808,4.811,4.8616,4.8747,4.8967,4.9097,4.9097,4.9097,4.9097,4.9097,4.9227,4.9332,4.9332,4.9461,4.959,4.959,4.959,4.959,4.959,4.959,4.959,4.959,4.959,4.959,4.959,4.959,4.959,4.959,4.959,4.959,4.959,4.959,4.959,4.959,4.959,4.959,4.959,4.959,4.959,4.959,4.959,4.959,4.959,4.959,4.959,4.959,4.959,4.959,4.959,4.959,4.959,4.959,4.959,4.959,4.959,4.959,4.959,4.959,4.959,4.959,4.959,4.959,4.959,4.959,4.959,4.959,4.959,4.959,4.959,4.959,4.959,4.959,4.959,4.959,4.959,4.959,4.959,4.959,4.959,4.7497,4.7136,4.6824,4.6728,4.5982,4.5317,4.5221,4.4765,4.4429,4.4429,4.4333,4.4285,4.4285,4.4285,4.4285,4.4285,4.4285,4.4285,4.4285,4.4285,4.4333,4.4429,4.4429,4.4453,4.4549,4.4981,4.4957,4.4429,4.4957,4.5197,4.5221,4.5814,4.6295,4.6728,4.68,4.7088,4.7497,4.7828,4.796,4.8026,4.8379,4.8535,4.86,4.86,4.86,4.86,4.86,4.8772,4.9007,4.9072,4.9267,4.9461,4.9461,4.9461,4.9461,4.9461,4.9525,4.9525,4.959,4.959,4.959,4.959,4.959,4.959,4.959,4.959,4.959,4.959,4.959,4.959,4.959,4.959,4.959,4.959,4.959,4.959,4.959,4.959,4.959,4.959,4.959,4.959,4.959,4.959,4.959,4.959,4.959,4.959,4.959,4.959,4.959,4.959,4.959,4.959,4.959,4.959,4.959,4.959,4.959,4.959,4.959,4.959,4.959,4.959,4.959,4.959,4.959,4.959,4.959,4.959,4.959,4.959,4.959,4.959,4.959,4.959,4.7497,4.7449,4.7257,4.68,4.6583,4.6343,4.5886,4.5317,4.4957,4.4957,4.4573,4.4285,4.4285,4.4285,4.4285,4.4285,4.4285,4.4285,4.4285,4.4285,4.4501,4.4957,4.4957,4.5173,4.5694,4.579,4.5549,4.4957,4.5549,4.5814,4.5838,4.6367,4.6631,4.6728,4.7185,4.7425,4.7497,4.7563,4.7762,4.8026,4.8026,4.8313,4.86,4.86,4.86,4.86,4.86,4.8666,4.8706,4.9007,4.8967,4.8772,4.9072,4.8967,4.8772,4.9072,4.9137,4.9202,4.9525,4.959,4.959,4.959,4.959,4.959,4.959,4.959,4.959,4.959,4.959,4.959,4.959,4.959,4.959,4.959,4.959,4.959,4.959,4.959,4.959,4.959,4.959,4.959,4.959,4.959,4.959,4.959,4.959,4.959,4.959,4.959,4.959,4.959,4.959,4.959,4.959,4.959,4.959,4.959,4.959,4.959,4.959,4.959,4.959,4.959,4.959,4.959,4.959,4.959,4.959,4.959,4.959,4.959,4.959,4.959,4.959,4.959,4.7497,4.7497,4.7425,4.7185,4.692,4.6631,4.6391,4.591,4.5573,4.5573,4.5317,4.5053,4.4765,4.4453,4.4405,4.4693,4.4717,4.4861,4.5149,4.5173,4.5269,4.5573,4.5573,4.5694,4.591,4.6223,4.6247,4.6006,4.6247,4.6367,4.6367,4.6896,4.7161,4.7161,4.7401,4.7497,4.7497,4.7497,4.7563,4.7696,4.7696,4.7828,4.7984,4.7984,4.7984,4.7984,4.7984,4.8116,4.8313,4.842,4.8576,4.8666,4.8772,4.8706,4.8666,4.8772,4.8837,4.8902,4.9202,4.9332,4.9396,4.9525,4.959,4.959,4.959,4.959,4.959,4.959,4.959,4.959,4.959,4.959,4.959,4.959,4.959,4.959,4.959,4.959,4.959,4.959,4.959,4.959,4.959,4.959,4.959,4.959,4.959,4.959,4.959,4.959,4.959,4.959,4.959,4.959,4.959,4.959,4.959,4.959,4.959,4.959,4.959,4.959,4.959,4.959,4.959,4.959,4.959,4.959,4.959,4.959,4.959,4.959,4.959,4.959,4.959,4.959]}]]